[[[{"header":{"parameterUnit":"kt","parameterCategory":2,"dx":1,"dy":1,"la1":29.285339999999998,"la2":30.599998999999997,"lo1":-89.70041500000002,"lo2":-87.6738589999976,"nx":112,"ny":82,"refTime":"2022-10-13T12:00:00:Z","depth":0,"parameterNumber":1,"parameterNumberName":"U-component_of_WINDS"},"data":[-1.927,-1.8412,0.0,-1.697,-1.695,0.0,-1.6106,0.0,-1.5644,-1.5644,-1.5341,-1.5203,-1.5625,-1.5499,-1.5407,-1.5611,-1.4463,-1.3329,0.0,-0.9919,0.0,0.0,0.0,0.0,0.0,0.0,0.0,0.0,0.0,0.0,0.0,0.0,0.0,0.0,0.0,0.0,0.0,0.0,0.0,0.0,0.0,0.0,0.0,0.0,0.0,0.0,0.0,0.0,0.0,0.0,0.0,0.0,0.0,0.0,0.0,0.0,0.0,0.0,0.0,0.0,0.0,0.0,0.0,0.0,0.0,0.0,0.0,0.0,0.0,0.0,0.0,0.0,0.0,0.0,0.0,0.0,0.0,0.0,0.0,0.0,0.0,0.0,0.0,0.0,0.0,0.0,0.0,0.0,0.0,0.0,0.0,0.0,0.0,0.0,0.0,0.0,0.0,0.0,0.0,0.0,0.0,0.0,0.0,0.0,0.0,0.0,0.0,0.0,0.0,0.0,0.0,0.0,0.0,0.0,-1.7154,-1.637,0.0,0.0,0.0,-1.5377,-1.5308,-1.5203,-1.5038,-1.4696,-1.3951,-1.3884,-1.3652,-1.299,-1.1803,-1.0717,0.0,0.0,0.0,0.0,0.0,0.0,0.0,0.0,0.0,0.0,0.0,0.0,0.0,0.0,0.0,0.0,0.0,0.0,0.0,0.0,0.0,0.0,0.0,0.0,0.0,0.0,0.0,0.0,0.0,0.0,0.0,0.0,0.0,0.0,0.0,0.0,0.0,0.0,0.0,0.0,0.0,0.0,0.0,0.0,0.0,0.0,0.0,0.0,0.0,0.0,0.0,0.0,0.0,0.0,0.0,0.0,0.0,0.0,0.0,0.0,0.0,0.0,0.0,0.0,0.0,0.0,0.0,0.0,0.0,0.0,0.0,0.0,0.0,0.0,0.0,0.0,0.0,0.0,0.0,0.0,0.0,0.0,0.0,0.0,0.0,0.0,0.0,0.0,0.0,0.0,0.0,0.0,0.0,0.0,-1.6198,-1.6152,-1.5994,-1.56,-1.5534,-1.5541,-1.5534,-1.5515,-1.5423,-1.5141,-1.5063,-1.4399,-1.2295,-1.1519,-1.0577,-0.8805,-0.8088,0.0,0.0,0.0,0.0,0.0,0.0,0.0,0.0,0.0,0.0,0.0,0.0,0.0,0.0,0.0,0.0,0.0,0.0,0.0,0.0,0.0,0.0,0.0,0.0,0.0,0.0,0.0,0.0,0.0,0.0,0.0,0.0,0.0,0.0,0.0,0.0,0.0,0.0,0.0,0.0,0.0,0.0,0.0,0.0,0.0,0.0,0.0,0.0,0.0,0.0,0.0,0.0,0.0,0.0,0.0,0.0,0.0,0.0,0.0,0.0,0.0,0.0,0.0,0.0,0.0,0.0,0.0,0.0,0.0,0.0,0.0,0.0,0.0,0.0,0.0,0.0,0.0,0.0,0.0,0.0,0.0,0.0,0.0,0.0,0.0,0.0,0.0,0.0,0.0,0.0,0.0,0.0,0.0,0.0,0.0,-1.5532,-1.5585,-1.573,-1.5554,-1.5796,-1.5895,-1.558,-1.5213,-1.4572,-1.3172,-1.2486,0.0,0.0,0.0,-0.8874,-0.8369,0.0,-0.5416,0.0,0.0,0.0,0.0,0.0,0.0,0.0,0.0,0.0,0.0,0.0,0.0,0.0,0.0,0.0,0.0,0.0,0.0,0.0,0.0,0.0,0.0,0.0,0.0,0.0,0.0,0.0,0.0,0.0,0.0,0.0,0.0,0.0,0.0,0.0,0.0,0.0,0.0,0.0,0.0,0.0,0.0,0.0,0.0,0.0,0.0,0.0,0.0,0.0,0.0,0.0,0.0,0.0,0.0,0.0,0.0,0.0,0.0,0.0,0.0,0.0,0.0,0.0,0.0,0.0,0.0,0.0,0.0,0.0,0.0,0.0,0.0,0.0,0.0,0.0,0.0,0.0,0.0,0.0,0.0,0.0,0.0,0.0,0.0,0.0,0.0,0.0,0.0,0.0,0.0,0.0,0.0,0.0,0.0,-1.5328,-1.5305,-1.5528,-1.5528,-1.5756,-1.5646,-1.4494,-1.3832,-1.2868,-1.0821,0.0,0.0,0.0,0.0,0.0,0.0,-0.3743,0.0,0.0,0.0,0.0,0.0,0.0,0.0,0.0,0.0,0.0,0.0,0.0,0.0,0.0,0.0,-0.049,-0.158,-0.1612,-0.2125,-0.3228,-0.2141,-0.1649,-0.1649,-0.0512,0.0,0.0,0.0,0.0,0.0,0.0,0.0,0.0,0.0,0.0,0.0,0.0,0.0,0.0,0.0,0.0,0.0,0.0,0.0,0.0,0.0,0.0,0.0,0.0,0.0,0.0,0.0,0.0,0.0,0.0,0.0,0.0,0.0,0.0,0.0,0.0,0.0,0.0,0.0,0.0,0.0,0.0,0.0,0.0,0.0,0.0,0.0,0.0,0.0,0.0,0.0,0.0,0.0,0.0,0.0,0.0,0.0,0.0,0.0,0.0,0.0,0.0,0.0,0.0,0.0,0.0,0.0,0.0,0.0,0.0,0.0,-1.5367,-1.5348,-1.5489,-1.5521,-1.5335,-1.4657,-1.2738,0.0,-1.0513,-0.8276,0.0,0.0,0.0,0.0,0.0,0.0,0.0,0.0,0.0,0.0,0.0,0.0,0.0,0.0,0.0,0.0,0.0,0.0,0.0,0.0,0.0,0.0,-0.1216,-0.3957,-0.3933,-0.5074,-0.7686,-0.545,-0.4369,-0.4244,-0.1629,-0.0379,-0.0383,-0.0128,0.0,0.0,0.0,0.0,0.0,0.0,0.0,0.0,0.0,0.0,0.0,0.0,0.0,0.0,0.0,0.0,0.0,0.0,0.0,0.0,0.0,0.0,0.0,0.0,0.0,0.0,0.0,0.0,0.0,0.0,0.0,0.0,0.0,0.0,0.0,0.0,0.0,0.0,0.0,0.0,0.0,0.0,0.0,0.0,0.0,0.0,0.0,0.0,0.0,0.0,0.0,0.0,0.0,0.0,0.0,0.0,0.0,0.0,0.0,0.0,0.0,0.0,0.0,0.0,0.0,0.0,0.0,0.0,-1.5025,-1.5058,-1.5328,-1.5469,-1.3967,-1.2354,0.0,0.0,0.0,0.0,0.0,0.0,0.0,0.0,0.0,0.0,0.0,0.0,0.0,0.0,0.0,0.0,0.0,0.0,0.0,0.0,0.0,0.0,0.0,0.0,0.0,0.0,-0.1443,-0.455,-0.4216,-0.5306,-0.8279,-0.7313,-0.6879,-0.6881,-0.4356,-0.3135,-0.3018,-0.1019,0.0,0.0,0.0,0.0,0.0,0.0,0.0,0.0,0.0,0.0,0.0,0.0,0.0,0.0,0.0,0.0,0.0,0.0,0.0,0.0,0.0,0.0,0.0,0.0,0.0,0.0,0.0,0.0,0.0,0.0,0.0,0.0,0.0,0.0,0.0,0.0,0.0,0.0,0.0,0.0,0.0,0.0,0.0,0.0,0.0,0.0,0.0,0.0,0.0,0.0,0.0,0.0,0.0,0.0,0.0,0.0,0.0,0.0,0.0,0.0,0.0,0.0,0.0,0.0,0.0,0.0,0.0,0.0,-1.4702,-1.392,-1.325,-1.3411,-1.1556,0.0,0.0,-0.6887,-0.5028,-0.3147,-0.2349,-0.1747,-0.0942,0.0,0.0,0.0,0.0,0.0,0.0,0.0,0.0,0.0,0.0,0.0,0.0,0.0,-0.012,-0.048,-0.084,-0.156,-0.2876,-0.2876,-0.4788,-0.896,-0.8841,-1.0036,-1.2896,-1.1312,-1.0388,-1.0034,-0.7429,-0.6016,-0.5694,-0.3119,-0.2012,-0.1901,-0.0515,0.0,0.0,0.0,0.0,0.0,0.0,0.0,0.0,0.0,0.0,0.0,0.0,0.0,0.0,0.0,0.0,0.0,0.0,0.0,0.0,0.0,0.0,0.0,0.0,0.0,0.0,0.0,0.0,0.0,0.0,0.0,0.0,0.0,0.0,0.0,0.0,0.0,0.0,0.0,0.0,0.0,0.0,0.0,0.0,0.0,0.0,0.0,0.0,0.0,0.0,0.0,0.0,0.0,0.0,0.0,0.0,0.0,0.0,0.0,0.0,0.0,0.0,0.0,0.0,0.0,-1.3913,-1.2452,-1.1146,-1.0693,-0.8809,0.0,-0.4942,-0.377,-0.269,0.0,-0.0313,0.0,0.0,0.0,0.0,0.0,0.0,0.0,0.0,0.0,0.0,0.0,0.0,0.0,-0.012,-0.024,-0.048,-0.108,-0.168,-0.3118,-0.5746,-0.5866,-0.8248,-1.3481,-1.3486,-1.4682,-1.7449,-1.5286,-1.3851,-1.3381,-1.0628,-0.9019,-0.8402,-0.5866,-0.4557,-0.4489,-0.2406,-0.1147,-0.0766,-0.0775,-0.0768,-0.0754,-0.0762,-0.051,0.0,0.0,0.0,0.0,0.0,0.0,0.0,0.0,0.0,0.0,0.0,0.0,0.0,0.0,0.0,0.0,0.0,0.0,0.0,0.0,0.0,0.0,0.0,0.0,0.0,0.0,0.0,0.0,0.0,0.0,0.0,0.0,0.0,0.0,0.0,0.0,0.0,0.0,0.0,0.0,0.0,0.0,0.0,0.0,0.0,0.0,0.0,0.0,0.0,0.0,0.0,0.0,0.0,0.0,0.0,0.0,0.0,0.0,-1.1825,-1.1131,-1.0522,-0.8634,-0.621,0.0,-0.4056,-0.2185,-0.0416,0.0,0.0,0.0,0.0,0.0,0.0,0.0,0.0,0.0,0.0,0.0,0.0,0.0,0.0,0.0,-0.084,-0.084,-0.108,-0.18,-0.192,-0.3118,-0.5746,-0.5866,-0.8486,-1.4069,-1.3718,-1.492,-1.791,-1.7206,-1.685,-1.6732,-1.35,-1.1957,-1.1743,-0.8627,-0.7223,-0.7117,-0.6852,-0.5517,-0.3513,-0.3393,-0.3515,-0.3506,-0.3511,-0.201,0.0,0.0,0.0,0.0,0.0,0.0,0.0,0.0,0.0,0.0,0.0,0.0,0.0,0.0,0.0,0.0,0.0,0.0,0.0,0.0,0.0,0.0,0.0,0.0,0.0,0.0,0.0,0.0,0.0,0.0,0.0,0.0,0.0,0.0,0.0,0.0,0.0,0.0,0.0,0.0,0.0,0.0,0.0,0.0,0.0,0.0,0.0,0.0,0.0,0.0,0.0,0.0,0.0,0.0,0.0,0.0,0.0,0.0,-1.0902,-0.8697,-0.6365,-0.5523,0.0,0.0,-0.1637,-0.0827,0.0,0.0,0.0,0.0,0.0,0.0,0.0,0.0,0.0,0.0,0.0,0.0,0.0,0.0,0.0,0.0,0.0,-0.072,-0.12,-0.192,-0.2281,-0.312,-0.4676,-0.7537,-1.0866,-1.4791,-1.6105,-1.73,-1.862,-1.8383,-1.8153,-1.7679,-1.6359,-1.541,-1.4589,-1.1668,-1.0257,-0.9786,-0.822,-0.7037,-0.6046,-0.5994,-0.5244,-0.3788,-0.222,-0.0991,0.0,0.0,0.0,0.0,0.0,0.0,0.0,0.0,0.0,0.0,0.0,0.0,0.0,0.0,0.0,0.0,0.0,0.0,0.0,0.0,0.0,0.0,0.0,0.0,0.0,0.0,0.0,0.0,0.0,0.0,0.0,0.0,0.0,0.0,0.0,0.0,0.0,0.0,0.0,0.0,0.0,0.0,0.0,0.0,0.0,0.0,0.0,0.0,0.0,0.0,0.0,0.0,0.0,0.0,0.0,0.0,0.0,0.0,-0.966,0.0,0.0,0.0,0.0,0.0,0.0,0.0,0.0,0.0,0.0,0.0,0.0,0.0,0.0,0.0,0.0,0.0,0.0,0.0,0.0,0.0,0.0,0.0,0.0,0.0,0.0,0.0,-0.2881,-0.3361,-0.3842,-0.8731,-1.3011,-1.6223,-1.8134,-1.9092,-1.9092,-1.9092,-1.8856,-1.8383,-1.8147,-1.7679,-1.6737,-1.4698,-1.3504,-1.2923,-1.0885,-0.9964,-0.9957,-0.9246,-0.7296,-0.4676,-0.2063,-0.061,0.0,0.0,0.0,0.0,0.0,0.0,0.0,0.0,0.0,0.0,0.0,0.0,0.0,0.0,0.0,0.0,0.0,0.0,0.0,0.0,0.0,0.0,0.0,0.0,0.0,0.0,0.0,0.0,0.0,0.0,0.0,0.0,0.0,0.0,0.0,0.0,0.0,0.0,0.0,0.0,0.0,0.0,0.0,0.0,0.0,0.0,0.0,0.0,0.0,0.0,0.0,0.0,0.0,0.0,0.0,0.0,0.0,0.0,0.0,0.0,0.0,-0.0615,-0.0102,0.0,0.0,0.0,0.0,0.0,0.0,0.0,0.0,0.0,0.0,0.0,0.0,0.0,0.0,0.0,0.0,0.0,0.0,0.0,0.0,0.0,0.0,0.0,-0.3842,-0.3842,-0.3842,-0.8731,-1.3723,-1.8731,-1.8968,-1.9092,-1.9092,-1.9092,-1.9092,-1.8968,-1.8383,-1.8028,-1.8035,-1.7449,-1.7093,-1.7093,-1.6393,-1.6042,-1.5917,-1.3385,-1.0394,-0.7176,-0.4793,-0.2279,0.0,0.0,0.0,0.0,0.0,0.0,0.0,0.0,0.0,0.0,0.0,0.0,0.0,0.0,0.0,0.0,0.0,0.0,0.0,0.0,0.0,0.0,0.0,0.0,0.0,0.0,0.0,0.0,0.0,0.0,0.0,0.0,0.0,0.0,0.0,0.0,0.0,0.0,0.0,0.0,0.0,0.0,0.0,0.0,0.0,0.0,0.0,0.0,0.0,0.0,0.0,0.0,0.0,0.0,0.0,0.0,0.0,0.0,-0.7218,-0.407,-0.0905,-0.0206,0.0,0.0,0.0,0.0,0.0,0.0,0.0,0.0,0.0,0.0,0.0,0.0,0.0,0.0,0.0,0.0,0.0,0.0,0.0,0.0,0.0,0.0,0.0,0.0,0.0,0.0,-0.8847,-1.0513,-1.3011,-1.6466,-1.6584,-1.7419,-1.9092,-1.9092,-1.9092,-1.9092,-1.8856,-1.8502,-1.8028,-1.7916,-1.7679,-1.733,-1.7093,-1.7212,-1.7206,-1.4326,-1.2183,-1.0394,-0.622,-0.3713,-0.2399,-0.06,0.0,0.0,0.0,0.0,0.0,0.0,0.0,0.0,0.0,0.0,0.0,0.0,0.0,0.0,0.0,0.0,0.0,0.0,0.0,0.0,0.0,0.0,0.0,0.0,0.0,0.0,0.0,0.0,0.0,0.0,0.0,0.0,0.0,0.0,0.0,0.0,0.0,0.0,0.0,0.0,0.0,0.0,0.0,0.0,0.0,0.0,0.0,0.0,0.0,0.0,0.0,0.0,0.0,0.0,0.0,0.0,-0.7421,-0.3915,-0.0302,-0.0312,-0.0106,0.0,0.0,0.0,0.0,0.0,0.0,0.0,0.0,0.0,0.0,0.0,0.0,0.0,0.0,0.0,0.0,0.0,0.0,0.0,0.0,0.0,0.0,0.0,0.0,-0.8607,-1.1134,-1.22,-1.3529,-1.527,-1.6223,-1.7419,-1.9092,-1.9092,-1.9092,-1.9092,-1.9092,-1.8856,-1.8383,-1.8383,-1.8271,-1.7916,-1.7916,-1.8035,-1.791,-1.4915,-1.3367,-1.2302,-0.7887,-0.5384,-0.3953,-0.2038,-0.084,0.0,0.0,0.0,0.0,0.0,0.0,0.0,0.0,0.0,0.0,0.0,0.0,0.0,0.0,0.0,0.0,0.0,0.0,0.0,0.0,0.0,0.0,0.0,0.0,0.0,0.0,0.0,0.0,0.0,0.0,0.0,0.0,0.0,0.0,0.0,0.0,0.0,0.0,0.0,0.0,0.0,0.0,0.0,0.0,0.0,0.0,0.0,0.0,0.0,0.0,0.0,0.0,0.0,0.0,0.0,-0.829,-0.4713,-0.0999,-0.1052,-0.0533,-0.0107,-0.0109,-0.0109,0.0,0.0,0.0,0.0,-0.0109,-0.0109,-0.0109,-0.0109,0.0,0.0,0.0,0.0,0.0,0.0,0.0,0.0,0.0,0.0,0.0,0.0,-0.7421,-0.8622,-1.1307,-1.3642,-1.5144,-1.5486,-1.7755,-1.9079,-1.9092,-1.9092,-1.9092,-1.9092,-1.9092,-1.9092,-1.9092,-1.9092,-1.9092,-1.9092,-1.9092,-1.8738,-1.791,-1.562,-1.4193,-1.3367,-1.0145,-0.7288,-0.5027,-0.4192,-0.2278,0.0,0.0,0.0,0.0,0.0,0.0,0.0,0.0,0.0,0.0,0.0,0.0,0.0,0.0,0.0,0.0,0.0,0.0,0.0,0.0,0.0,0.0,0.0,0.0,0.0,0.0,0.0,0.0,0.0,0.0,0.0,0.0,0.0,0.0,0.0,0.0,0.0,0.0,0.0,0.0,0.0,0.0,0.0,0.0,0.0,0.0,0.0,0.0,0.0,0.0,0.0,0.0,0.0,0.0,0.0,-1.1156,-0.7534,-0.4085,-0.4083,-0.2705,-0.1302,-0.1306,-0.0981,-0.0545,-0.0545,-0.0218,-0.0218,-0.109,-0.1308,-0.1308,-0.1308,-0.0872,0.0,0.0,0.0,0.0,0.0,0.0,0.0,0.0,0.0,0.0,0.0,-0.997,-1.1884,-1.6164,-1.7085,-1.7558,-1.7833,-1.8427,-1.8881,-1.9086,-1.9092,-1.9092,-1.9092,-1.9092,-1.9092,-1.9092,-1.9092,-1.9092,-1.9092,-1.9092,-1.8974,-1.8738,-1.8134,-1.7537,-1.659,-1.3956,-1.0977,-0.8009,-0.5503,-0.2996,-0.06,-0.012,0.0,0.0,0.0,0.0,0.0,0.0,0.0,0.0,0.0,0.0,0.0,0.0,0.0,0.0,0.0,0.0,0.0,0.0,0.0,0.0,0.0,0.0,0.0,0.0,0.0,0.0,0.0,0.0,0.0,0.0,0.0,0.0,0.0,0.0,0.0,0.0,0.0,0.0,0.0,0.0,0.0,0.0,0.0,0.0,0.0,0.0,0.0,0.0,0.0,0.0,0.0,0.0,0.0,-1.2348,-0.9408,-0.6877,-0.6942,-0.5082,-0.3265,-0.3265,-0.2178,-0.1199,-0.1199,-0.1743,-0.2177,-0.1853,-0.1744,-0.1744,-0.1744,-0.1417,-0.1308,0.0,0.0,0.0,0.0,0.0,0.0,0.0,0.0,0.0,0.0,-1.0659,-1.2873,-1.7808,-1.8156,-1.8176,-1.8473,-1.8486,-1.8624,-1.8908,-1.8908,-1.8967,-1.9092,-1.9092,-1.9092,-1.9092,-1.9092,-1.9092,-1.9092,-1.9092,-1.9092,-1.9092,-1.9092,-1.8856,-1.8377,-1.6703,-1.4198,-1.1219,-0.8126,-0.5266,-0.2877,-0.108,-0.048,-0.036,-0.012,0.0,0.0,0.0,0.0,0.0,0.0,0.0,0.0,0.0,0.0,0.0,0.0,0.0,0.0,0.0,0.0,0.0,0.0,0.0,0.0,0.0,0.0,0.0,0.0,0.0,0.0,0.0,0.0,0.0,0.0,0.0,0.0,0.0,0.0,0.0,0.0,0.0,0.0,0.0,0.0,0.0,0.0,0.0,0.0,0.0,0.0,0.0,0.0,0.0,0.0,-1.2903,-1.1202,-0.9816,-0.9731,-0.7682,-0.5829,-0.5829,-0.4222,-0.2606,-0.2281,-0.4113,-0.508,-0.2822,-0.239,-0.2283,-0.207,-0.1962,-0.1853,-0.1962,0.0,0.0,0.0,0.0,0.0,0.0,0.0,0.0,0.0,-1.0966,-1.2994,-1.7611,-1.7844,-1.7983,-1.8169,-1.8176,-1.8314,-1.8618,-1.8657,-1.8802,-1.9033,-1.9073,-1.9092,-1.9092,-1.9092,-1.9092,-1.9092,-1.9092,-1.9092,-1.9092,-1.9092,-1.9092,-1.8974,-1.8383,-1.6703,-1.4188,-1.1223,-0.8367,-0.5507,-0.2637,-0.144,-0.096,-0.036,-0.012,-0.012,0.0,0.0,0.0,0.0,0.0,0.0,0.0,0.0,0.0,0.0,-0.012,-0.024,-0.024,-0.024,-0.024,-0.012,-0.012,-0.012,0.0,0.0,0.0,0.0,0.0,0.0,0.0,0.0,0.0,0.0,0.0,0.0,0.0,0.0,0.0,0.0,0.0,0.0,0.0,0.0,0.0,0.0,0.0,0.0,0.0,0.0,0.0,0.0,0.0,0.0,-1.4873,-1.4878,-1.4533,-1.2774,-1.0589,-0.8747,-0.8747,-0.8319,-0.7346,-0.5329,-0.7053,-0.8163,-0.6167,-0.576,-0.5251,-0.3481,-0.2726,-0.2617,-0.3162,-0.4027,-0.5001,0.0,0.0,0.0,0.0,0.0,0.0,0.0,0.0,-1.4457,-1.7228,-1.7451,-1.7576,-1.797,-1.7977,-1.8123,-1.8308,-1.8558,-1.8703,-1.8756,-1.898,-1.9092,-1.9092,-1.9092,-1.9092,-1.9092,-1.9092,-1.9092,-1.9092,-1.9092,-1.9092,-1.9092,-1.8974,-1.7419,-1.5028,-1.3956,-1.0509,-0.6344,-0.5389,-0.3596,-0.168,-0.096,-0.084,-0.072,-0.012,0.0,0.0,0.0,0.0,0.0,0.0,0.0,0.0,0.0,-0.084,-0.156,-0.156,-0.156,-0.144,-0.096,-0.084,-0.06,-0.012,0.0,0.0,0.0,0.0,0.0,0.0,0.0,0.0,0.0,0.0,0.0,0.0,0.0,0.0,0.0,0.0,0.0,0.0,0.0,0.0,0.0,0.0,0.0,0.0,0.0,0.0,0.0,0.0,0.0,-1.511,-1.5394,-1.5386,-1.4571,-1.2812,-1.1343,-1.1343,-1.0279,-0.9404,-0.9508,-1.0478,-1.065,-0.8563,-0.816,-0.789,-0.6961,-0.6551,-0.6568,-0.7058,-0.7605,-0.8144,-0.8798,0.0,0.0,0.0,0.0,0.0,0.0,0.0,-1.4878,-1.7157,-1.7271,-1.7438,-1.7569,-1.7576,-1.7714,-1.8109,-1.815,-1.8374,-1.8677,-1.8815,-1.8947,-1.9079,-1.8782,-1.873,-1.8888,-1.9026,-1.9092,-1.9092,-1.9092,-1.9092,-1.9092,-1.9092,-1.8371,-1.7058,-1.5502,-1.2412,-0.8847,-0.694,-0.4555,-0.2401,-0.168,-0.144,-0.144,-0.108,-0.096,-0.096,-0.096,-0.096,-0.096,-0.096,-0.096,-0.096,-0.096,-0.144,-0.192,-0.192,-0.192,-0.18,-0.156,-0.12,-0.084,-0.06,-0.024,0.0,0.0,0.0,0.0,0.0,0.0,0.0,0.0,0.0,0.0,0.0,0.0,0.0,0.0,0.0,0.0,0.0,0.0,0.0,0.0,0.0,0.0,0.0,0.0,0.0,0.0,0.0,0.0,-1.4774,-1.5018,-1.5335,-1.5476,-1.4571,-1.3568,-1.3623,-1.2163,-1.1318,-1.3147,-1.3552,-1.2859,-1.0663,-1.0156,-1.0115,-0.9878,-0.9831,-1.0007,-1.035,-1.0833,-1.1182,-1.1182,-1.1615,-1.1939,0.0,0.0,0.0,0.0,0.0,0.0,-1.7163,-1.7271,-1.7271,-1.7271,-1.7271,-1.7477,-1.7701,-1.787,-1.8136,-1.8486,-1.8552,-1.8697,-1.8895,-1.844,-1.8361,-1.8598,-1.8815,-1.8908,-1.8908,-1.8908,-1.8941,-1.9,-1.9,-1.904,-1.885,-1.6821,-1.4559,-1.1818,-0.8728,-0.5988,-0.3719,-0.252,-0.216,-0.216,-0.204,-0.192,-0.192,-0.192,-0.192,-0.192,-0.192,-0.192,-0.204,-0.2281,-0.2401,-0.2401,-0.2401,-0.2401,-0.2281,-0.216,-0.168,-0.132,-0.096,-0.06,-0.012,0.0,0.0,0.0,0.0,0.0,0.0,0.0,0.0,0.0,0.0,0.0,0.0,0.0,0.0,0.0,0.0,0.0,0.0,0.0,0.0,0.0,0.0,0.0,0.0,0.0,0.0,0.0,-1.4774,-1.517,-1.5495,-1.5521,-1.547,-1.5379,-1.5749,-1.5403,-1.5017,-1.5315,-1.5315,-1.4702,-1.2756,-1.2392,-1.1753,-0.9901,-0.9751,-0.9968,-0.998,-1.2048,-1.347,-1.347,-1.5416,-1.672,-1.672,-1.672,-1.672,0.0,0.0,0.0,-1.7264,-1.7271,-1.7271,-1.7271,-1.7271,-1.7284,-1.7303,-1.7662,-1.793,-1.799,-1.815,-1.8288,-1.8308,-1.8262,-1.8248,-1.8275,-1.8301,-1.8314,-1.8314,-1.8314,-1.8473,-1.8717,-1.8717,-1.8868,-1.8974,-1.885,-1.7176,-1.4677,-1.1937,-0.9321,-0.6701,-0.3719,-0.2881,-0.2761,-0.216,-0.192,-0.192,-0.192,-0.192,-0.192,-0.192,-0.192,-0.2281,-0.3481,-0.3722,-0.3722,-0.3722,-0.3722,-0.3481,-0.3001,-0.2761,-0.2401,-0.12,-0.096,-0.072,-0.012,0.0,0.0,0.0,0.0,0.0,0.0,0.0,0.0,0.0,0.0,0.0,0.0,0.0,0.0,0.0,0.0,0.0,0.0,0.0,0.0,0.0,0.0,0.0,0.0,0.0,0.0,-1.4234,-1.453,-1.4886,-1.5064,-1.5272,-1.5561,-1.5776,-1.5849,-1.5895,-1.5895,-1.5895,-1.558,-1.453,-1.4426,-1.4209,-1.3564,-1.3585,-1.3694,-1.3837,-1.4913,-1.5718,-1.5718,-1.6619,-1.7271,-1.7271,-1.7271,-1.7271,-1.7271,-1.7271,-1.7271,-1.7271,-1.7271,-1.7271,-1.7271,-1.7271,-1.7271,-1.7271,-1.7484,-1.7622,-1.7904,-1.8023,-1.7879,-1.7714,-1.7714,-1.7807,-1.8083,-1.8083,-1.8182,-1.8235,-1.8235,-1.8301,-1.8413,-1.8413,-1.8479,-1.8572,-1.8572,-1.6949,-1.4417,-1.2093,-0.9551,-0.6976,-0.4306,-0.3481,-0.3481,-0.3241,-0.3121,-0.3121,-0.3121,-0.3121,-0.3121,-0.3121,-0.3121,-0.3241,-0.3722,-0.3842,-0.3842,-0.3842,-0.3842,-0.3842,-0.3601,-0.3241,-0.2761,-0.2281,-0.18,-0.144,-0.12,-0.12,-0.12,-0.12,-0.084,-0.06,-0.06,-0.024,0.0,0.0,0.0,0.0,0.0,0.0,0.0,0.0,0.0,0.0,0.0,0.0,0.0,0.0,0.0,0.0,0.0,0.0,0.0,-1.4169,-1.4255,-1.451,-1.4721,-1.5137,-1.5397,-1.5397,-1.5658,-1.5836,-1.5928,-1.6014,-1.5981,-1.5587,-1.56,-1.5803,-1.5928,-1.602,-1.6245,-1.6337,-1.662,-1.6831,-1.6923,-1.7115,-1.7172,-1.7258,-1.7271,-1.7271,-1.7271,-1.7271,-1.7271,-1.7271,-1.7271,-1.7271,-1.7271,-1.7271,-1.7271,-1.7271,-1.7271,-1.7471,-1.7668,-1.7668,-1.7563,-1.7271,-1.7271,-1.7484,-1.7668,-1.7668,-1.7787,-1.7978,-1.7978,-1.8031,-1.8103,-1.8103,-1.8156,-1.8235,-1.8235,-1.7094,-1.5063,-1.2127,-0.9864,-0.7796,-0.4834,-0.3801,-0.3816,-0.3816,-0.3816,-0.3816,-0.3816,-0.3816,-0.3816,-0.3816,-0.3803,-0.3789,-0.3789,-0.3789,-0.3789,-0.3789,-0.3789,-0.3789,-0.3789,-0.3434,-0.3079,-0.2842,-0.2486,-0.2131,-0.1894,-0.1894,-0.1894,-0.1894,-0.1539,-0.1184,-0.0947,-0.0355,0.0,0.0,0.0,0.0,0.0,0.0,0.0,0.0,0.0,0.0,0.0,0.0,0.0,0.0,0.0,0.0,0.0,0.0,0.0,-1.4668,-1.468,-1.4768,-1.4774,-1.4979,-1.5189,-1.5189,-1.5189,-1.5275,-1.5476,-1.5869,-1.5981,-1.5587,-1.5875,-1.5974,-1.558,-1.5882,-1.6179,-1.6179,-1.6317,-1.66,-1.6897,-1.6937,-1.7049,-1.7238,-1.7271,-1.7271,-1.7271,-1.7271,-1.7271,-1.7271,-1.7271,-1.7271,-1.7271,-1.7271,-1.7271,-1.7271,-1.7271,-1.7271,-1.7271,-1.7271,-1.7271,-1.7271,-1.7271,-1.7271,-1.7271,-1.7271,-1.7277,-1.7277,-1.7277,-1.7543,-1.7904,-1.7904,-1.8089,-1.8235,-1.8235,-1.8235,-1.7552,-1.2543,-1.0839,-1.0043,-0.5265,-0.3707,-0.3638,-0.3638,-0.3638,-0.3638,-0.3638,-0.3638,-0.3638,-0.3638,-0.3711,-0.3668,-0.3668,-0.3668,-0.3668,-0.3668,-0.3668,-0.3668,-0.3668,-0.3668,-0.3437,-0.2864,-0.275,-0.2521,-0.1833,-0.1718,-0.1718,-0.1718,-0.1718,-0.1489,-0.0802,-0.0344,0.0,0.0,0.0,0.0,0.0,0.0,0.0,0.0,0.0,0.0,0.0,0.0,0.0,0.0,0.0,0.0,0.0,0.0,0.0,-1.4643,-1.4532,-1.4517,-1.4721,-1.4979,-1.5183,-1.5183,-1.5341,-1.5572,-1.5875,-1.5842,-1.5743,-1.5548,-1.5607,-1.5737,-1.5541,-1.5607,-1.577,-1.577,-1.602,-1.6238,-1.6337,-1.6515,-1.6666,-1.6759,-1.695,-1.7068,-1.7068,-1.7153,-1.7271,-1.7271,-1.7271,-1.7271,-1.7271,-1.7271,-1.7271,-1.7271,-1.7271,-1.7271,-1.7271,-1.7271,-1.7271,-1.7271,-1.7271,-1.7271,-1.7271,-1.7271,-1.7271,-1.7271,-1.7271,-1.7317,-1.751,-1.751,-1.7563,-1.7649,-1.7649,-1.7649,-1.7122,-1.4066,-1.1995,-1.0118,-0.7058,-0.5053,-0.3693,-0.3693,-0.3693,-0.3693,-0.3693,-0.3693,-0.3683,-0.353,-0.3649,-0.3666,-0.3666,-0.3666,-0.3666,-0.3666,-0.3666,-0.3666,-0.3666,-0.3666,-0.3665,-0.3436,-0.3436,-0.3321,-0.3092,-0.3092,-0.3092,-0.3092,-0.3092,-0.2863,-0.2176,-0.1603,-0.1145,-0.1145,-0.1145,-0.1031,-0.0573,-0.0897,-0.0997,-0.0554,-0.0551,-0.033,0.0,0.0,0.0,0.0,0.0,0.0,0.0,0.0,0.0,-1.502,-1.4808,-1.4666,-1.4793,-1.4899,-1.5031,-1.5031,-1.517,-1.5387,-1.5677,-1.5677,-1.5567,-1.5776,-1.5974,-1.5987,-1.5974,-1.5954,-1.5875,-1.5561,-1.5789,-1.5948,-1.6159,-1.6325,-1.6376,-1.6475,-1.6653,-1.6811,-1.6923,-1.7101,-1.7146,-1.7258,-1.7271,-1.7271,-1.7271,-1.7271,-1.7271,-1.7271,-1.7271,-1.7271,-1.7271,-1.7271,-1.7271,-1.7271,-1.7271,-1.7271,-1.7271,-1.7271,-1.7271,-1.7271,-1.7271,-1.7271,-1.7271,-1.7271,-1.7271,-1.7271,-1.7271,-1.7271,-1.6967,-1.472,-1.2454,-1.0163,-0.7823,-0.5525,-0.3632,-0.3632,-0.3632,-0.3632,-0.3632,-0.3632,-0.3619,-0.3559,-0.3571,-0.3599,-0.3599,-0.3599,-0.3599,-0.3599,-0.3599,-0.3599,-0.3599,-0.3599,-0.3599,-0.3599,-0.3599,-0.3599,-0.3599,-0.3599,-0.3599,-0.3599,-0.3599,-0.3374,-0.2699,-0.2249,-0.1911,-0.1799,-0.1799,-0.1574,-0.1124,-0.1764,-0.1744,-0.1199,-0.1199,-0.0981,-0.0654,-0.0654,-0.0654,-0.0654,-0.0436,-0.0327,-0.0327,-0.0109,0.0,-1.6021,-1.5594,-1.5145,-1.4857,-1.4879,-1.4925,-1.4833,-1.4833,-1.4906,-1.5163,-1.5338,-1.5613,-1.5994,-1.6482,-1.6745,-1.6468,-1.6462,-1.6297,-1.5639,0.0,-1.5783,-1.6047,-1.6179,-1.6172,-1.6403,-1.6449,-1.6574,-1.6851,-1.6884,-1.7029,-1.7218,-1.7238,-1.7245,-1.7271,-1.7271,-1.7271,-1.7271,-1.7271,-1.7271,-1.7271,-1.7271,-1.7271,-1.7271,-1.7271,-1.7271,-1.7271,-1.7271,-1.7271,-1.7271,-1.7271,-1.7271,-1.7271,-1.7271,-1.7271,-1.7271,-1.7271,-1.7271,-1.6942,-1.477,-1.2596,-1.0313,-0.8042,-0.5609,-0.3681,-0.3571,-0.3459,-0.3459,-0.3459,-0.3459,-0.3446,-0.3503,-0.3489,-0.3489,-0.3489,-0.3489,-0.3489,-0.3489,-0.3489,-0.3489,-0.3489,-0.3489,-0.3489,-0.3489,-0.3489,-0.3489,-0.3489,-0.3489,-0.3489,-0.3489,-0.3489,-0.3271,-0.2617,-0.2617,-0.2398,-0.1962,-0.1853,-0.1853,-0.1853,-0.2289,-0.2398,-0.1853,-0.1853,-0.1744,-0.1744,-0.1744,-0.1744,-0.1744,-0.109,-0.0872,-0.0872,-0.0327,-0.0109,-1.8663,-1.8128,-1.7526,-1.5056,-1.5572,-1.6366,-1.5522,-1.5706,-1.5822,-1.5513,-1.5482,-1.5554,-1.5626,-1.5744,-1.581,-1.5744,-1.6198,-1.637,-1.602,-1.6152,-1.6231,-1.6192,-1.6179,-1.6014,-1.5842,-1.604,-1.6205,-1.6271,-1.6475,-1.6719,-1.7022,-1.7035,-1.7141,-1.7258,-1.7271,-1.7271,-1.7271,-1.7271,-1.7271,-1.7271,-1.7271,-1.7271,-1.7271,-1.7271,-1.7271,-1.7271,-1.7271,-1.7271,-1.7271,-1.7271,-1.7271,-1.7271,-1.7271,-1.7271,-1.7271,-1.7271,-1.7271,-1.7264,-1.6619,-1.4986,-1.2704,-1.0425,-0.8064,-0.5802,-0.4056,-0.351,-0.351,-0.351,-0.351,-0.3507,-0.3493,-0.3489,-0.3489,-0.3489,-0.3489,-0.3489,-0.3489,-0.3489,-0.3489,-0.3489,-0.3489,-0.3489,-0.3489,-0.3489,-0.3489,-0.3489,-0.3489,-0.3489,-0.3489,-0.3489,-0.3489,-0.3271,-0.3271,-0.3271,-0.3053,-0.3053,-0.3053,-0.3053,-0.3162,-0.2944,-0.2398,-0.2398,-0.218,-0.1744,-0.1744,-0.1744,-0.1744,-0.1635,-0.1526,-0.1526,-0.1417,-0.1308,-2.1447,-2.0321,-1.9221,-1.714,-1.6821,-1.6718,-1.5727,-1.5903,-1.5999,-1.5516,-1.5436,-1.5574,-1.5809,-1.5934,-1.6066,-1.6205,-1.6376,-1.6389,-1.6212,-1.6086,-1.6086,-1.6179,0.0,-1.5862,-1.5836,-1.5855,-1.5928,-1.6166,-1.6312,-1.6429,-1.6712,-1.6857,-1.7009,-1.7167,-1.7199,-1.7271,-1.7271,-1.7271,-1.7271,-1.7271,-1.7271,-1.7271,-1.7271,-1.7271,-1.7271,-1.7271,0.0,-1.7271,-1.7271,-1.7271,-1.7271,-1.7271,-1.7271,-1.7271,-1.7271,-1.7271,-1.7271,-1.7271,-1.7271,-1.5745,-1.347,-1.1182,-0.8906,-0.6528,-0.425,-0.3489,-0.3489,-0.3489,-0.3489,-0.3489,-0.3489,-0.3489,-0.3489,-0.3489,-0.3489,-0.3489,-0.3489,-0.3489,-0.3489,-0.3489,-0.3489,-0.3489,-0.3489,-0.3489,-0.3489,-0.3489,-0.3489,-0.3489,-0.3489,-0.3489,-0.3489,-0.3489,-0.3489,-0.3489,-0.3489,-0.3489,-0.3489,-0.3489,-0.3489,-0.338,-0.2944,-0.2944,-0.2835,-0.2508,-0.2508,-0.2508,-0.2508,-0.2289,-0.2071,-0.2071,-0.1853,-0.1744,-2.4147,-2.2363,-2.0495,-1.9701,-1.8222,-1.6792,-1.5969,-1.593,-1.5922,-1.5437,-1.5453,-1.5607,-1.5961,-1.6198,-1.6455,-1.6752,-1.6587,-1.6356,-1.6265,-1.5921,-1.5836,-1.6053,-1.5849,-1.5776,-1.5987,-1.5776,-1.5737,-1.5987,-1.6007,-1.6132,-1.6409,-1.6666,-1.6838,-1.693,-1.7174,-1.7199,-1.7199,-1.7245,-1.7271,-1.7271,-1.7271,-1.7271,-1.7271,-1.7271,-1.7271,-1.7271,0.0,-1.7271,-1.7271,-1.7271,-1.7271,-1.7271,-1.7271,-1.7271,-1.7271,-1.7271,-1.7271,-1.7271,-1.7271,-1.5961,-1.3902,-1.129,-0.9123,-0.7068,-0.4359,-0.3489,-0.3489,-0.3489,-0.3489,-0.3489,-0.3489,-0.3489,-0.3489,-0.3489,-0.3489,-0.3489,-0.3489,-0.3489,-0.3489,-0.3489,-0.3489,-0.3489,-0.3489,-0.3489,-0.3489,-0.3489,-0.3489,-0.3489,-0.3489,-0.3489,-0.3489,-0.3489,-0.3489,-0.3489,-0.3489,-0.3489,-0.3489,-0.3489,-0.3489,-0.3489,-0.3489,-0.3489,-0.3489,-0.3489,-0.3489,-0.3489,-0.3489,-0.2944,-0.2726,-0.2617,-0.218,-0.2071,-2.6805,-2.3878,-2.1422,-2.0887,-1.9525,-1.8135,-1.7119,-1.6861,-1.6801,-1.6225,-1.5785,-1.5541,-1.5587,-1.5633,-1.5855,-1.6159,-1.6272,-1.6205,-1.6396,-1.6383,-1.6284,-1.6199,-1.6033,0.0,-1.562,-1.5561,-1.5554,-1.5593,-1.56,-1.5822,-1.6126,-1.6185,-1.6429,-1.6917,-1.6976,-1.7002,-1.7002,-1.714,-1.7271,-1.7271,-1.7271,-1.7271,-1.7271,-1.7271,-1.7271,-1.7271,0.0,0.0,-1.7271,-1.7271,-1.7271,-1.7271,-1.7271,-1.7271,-1.7271,-1.7271,-1.7271,-1.7271,-1.7271,-1.7049,-1.6068,-1.1831,-1.0205,-0.9123,-0.4792,-0.3489,-0.3489,-0.3489,-0.3489,-0.3489,-0.3489,-0.3489,-0.3489,-0.3489,-0.3489,-0.3489,-0.3489,-0.3489,-0.3489,-0.3489,-0.3489,-0.3489,-0.3489,-0.3489,-0.3489,-0.3489,-0.3489,-0.3489,-0.3489,-0.3489,-0.3489,-0.3489,-0.3489,-0.3489,-0.3489,-0.3489,-0.3489,-0.3489,-0.3489,-0.3489,-0.3489,-0.3489,-0.3489,-0.3489,-0.3489,-0.3489,-0.3489,-0.338,-0.338,-0.338,-0.3271,-0.3271,-2.758,-2.4582,-2.1713,-2.1428,-2.0024,-1.8427,-1.7746,-1.7554,-1.7361,-1.6872,-1.6294,-1.6058,-1.6227,-1.5931,-1.5731,-1.6436,-1.6541,-1.6581,-1.6712,-1.6462,-1.6318,-1.6192,-1.5934,-1.5842,0.0,-1.5626,-1.5528,-1.5528,-1.5528,-1.5587,-1.5829,-1.5987,-1.6198,-1.6462,-1.6772,-1.6851,-1.6693,-1.6983,-1.7134,-1.7134,-1.7192,-1.7271,-1.7271,-1.7271,-1.7271,-1.7271,-1.7271,-1.7271,-1.7271,-1.7271,-1.7271,-1.7271,-1.7271,-1.7271,-1.7271,-1.7271,-1.7271,-1.7271,-1.7271,-1.7271,-1.6505,-1.1939,-1.0529,-0.9664,-0.4901,-0.4359,-0.5443,-0.5443,-0.4466,-0.3489,-0.3489,-0.3489,-0.3489,-0.3489,-0.3489,-0.3489,-0.3489,-0.3489,-0.3489,-0.3489,-0.3489,-0.3489,-0.3489,-0.3489,-0.3489,-0.3489,-0.3489,-0.3489,-0.3489,-0.3489,-0.3489,-0.3489,-0.3489,-0.3489,-0.3489,-0.3489,-0.3489,-0.3489,-0.3489,-0.3489,-0.3489,-0.3489,-0.3489,-0.3489,-0.3489,-0.3489,-0.3489,-0.3489,-0.3489,-0.3489,-0.3489,-0.3489,-2.6555,0.0,-2.1065,-2.1065,-1.9841,-1.8523,0.0,-1.7954,-1.7754,-1.7354,-1.6872,-1.6556,-1.6905,-1.6361,-1.6136,-1.6719,-1.6892,-1.6829,-1.6732,-1.6409,-1.6198,-1.6271,-1.5954,-1.5849,-1.6145,-1.5842,-1.5528,-1.5528,-1.5528,-1.5528,-1.5528,-1.5842,-1.6007,-1.6172,-1.6501,-1.662,-1.6389,-1.6679,-1.6824,-1.6831,-1.7128,-1.7159,-1.7166,-1.7238,-1.7271,-1.7271,-1.7271,-1.7271,-1.7271,-1.7271,-1.7271,-1.7271,-1.7271,-1.7271,-1.7271,-1.7271,-1.7271,-1.7271,-1.7271,-1.7271,-1.672,-1.3239,-1.1723,-1.0533,-0.6419,-0.6417,-0.7825,-0.7825,-0.6528,-0.5119,-0.5119,-0.5119,-0.5119,-0.5119,-0.4684,-0.4359,-0.4359,-0.3925,-0.3489,-0.3489,-0.3489,-0.3489,-0.3489,-0.3489,-0.3489,-0.3489,-0.3489,-0.3489,-0.3489,-0.3489,-0.3489,-0.3489,-0.3489,-0.3489,-0.3489,-0.3489,-0.3489,-0.3489,-0.3489,-0.3489,-0.3489,-0.3489,-0.3489,-0.3489,-0.3489,-0.3489,-0.3489,-0.3489,-0.3489,-0.3489,-0.3489,-0.3489,0.0,-2.0597,-1.89,-1.89,-1.8804,-1.8619,-1.8619,-1.8243,0.0,-1.785,-1.745,-1.7065,-1.7087,-1.7072,-1.6887,-1.648,-1.6638,-1.6731,-1.6239,-1.6323,-1.6561,-1.6838,-1.6383,-1.6152,-1.6436,-1.5954,-1.5528,-1.5528,-1.5528,-1.5528,-1.5528,-1.5554,-1.5789,-1.6166,-1.6219,-1.6225,-1.6206,-1.6383,-1.6521,-1.6521,-1.6824,-1.6963,-1.697,-1.714,-1.7271,0.0,-1.7271,-1.7271,-1.7271,-1.7271,-1.7271,-1.7271,-1.7271,-1.7271,-1.7271,-1.7271,-1.7271,-1.7271,-1.7271,-1.7271,-1.7264,-1.6942,-1.5315,-1.3141,-1.0746,-1.0097,-1.0205,-1.0205,-1.0097,-0.9989,-0.9989,-0.9989,-0.9989,-0.9989,-0.8367,-0.6743,-0.6743,-0.5008,-0.3489,-0.3489,-0.3489,-0.3489,-0.3489,-0.3489,-0.3489,-0.3489,-0.3489,-0.3489,-0.3489,-0.3489,-0.3489,-0.3489,-0.3489,-0.3489,-0.3489,-0.3489,-0.3489,-0.3489,-0.3489,-0.3489,-0.3489,-0.3489,-0.3489,-0.3489,-0.3489,-0.3489,-0.3489,-0.3489,-0.3489,-0.3489,-0.3489,-0.3489,-2.0033,-1.9275,-1.8619,-1.8619,-1.8619,-1.8619,-1.8619,-1.8523,-1.8331,-1.8331,-1.7946,-1.7554,-1.7554,-1.7354,-1.7252,-1.7649,-1.7746,-1.7855,-1.7722,-1.761,-1.7362,-1.6789,-1.6145,-1.5836,-1.5941,-1.5659,-1.5528,-1.5528,-1.5528,-1.5528,-1.5528,-1.5528,-1.558,-1.5796,-1.5796,-1.5796,-1.5796,-1.6086,-1.6231,-1.6231,-1.6521,-1.6752,-1.6937,-1.7049,-1.7094,-1.7271,-1.7271,-1.7271,0.0,-1.7271,-1.7271,-1.7271,-1.7271,-1.7271,-1.7271,-1.7271,-1.7271,-1.7271,-1.7271,-1.7271,-1.7271,-1.7271,-1.5745,-1.3686,-1.2812,-1.3568,-1.4435,-1.292,-1.1507,-1.0529,-1.0529,-1.0529,-1.0529,-1.0529,-0.8689,-0.696,-0.696,-0.5119,-0.3489,-0.3489,-0.3489,-0.3489,-0.3489,-0.3489,-0.3489,-0.3489,-0.3489,-0.3489,-0.3489,-0.3489,-0.3489,-0.3489,-0.3489,-0.3489,-0.3489,-0.3489,-0.3489,-0.3489,-0.3489,-0.3489,-0.3489,-0.3489,-0.3489,-0.3489,-0.3489,-0.3489,-0.3489,-0.3489,-0.3489,-0.3489,-0.3489,-0.3489,-1.8619,-1.8619,-1.8619,-1.8619,-1.8619,-1.8619,-1.8619,-1.8619,-1.8619,-1.8619,-1.8331,-1.8146,-1.8146,-1.7925,-1.788,-1.8248,-1.8511,-1.856,-1.815,-1.8002,-1.7565,-1.6637,-1.6225,-1.5869,-1.5783,-1.5587,-1.5528,-1.5528,-1.5528,-1.5528,-1.5528,-1.5528,-1.5528,-1.5528,-1.5528,-1.5528,-1.5528,-1.5829,-1.5934,-1.5941,-1.6225,-1.6462,-1.6666,-1.6752,-1.695,-1.7127,-1.7127,-1.7186,-1.7271,-1.7271,-1.7271,-1.7271,-1.7271,-1.7271,-1.7271,-1.7271,-1.7271,-1.7271,-1.7271,-1.7271,-1.7271,-1.7271,-1.6182,-1.4878,-1.4878,-1.6068,-1.6942,-1.5315,-1.3789,-1.2699,-1.2699,-1.2699,-1.2699,-1.2699,-1.0858,-0.9129,-0.9129,-0.7394,-0.5767,-0.5767,-0.5119,-0.4792,-0.5552,-0.5119,-0.4575,-0.4575,-0.4575,-0.4359,-0.3598,-0.3489,-0.3489,-0.3489,-0.3489,-0.3489,-0.3489,-0.3489,-0.3489,-0.3489,-0.3489,-0.3489,-0.3489,-0.3489,-0.3489,-0.3489,-0.3489,-0.3489,-0.3489,-0.3489,-0.3489,-0.3489,-0.3489,-0.3489,-1.8619,-1.8619,-1.8619,-1.8619,-1.8619,-1.8619,-1.8619,-1.8619,-1.8619,-1.8619,-1.8619,-1.8619,-1.8619,-1.8984,-1.8906,-1.8007,-1.8507,-1.8522,-1.7108,-1.7117,-1.7093,-1.6584,-1.6745,-1.6699,-1.6225,-1.5803,-1.5528,-1.5528,-1.5528,0.0,-1.5528,-1.5528,-1.5528,-1.5528,-1.5528,-1.5528,-1.5528,-1.5528,-1.5528,-1.5534,-1.5928,-1.6172,-1.6186,-1.6356,-1.6646,-1.693,-1.693,-1.7095,0.0,-1.7264,-1.7264,-1.7271,-1.7271,-1.7271,-1.7271,-1.7271,-1.7271,-1.7271,-1.7271,-1.7271,-1.7271,-1.7271,-1.7271,-1.7271,-1.7271,-1.7271,-1.7271,-1.7271,-1.7271,-1.7271,-1.7271,-1.7271,-1.7271,-1.7271,-1.553,-1.3794,-1.3794,-1.2051,-1.0529,-1.0529,-0.8584,-0.7717,-1.0097,-0.8584,-0.696,-0.696,-0.696,-0.6093,-0.3816,-0.3489,-0.3489,-0.3489,-0.3489,-0.3489,-0.3489,-0.3489,-0.3489,-0.3489,-0.3489,-0.3489,-0.3489,-0.3489,-0.3489,-0.3489,-0.3489,-0.3489,-0.3489,-0.3489,-0.3489,-0.3489,-0.3489,-0.3489,-1.8619,-1.8619,-1.8619,-1.8619,-1.8619,-1.8619,-1.8619,-1.8619,-1.8619,-1.8619,-1.8619,-1.8619,-1.8619,-1.8794,-1.8808,-1.8851,-1.9047,-1.8835,-1.7872,-1.7763,-1.7437,-1.6419,-1.6277,-1.6178,-1.5796,-1.558,-1.5528,-1.5528,-1.5528,-1.5528,-1.5528,-1.5915,-1.5915,-1.5528,-1.5528,-1.5528,-1.5528,-1.5528,-1.5528,-1.5528,-1.562,-1.5875,-1.6179,-1.6265,-1.635,-1.662,-1.662,-1.6785,0.0,-1.7062,-1.7187,-1.7271,-1.7271,-1.7271,-1.7271,-1.7271,-1.7271,-1.7271,-1.7271,-1.7271,-1.7271,-1.7271,-1.7271,-1.7271,-1.7271,-1.7271,-1.7271,-1.7271,-1.7271,-1.7271,-1.7271,-1.7271,-1.7271,-1.7271,-1.553,-1.3794,-1.3794,-1.2051,-1.0529,-1.0529,-0.9989,-0.9664,-1.0421,-0.8584,-0.696,-0.696,-0.5552,-0.4901,-0.5878,-0.5985,-0.5985,-0.5985,-0.5985,-0.5985,-0.5985,-0.4468,-0.3489,-0.3489,-0.3489,-0.3489,-0.3489,-0.3489,-0.3489,-0.3489,-0.3489,-0.3489,-0.3489,-0.3489,-0.3489,-0.3489,-0.3489,-0.3489,-1.8619,-1.8619,-1.8619,-1.8619,-1.8619,-1.8619,-1.8619,-1.8619,-1.8619,-1.8619,-1.8619,-1.8619,-1.8619,-1.8826,-1.8936,-1.9008,-1.9244,-1.9111,-1.8161,-1.8157,-1.7821,-1.661,-1.6478,-1.6409,-1.6218,-1.6197,-1.6197,-1.6197,-1.6197,-1.6197,-1.6197,-1.6487,-1.6487,-1.6197,-1.6197,-1.6101,-1.5818,-1.5818,-1.5721,-1.5528,-1.5528,-1.5723,-1.5895,-1.5895,-1.6053,-1.6323,-1.6323,-1.6488,0.0,-1.6752,-1.6857,-1.7022,-1.7022,-1.7095,-1.72,-1.72,-1.7166,-1.7271,-1.7271,-1.7271,-1.7271,-1.7271,-1.7107,-1.7022,-1.7022,-1.7022,-1.7022,-1.7022,-1.7022,-1.7022,-1.7022,-1.7214,-1.7546,-1.7667,-1.6606,-1.5632,-1.5632,-1.4538,-1.3562,-1.3562,-1.2591,-1.2159,-1.3023,-1.129,-0.9671,-0.9671,-0.8479,-0.7828,-0.8367,-0.8367,-0.8367,-0.8367,-0.9126,-0.9343,-0.8476,-0.7068,-0.6311,-0.6311,-0.6311,-0.6311,-0.6311,-0.6311,-0.5878,-0.4901,-0.4901,-0.4468,-0.3489,-0.3489,-0.3489,-0.3489,-0.3489,-0.3489,-1.8619,-1.8619,-1.8619,-1.8619,-1.8619,-1.8619,-1.8619,-1.8812,-1.89,-1.89,-1.89,-1.89,-1.89,-1.9057,-1.9071,-1.8763,-1.9244,-1.9334,-1.8037,-1.8204,-1.8076,-1.719,-1.7154,-1.7154,-1.7154,-1.7154,-1.7154,-1.7154,-1.7154,-1.7154,-1.725,-1.7154,-1.7154,-1.7154,-1.7154,-1.6865,-1.639,-1.639,-1.6197,-1.5721,-1.5721,-1.5625,-1.5625,-1.5625,-1.5776,-1.6033,-1.6033,-1.6192,0.0,-1.6449,-1.6462,-1.6488,-1.6488,-1.6653,-1.689,-1.689,-1.7062,-1.7186,-1.7186,-1.7186,-1.7186,-1.7186,-1.693,-1.6692,-1.6692,-1.6692,-1.6692,-1.6692,-1.6692,-1.6692,-1.6692,-1.7305,-1.8004,-1.8185,-1.8255,-1.8255,-1.8255,-1.8255,-1.8261,-1.8289,-1.6133,-1.4957,-1.7043,-1.5422,-1.3902,-1.3794,-1.3578,-1.2812,-1.107,-1.0746,-1.0962,-1.1286,-1.292,-1.3136,-1.107,-1.0746,-1.0529,-1.0529,-1.0529,-1.0529,-1.0529,-1.0529,-0.9447,-0.7394,-0.7283,-0.6311,-0.4141,-0.4141,-0.4141,-0.4141,-0.4141,-0.4141,-1.8619,-1.8619,-1.8619,-1.8619,-1.8619,-1.8619,-1.8619,-1.9937,-2.116,-2.116,-2.116,-2.116,-2.116,-1.9804,-1.8794,-1.8627,-1.8842,-1.8687,-1.7969,-1.7918,-1.7829,-1.7161,-1.7154,-1.7154,-1.7154,-1.7154,-1.7154,-1.7154,-1.7154,-1.745,-1.8323,-1.7946,-1.7554,-1.7154,-1.7154,-1.7058,-1.6962,-1.6962,-1.6865,-1.6769,-1.6769,-1.6583,-1.6197,-1.6197,-1.5948,-1.5626,-1.5626,-1.5888,-1.6265,-1.6265,-1.629,-1.6488,-1.6488,-1.6528,-1.6581,-1.6581,-1.6627,-1.6679,-1.6679,-1.6679,-1.6679,-1.6679,-1.7209,-1.7725,-1.7725,-1.7725,-1.7725,-1.7725,-1.7725,-1.7725,-1.7725,-1.7877,-1.805,-1.8115,-1.8136,-1.8136,-1.8136,-1.8136,-1.8201,-1.8333,-1.7948,-1.761,-1.7975,-1.617,-1.4435,-1.3902,-1.2267,-1.1615,-1.2925,-1.3141,-1.4112,-1.6909,-1.5937,-1.4861,-1.3891,-1.2159,-1.0966,-1.0529,-1.0529,-1.0529,-1.0529,-1.0529,-1.0313,-0.9772,-0.9772,-0.9447,-0.9018,-0.9018,-0.9018,-0.9018,-0.9018,-0.9018,-1.8619,-1.8619,-1.8619,-1.8619,-1.8619,-1.8619,-1.8619,-1.9467,-2.0588,-2.1523,-2.1808,-2.2092,-2.304,-2.1541,-2.012,-2.012,-1.9275,-1.8523,-1.8331,-1.8235,-1.8139,-1.7835,-1.7835,-1.7835,-1.7835,-1.7835,-1.7835,-1.7835,-1.7835,-1.8131,-1.8619,-1.8427,-1.8139,-1.7835,-1.7835,-1.7739,-1.7458,-1.7458,-1.7354,-1.7154,-1.7154,-1.6962,-1.6673,-1.6673,-1.6583,-1.6294,-1.6294,-1.6383,-1.6639,-1.6639,-1.6722,-1.6762,-1.6762,-1.6951,-1.7089,-1.6787,-1.6984,-1.7209,-1.7012,-1.7107,-1.7262,-1.6858,-1.7158,-1.7562,-1.7562,-1.7562,-1.7562,-1.7562,-1.7562,-1.7562,-1.7562,-1.7977,-1.8202,-1.8001,-1.8218,-1.8437,-1.8437,-1.8437,-1.8482,-1.8644,-1.8467,-1.8265,-1.8369,-1.7353,-1.6542,-1.636,-1.5291,-1.4963,-1.6164,-1.6154,-1.671,-1.8525,-1.7793,-1.7131,-1.6809,-1.5727,-1.4855,-1.4634,-1.4634,-1.4634,-1.4634,-1.4317,-1.367,-1.2587,-1.2267,-1.1507,-1.0529,-1.0529,-1.0529,-1.0529,-1.0529,-1.0529,-1.9106,-1.9322,-1.9658,-1.9275,-1.9467,-1.9754,-1.9754,-1.9945,-2.0701,-2.2481,-2.2851,-2.3324,-2.4937,-2.3324,-2.1808,-2.1808,-2.0033,-1.8619,-1.8619,-1.8619,-1.8619,-1.8619,-1.8619,-1.8619,-1.8619,-1.8619,-1.8619,-1.8619,-1.8619,-1.8619,-1.8619,-1.8619,-1.8619,-1.8619,-1.8619,-1.8427,-1.8043,-1.8043,-1.7843,-1.7347,-1.7347,-1.7347,-1.725,-1.725,-1.7154,-1.7154,-1.7154,0.0,-1.7154,-1.7154,-1.7154,-1.7154,-1.7154,-1.7321,-1.756,-1.7074,-1.7336,-1.7865,-1.7461,-1.7569,-1.7871,-1.7523,-1.7347,-1.7347,-1.7347,-1.7347,-1.7347,-1.7347,-1.7347,-1.7347,-1.7347,-1.7941,-1.8348,-1.7954,-1.8368,-1.8872,-1.8872,-1.8872,-1.8887,-1.8941,-1.8551,-1.835,-1.8554,-1.8502,-1.8596,-1.8878,-1.8915,-1.8915,-1.8915,-1.878,-1.8717,-1.8717,-1.8958,-1.9127,-1.9021,-1.9021,-1.9043,-1.8987,-1.8994,-1.9016,-1.9074,-1.8653,-1.7466,-1.5512,-1.498,-1.3783,-1.1934,-1.1934,-1.1934,-1.1934,-1.1934,-1.1826,-2.1104,-2.2206,-2.3523,-2.1817,-2.2661,-2.3901,-2.3901,-2.5324,-2.666,-2.6941,-2.7034,-2.7034,-2.7315,-2.4278,-2.1808,-2.1808,-2.0033,-1.8619,-1.8619,-1.8619,-1.8619,-1.8619,-1.8619,-1.8619,-1.8619,-1.8619,-1.8619,-1.8619,-1.8619,-1.8619,-1.8619,-1.8619,-1.8619,-1.8619,-1.8619,-1.8619,-1.8523,-1.8523,-1.8523,-1.8419,-1.8419,-1.8227,-1.7754,-1.7754,-1.7554,-1.7154,-1.7154,-1.7154,-1.7154,-1.7154,-1.7154,-1.7154,-1.7154,-1.7176,-1.7219,-1.7123,-1.7152,-1.7188,-1.7188,-1.7188,-1.7367,-1.8162,-1.8419,-1.8419,-1.8419,-1.8419,-1.8419,-1.8419,-1.8419,-1.8419,-1.8419,-1.8555,-1.8586,-1.8586,-1.8625,-1.8664,-1.8664,-1.8664,-1.8742,-1.913,-1.9185,-1.9004,-1.8844,-1.8802,-1.8715,-1.8255,-1.816,-1.816,-1.816,-1.9036,-1.9617,-1.9617,-1.9656,-1.9483,-1.8972,-1.887,-1.8783,-1.8527,-1.8549,-1.8672,-1.9067,-1.8974,-1.876,-1.8538,-1.8431,-1.8217,-1.7888,-1.7888,-1.7888,-1.7888,-1.7466,-1.7251,-2.2824,-2.3375,-2.4084,-2.3155,-2.3802,-2.4645,-2.4645,-2.5407,-2.6356,-2.7595,-2.7793,-2.8166,-2.9282,-2.7116,-2.4749,-2.3607,-2.1722,-2.0033,-1.8804,-1.8619,-1.8619,-1.8619,-1.8619,-1.8619,-1.8619,-1.8619,-1.8619,-1.8619,-1.8619,-1.8619,-1.8619,-1.8619,-1.8619,-1.8619,-1.8619,-1.8619,-1.8619,-1.8619,-1.8619,-1.8619,-1.8619,-1.8523,-1.8331,-1.8331,-1.8227,-1.7931,0.0,-1.7931,-1.7931,-1.7931,-1.7931,-1.7931,-1.7931,-1.7931,-1.7939,-1.765,-1.7746,-1.7931,-1.765,-1.7746,-1.8035,-1.8523,-1.8619,-1.8619,-1.8619,-1.8619,-1.8619,-1.8619,-1.8619,-1.8619,-1.8619,-1.8619,-1.8619,-1.8619,-1.8619,-1.8619,-1.8619,-1.8619,-1.8755,-1.8905,-1.8936,-1.8949,-1.9096,-1.905,-1.912,-1.9017,-1.9047,-1.891,-1.8431,-1.9041,-1.945,-1.945,-1.9732,-1.975,-1.9445,-1.9445,-1.9304,-1.9245,-1.9253,-1.9321,-1.9473,-1.9169,-1.9043,-1.922,-1.8904,-1.8787,-1.9081,-1.9081,-1.9081,-1.9074,-1.8575,-1.8384,-2.4682,-2.4976,-2.5348,-2.479,-2.5336,-2.6096,-2.6218,-2.6252,-2.6626,-2.8247,-2.8539,-2.9003,-3.0405,-2.9096,-2.7315,-2.57,-2.3418,-2.1246,-1.9658,-1.8996,-1.8619,-1.8619,-1.8619,-1.8619,-1.8619,-1.8619,-1.8619,-1.8619,-1.8619,-1.8619,-1.8619,-1.8619,-1.8619,-1.8619,-1.8619,-1.8619,-1.8619,-1.8619,-1.8619,-1.8619,-1.8619,-1.8619,-1.8619,-1.8619,-1.8619,-1.8619,-1.8619,-1.8619,-1.8619,-1.8619,-1.8619,-1.8619,-1.8619,-1.8619,-1.8619,-1.8243,-1.8331,-1.8619,-1.8235,-1.8331,-1.8619,-1.8619,-1.8619,-1.8619,-1.8619,-1.8619,-1.8619,-1.8619,-1.8619,-1.8619,-1.8619,-1.8619,-1.8619,-1.8619,-1.8619,-1.8619,-1.8619,-1.8619,-1.8619,-1.8619,-1.8619,-1.8794,-1.9047,-1.9086,-1.9173,-1.9442,-1.9489,-1.93,-1.8779,-1.8929,-1.9086,-1.9086,-1.9331,-1.9489,-1.9489,-1.9489,-1.9529,-1.9716,-1.9716,-1.9756,-1.9851,-1.9344,-1.9256,-1.9501,-1.9094,-1.9006,-1.9257,-1.9257,-1.9257,-1.9257,-1.879,-1.8569,-2.6769,-2.7779,-2.9186,-2.7141,-2.8195,-2.9841,-3.0264,-3.0392,-3.0485,-3.0577,-3.059,-3.0577,-3.0669,-2.9096,-2.7781,-2.77,-2.4372,-2.1722,-2.1618,-1.9937,-1.8619,-1.8619,-1.8619,-1.8619,-1.8619,-1.8619,-1.8619,-1.8619,0.0,-1.8619,-1.8619,-1.8619,-1.8619,-1.8619,-1.8619,-1.8619,-1.8619,-1.8619,-1.8619,-1.8619,-1.8619,-1.8619,-1.8619,-1.8619,-1.8619,-1.8619,-1.8619,-1.8619,-1.8619,-1.8619,-1.8619,-1.8619,-1.8619,-1.8619,-1.8619,-1.8619,-1.8619,-1.8619,-1.8619,-1.8619,-1.8619,-1.8619,-1.8619,-1.8619,-1.8619,-1.8619,-1.8619,-1.8619,-1.8619,-1.8619,-1.8619,-1.8619,-1.8619,-1.8619,-1.8619,-1.8619,-1.8619,-1.8619,-1.8619,-1.8619,-1.8619,-1.8619,-1.8739,-1.8643,-1.8651,-1.8763,-1.8771,-1.8659,-1.8619,-1.8635,-1.8643,-1.8643,-1.8755,-1.8771,-1.8771,-1.8771,-1.8905,-1.9221,-1.9244,-1.9394,-1.9843,-1.975,-1.9757,-1.9781,-1.9781,-1.9789,-1.9805,-1.9805,-1.9805,-1.9805,-1.9179,-1.8867,-2.8805,-2.8958,-2.9119,-2.8024,-2.8576,-2.9541,-3.0099,-3.0229,-3.0333,-3.0605,-3.0682,-3.0682,-3.0682,-3.0115,-2.9282,-2.798,-2.5512,-2.3229,-2.1903,-1.9937,-1.8619,-1.8619,-1.8619,-1.8619,-1.8619,-1.8619,-1.8619,-1.8619,-1.8619,-1.8619,-1.8619,-1.8619,-1.8619,-1.8619,-1.8619,-1.8619,-1.8619,-1.8619,-1.8619,-1.8619,-1.8619,-1.8619,-1.8619,-1.8619,-1.8619,-1.8619,-1.8619,-1.8619,-1.8619,-1.8619,-1.8619,-1.8619,-1.8619,-1.8619,-1.8619,-1.8619,-1.8619,-1.8619,-1.8619,-1.8619,-1.8619,-1.8619,-1.8619,-1.8619,-1.8619,-1.8619,-1.8619,-1.8619,-1.8619,-1.8619,-1.8619,-1.8619,-1.8619,-1.8619,-1.8619,-1.8619,-1.8619,-1.8619,-1.8619,-1.8619,-1.8619,-1.8619,-1.8619,-1.8619,-1.8619,-1.8619,-1.8619,-1.8619,-1.8619,-1.8619,-1.8619,-1.8619,-1.8619,-1.8619,-1.8619,-1.8619,-1.8763,-1.8881,-1.8897,-1.8952,-1.9079,-1.9086,-1.9189,-1.9402,-1.9502,-1.9621,-1.9851,-1.9851,-1.9851,-1.9851,-1.9312,-1.9103,-3.0372,-2.993,-2.9515,-2.8944,-2.8801,-2.8944,-2.9515,-2.9645,-2.9749,-3.0125,-3.0203,-3.0268,-3.045,-3.0489,-3.0083,-2.8967,-2.7023,-2.5313,-2.3995,-2.1446,-1.9746,-1.9746,-1.9091,-1.8619,-1.8619,-1.8605,-1.8581,-1.8612,-1.8619,-1.8619,-1.8619,-1.8619,-1.8619,-1.8619,-1.8619,-1.8619,-1.8619,-1.8619,-1.8619,-1.8619,-1.8619,-1.8619,-1.8619,-1.8619,-1.8619,-1.8619,-1.8619,-1.8619,-1.8619,-1.8619,-1.8619,-1.8619,-1.8619,-1.8619,-1.8619,-1.8619,-1.8619,-1.8619,-1.8619,-1.8619,-1.8619,-1.8619,-1.8619,-1.8619,-1.8619,-1.8619,-1.8619,-1.8619,-1.8619,-1.8619,-1.8619,-1.8619,-1.8619,-1.8619,-1.8619,-1.8619,-1.8619,-1.8619,-1.8619,-1.8619,-1.8619,-1.8619,-1.8619,-1.8619,-1.8619,-1.8619,-1.8619,-1.8908,-1.9571,-1.9379,-1.9187,-1.9187,-1.8908,-1.8812,-1.9195,-1.89,-1.8619,-1.8619,-1.8619,-1.8619,-1.8619,-1.8619,-1.8818,-1.9047,-1.9047,-1.9165,-1.9402,-1.9402,-1.9402,-1.9394,-1.9158,-1.9047,-3.1164,-3.0723,-3.058,-3.0021,-2.9047,-2.8398,-2.9043,-2.9187,-2.92,-2.9174,-2.9174,-2.9343,-2.9801,-2.9904,-3.0086,-3.054,-2.9047,-2.7735,-2.7735,-2.4331,-2.178,-2.178,-1.9999,-1.878,-1.878,-1.8557,-1.8501,-1.8748,-1.8788,-1.8884,-1.8884,-1.89,-1.89,-1.89,-1.89,-1.89,-1.89,-1.8804,-1.8812,-1.8812,-1.8715,-1.8715,-1.8715,-1.8715,-1.8619,-1.8619,-1.8619,-1.8715,-1.8715,-1.8715,-1.8715,-1.8715,-1.8715,-1.8619,-1.8715,-1.8715,-1.8715,-1.8715,-1.8715,-1.8715,-1.8715,-1.8715,-1.8715,-1.8715,-1.8715,-1.8619,-1.8619,-1.8619,-1.8619,-1.8715,-1.8715,-1.8715,-1.8715,-1.8715,-1.8715,-1.8715,-1.8715,-1.8619,-1.8619,-1.8619,-1.8715,-1.8715,-1.8715,-1.8715,-1.8715,-1.8715,-1.8715,-1.9475,-2.1473,-2.0901,-2.0232,-2.0232,-1.9379,-1.9195,-2.0137,-1.9379,-1.8715,-1.8715,-1.8715,-1.8715,-1.8715,-1.8715,-1.8715,-1.8715,-1.8715,-1.8715,-1.8715,-1.8715,-1.8619,-1.8619,-1.8619,-1.8619,-3.0885,-3.0499,-3.0453,-2.9775,-2.978,-2.9915,-3.0076,-3.0527,-3.0729,-3.0097,-3.0003,-2.9983,-2.982,-2.9759,-2.9724,-2.9616,-2.7905,-2.6542,-2.6542,-2.4387,-2.2759,-2.2759,-2.105,-2.0411,-2.1779,-2.1845,-2.1826,-2.1851,-2.259,-2.3025,-2.3025,-2.3698,-2.4153,-2.4153,-2.4153,-2.4153,-2.4153,-2.304,-2.2481,-2.2481,-2.0606,-1.9762,-1.9762,-1.9004,-1.8619,-1.8619,-1.8619,-1.9091,-1.9762,-1.9004,-1.9091,-1.9667,-1.8996,-1.8619,-1.8812,-2.0336,-2.0901,-2.0901,-2.0901,-2.0901,-2.0814,-2.0049,-1.9762,-1.9667,-1.8908,-1.8619,-1.8619,-1.8619,-1.8619,-1.8812,-1.9571,-1.9762,-1.9762,-1.9762,-1.9762,-1.9571,-1.8812,-1.8619,-1.8619,-1.8619,-1.9283,-1.9762,-1.9762,-2.0423,-2.0901,-2.0901,-2.0901,-2.1092,-2.1663,-2.1473,-2.1387,-2.1387,-2.11,-2.1005,-2.1282,-2.1092,-2.0901,-2.0901,-2.0901,-2.0901,-2.0901,-2.0901,-2.0901,-2.0901,-2.0145,-1.9762,-1.9762,-1.8996,-1.8619,-1.8619,-1.8619,-1.8619,-3.4503,-3.422,-3.3519,-3.1944,-3.2114,-3.2138,-3.0174,-3.0454,-3.0823,-2.978,-2.9603,-2.96,-2.9614,-2.9668,-2.9662,-2.9629,-2.8525,-2.7538,-2.7538,-2.5681,-2.4355,-2.4355,-2.3383,-2.3224,-2.4388,-2.3885,-2.3521,-2.3613,-2.4226,-2.4545,-2.4545,-2.5078,-2.5594,-2.5804,-2.5815,-2.6007,-2.6207,-2.5375,-2.4906,-2.4822,-2.3418,-2.2766,-2.2766,-2.2092,-2.1817,-2.1817,-2.1817,-2.2197,-2.2671,-2.2102,-2.2197,-2.2576,-2.1351,-2.0883,-2.1074,-2.2955,-2.3617,-2.3523,-2.287,-2.269,-2.25,-2.1282,-2.0814,-2.071,-2.0145,-1.9954,-1.9954,-1.9954,-1.9954,-2.0145,-2.0719,-2.0814,-2.0814,-2.0814,-2.0814,-2.0719,-2.0145,-1.9954,-1.9954,-1.9954,-2.0432,-2.0814,-2.0814,-2.1378,-2.2044,-2.2909,-2.2848,-2.28,-2.3069,-2.2709,-2.2434,-2.2434,-2.2434,-2.2434,-2.2434,-2.2044,-2.1759,-2.1759,-2.1759,-2.1759,-2.1759,-2.1759,-2.1759,-2.1759,-2.1196,-2.0614,-2.0241,-1.9571,-1.9099,-1.8619,-1.8619,-1.8748,-3.9695,-3.9378,-3.7645,-3.5188,-3.5182,-3.4782,0.0,-3.0529,-3.1045,-2.9487,-2.9198,-2.9309,-2.954,-2.9635,-2.9701,-3.0064,-2.9829,-2.9583,-2.9583,-2.7713,-2.6371,-2.6371,-2.631,-2.6416,-2.6661,-2.5341,-2.4573,-2.4729,-2.4895,-2.5016,-2.5016,-2.5072,-2.5386,-2.6019,-2.6031,-2.6361,-2.6956,-2.6781,-2.6711,-2.6861,-2.6592,-2.6405,-2.6405,-2.6301,-2.6207,-2.6207,-2.6207,-2.6207,-2.6207,-2.6207,-2.6301,-2.6301,-2.4728,-2.4446,-2.4916,-2.6125,-2.6592,-2.6405,-2.501,-2.455,-2.4268,-2.288,-2.232,-2.2139,-2.2044,-2.1949,-2.1759,-2.1759,-2.1759,-2.1759,-2.1949,-2.1949,-2.1949,-2.1949,-2.1949,-2.1949,-2.1759,-2.1759,-2.1759,-2.1759,-2.1854,-2.1949,-2.1949,-2.2007,-2.2633,-2.4467,-2.431,-2.4194,-2.4696,-2.3894,-2.3329,-2.3329,-2.3329,-2.3423,-2.3517,-2.2848,-2.2396,-2.2254,-2.2263,-2.2187,-2.2139,-2.2149,-2.2149,-2.2149,-2.2044,-2.1482,-2.0528,-2.0432,-1.9928,-1.8939,-1.8844,-1.8954,0.0,0.0,0.0,0.0,0.0,0.0,0.0,-3.6588,-3.6605,-3.3183,-3.2965,-3.2719,-3.0557,-3.0166,-2.9874,-2.9062,-2.8829,-2.8842,-2.8842,-2.8403,-2.8059,-2.8059,-2.8121,-2.8109,-2.8134,-2.7819,-2.768,-2.7715,-2.8591,-2.9123,-2.9123,-2.9979,-3.0449,-3.0572,-3.0572,-3.0945,-3.1559,-3.0291,-2.9983,-3.0433,-2.8478,-2.7443,-2.7443,-2.6592,-2.6207,-2.6207,-2.6207,-2.6207,-2.6207,-2.6207,-2.6686,-2.735,-2.6218,-2.7525,-2.988,-2.9059,-2.8781,-2.8688,-2.8409,-2.8317,-2.8119,-2.6989,-2.5783,-2.4571,-2.3712,-2.269,-2.1759,-2.1759,-2.1759,-2.1958,-2.2814,-2.3004,-2.3004,-2.3004,-2.3004,-2.2814,-2.1949,-2.1759,-2.1759,-2.1759,-2.2424,-2.3004,-2.3004,-2.3378,-2.3662,-2.3745,-2.3698,-2.3677,-2.3772,-2.3602,-2.3501,-2.3501,-2.3501,-2.3862,-2.494,-2.5813,-2.5972,-2.5286,-2.5227,-2.495,-2.4319,-2.4235,-2.4235,-2.4235,-2.3468,-2.2899,-2.2719,-2.1863,-2.1121,-2.0535,-1.978,-1.9716,0.0,0.0,0.0,0.0,0.0,0.0,0.0,0.0,0.0,0.0,0.0,-3.4787,-3.2833,0.0,-3.1063,-2.9942,-2.9267,-2.8993,-2.8993,-2.8735,-2.8735,-2.9237,-2.9237,-2.9237,-2.9237,-2.9237,-2.9237,-2.9237,-2.9774,-3.0135,-3.0135,-3.0582,-3.1061,-3.1374,-3.1374,-3.1673,-3.2371,-3.1572,-3.1373,-3.1676,-3.0402,-3.0008,-3.0281,-2.9814,-2.9681,-2.9947,-2.9947,-2.9947,-2.9947,-2.9947,-3.0223,-3.0684,-2.9825,-3.0644,-3.2081,-3.1639,-3.1471,-3.1379,-3.0643,-3.0459,-3.0169,-2.8967,-2.8037,-2.728,-2.6813,-2.5606,-2.4393,-2.4393,-2.3836,-2.3468,-2.3951,-2.414,-2.4089,-2.3772,-2.3883,-2.383,-2.2821,-2.2807,-2.2905,-2.2679,-2.31,-2.3468,-2.3468,-2.3463,-2.3431,-2.3509,-2.332,-2.3423,-2.4366,-2.4487,-2.4642,-2.498,-2.5008,-2.5264,-2.5874,-2.6543,-2.6885,-2.6728,-2.6698,-2.6546,-2.6178,-2.619,-2.5826,-2.5209,-2.4661,-2.3825,-2.263,-2.2077,-2.142,-2.0667,-2.0548,-2.0504,0.0,0.0,0.0,0.0,0.0,0.0,0.0,0.0,0.0,0.0,0.0,0.0,0.0,0.0,0.0,-3.1421,-3.0226,-2.9494,-2.9494,-2.8964,-2.8936,-2.9804,-2.9914,-2.9914,-2.9914,-2.9914,-2.9914,-2.9914,-2.9914,-2.9914,-2.9914,-2.9914,-3.0141,-3.0651,-3.0679,-3.1047,-3.173,-3.1644,-3.1787,-3.1901,0.0,0.0,-3.2671,-3.2671,-3.2853,-3.3323,-3.3323,-3.3323,-3.3323,-3.3323,-3.3323,-3.3266,-3.2856,-3.2671,-3.2728,-3.3138,-3.3323,-3.3143,-3.1955,-3.1593,-3.1411,-3.0216,-2.9681,-2.9394,-2.9394,-2.8305,0.0,-2.7107,-2.6274,-2.5368,-2.5368,-2.5368,-2.5271,-2.48,-2.5097,-2.5152,-2.4462,-2.4344,-2.4244,-2.394,-2.3687,-2.3509,-2.3509,-2.3483,-2.3431,-2.3539,-2.3496,-2.3946,-2.5439,-2.5897,-2.6286,-2.6797,-2.6859,-2.6941,-2.7187,-2.6808,-2.7075,-2.8336,-2.7707,-2.7253,-2.7205,-2.7218,-2.6698,-2.5678,-2.5678,-2.4807,-2.3043,-2.2775,-2.22,-2.1291,-2.133,-2.1205,0.0,0.0,0.0,0.0,0.0,0.0,0.0,0.0,0.0,0.0,0.0,0.0,0.0,0.0,0.0,0.0,-3.0964,-2.9914,-2.9914,-2.9337,-2.9196,-2.9843,-2.9914,-2.9914,-2.9914,-2.9914,-2.9914,-2.9914,-2.9914,-2.9914,-2.9914,0.0,0.0,0.0,0.0,-3.0407,-3.1033,-3.1033,-3.1303,-3.1901,-3.1901,-3.1944,-3.2015,-3.2015,-3.2043,-3.2115,-3.2115,-3.2115,-3.2115,-3.2115,-3.2115,-3.2101,-3.2043,-3.2015,-3.2015,-3.2086,-3.2115,-3.2028,-3.1855,0.0,0.0,-3.1668,-3.0613,-2.9553,-2.9553,-2.8502,-2.737,-2.737,-2.7282,-2.7093,-2.7093,-2.7093,-2.7081,-2.7033,-2.7057,-2.7069,-2.7036,-2.6103,-2.5264,-2.5296,-2.431,-2.3509,-2.3509,-2.4728,-2.5199,-2.391,-2.4852,-2.5828,-2.6256,-2.7416,-2.8245,-2.8342,0.0,0.0,-2.9947,-2.8297,-2.8507,-3.1652,-2.8613,-2.6675,-2.6518,-2.6556,-2.6486,-2.632,-2.632,-2.6468,-2.6825,-2.5616,-2.4773,-2.4173,-2.2274,-2.1611,0.0,0.0,0.0,0.0,0.0,0.0,0.0,0.0,0.0,0.0,0.0,0.0,0.0,0.0,0.0,0.0,-3.1741,-3.1262,-3.2356,-3.0917,-2.9864,-3.0146,-2.943,-2.9056,-2.9332,-2.936,-2.9516,-2.9885,-2.9914,-2.9914,-2.9914,-2.9914,-2.9914,-2.9914,-2.9914,-3.0041,-3.0311,-3.0311,-3.0507,-3.0748,-3.0748,-3.0947,-3.1303,-3.1303,-3.1488,-3.1901,-3.1901,-3.1901,-3.1901,-3.1901,-3.1901,0.0,0.0,0.0,0.0,0.0,-3.3042,-3.337,-3.337,-3.337,-3.3285,-3.2701,-3.2087,-3.1471,-3.1027,-2.9876,-2.866,-2.866,-2.805,-2.7438,-2.7438,-2.7438,-2.7364,-2.7057,-2.7217,-2.7278,-2.6749,-2.6347,-2.605,-2.5838,-2.5766,0.0,-2.526,-2.582,-2.6048,-2.5428,-2.584,-2.6595,-2.7481,-2.8088,-2.8607,-2.9016,-2.9016,-2.9239,-2.9832,-2.8995,0.0,0.0,0.0,-2.8996,-2.9391,-2.934,0.0,0.0,0.0,0.0,0.0,0.0,0.0,0.0,-2.3731,-2.2845,0.0,0.0,0.0,0.0,0.0,0.0,0.0,0.0,0.0,0.0,0.0,0.0,0.0,0.0,0.0,0.0,-3.3608,-3.3155,-3.4778,-3.3085,-3.1801,-3.2275,-3.0701,-2.9899,-3.0468,-3.0378,-3.0391,-3.0884,-3.0914,-3.0914,-3.0914,-3.0914,-3.0989,-3.1247,-3.1262,-3.1208,-3.1161,-3.1176,-3.1015,-3.0627,-3.0627,-3.0874,-3.1324,-3.1324,-3.1571,-3.2062,-3.2062,-3.2062,-3.2062,-3.2062,-3.2062,-3.2143,-3.2746,-3.3312,-3.3669,-3.3278,-3.3504,-3.3852,-3.3852,-3.3852,-3.3769,-3.3099,-3.2932,-3.2764,-3.223,-3.1289,-3.033,-3.033,-2.965,-2.8784,-2.8784,-2.8784,-2.8693,-2.8357,-2.8496,-2.8646,-2.7914,-2.7715,-2.7583,-2.704,-2.7763,-2.8153,-2.7259,-2.7336,-2.7376,-2.6966,-2.7278,0.0,-2.8897,-2.9388,-2.9771,-3.0277,-3.0306,-3.0306,-3.0306,-2.9774,-2.9832,-3.0926,-3.0266,-3.0364,-3.1498,-3.1171,-3.0429,-2.9353,-2.8601,-2.7311,0.0,0.0,0.0,0.0,0.0,0.0,0.0,0.0,0.0,0.0,0.0,0.0,0.0,0.0,0.0,0.0,0.0,0.0,0.0,0.0,0.0,0.0,0.0,0.0,-3.6359,-3.5682,-3.5599,-3.7102,-3.4911,-3.3649,-3.4488,-3.3819,-3.3338,-3.3535,-3.3372,-3.3355,-3.3535,-3.3372,-3.3768,-3.4648,-3.4665,-3.4524,-3.4232,-3.4232,-3.3617,-3.2377,-3.2377,-3.2377,-3.2408,-3.2408,-3.2408,-3.2423,-3.2423,-3.2423,-3.2423,-3.2423,-3.2423,-3.2583,-3.387,-3.4343,-3.4202,-3.295,-3.2487,-3.2503,-3.2503,-3.2503,-3.2518,-3.2503,-3.2503,-3.2518,-3.2423,-3.2438,-3.2343,-3.2343,-3.2343,-3.2263,-3.2263,-3.2263,-3.2343,-3.2312,-3.2248,-3.2248,-3.2297,-3.1292,-3.0205,-2.9427,-3.0536,-3.0993,-2.9178,-2.9614,-2.9783,-2.8324,-2.9312,0.0,-3.0593,-3.1861,-3.2723,-3.2747,-3.2747,-3.2747,-3.2747,-3.0771,-3.0472,-3.2607,-3.0042,-2.9416,-3.1583,-3.0208,-2.9421,-2.9367,-3.0041,-2.9984,-2.9014,0.0,0.0,0.0,0.0,0.0,0.0,0.0,0.0,0.0,0.0,0.0,0.0,0.0,0.0,0.0,0.0,0.0,0.0,0.0,0.0,0.0,0.0,0.0,0.0,-3.7622,-3.5797,-3.7575,-3.507,-3.3662,-3.496,-3.4243,-3.3857,-3.437,-3.3796,-3.3506,-3.3613,-3.3523,-3.3625,-3.4045,-3.3954,-3.3887,-3.3877,-3.3877,-3.3652,-3.3111,-3.3111,-3.3433,-3.3988,-3.3988,-3.433,-3.495,-3.495,-3.495,-3.495,-3.495,-3.4939,-3.4931,-3.5377,-3.5599,-3.5451,-3.4168,-3.3702,-3.3644,-3.3,-3.2714,-3.2638,-3.2107,-3.2256,-3.2542,-3.1997,-3.2087,-3.2349,-3.1965,-3.1841,-3.1671,-3.1148,-3.104,-3.104,-3.104,-3.104,-3.104,-3.104,-3.0718,-3.0321,-3.0034,-3.0948,-3.1339,-2.994,-3.0182,-3.0306,-2.9551,-3.029,-3.0873,-3.0704,-3.147,-3.1983,-3.1843,-3.1983,-3.1983,-3.1843,-3.1152,-3.0914,-3.1405,-3.0481,-3.0474,-3.1745,-3.1334,-3.1213,-3.1634,-3.1442,-3.0279,-2.8143,0.0,0.0,0.0,0.0,0.0,0.0,0.0,0.0,0.0,0.0,0.0,0.0,0.0,0.0,0.0,0.0,0.0,0.0,0.0,0.0,0.0,0.0,0.0,0.0,0.0,0.0,-3.8826,-3.6624,0.0,-3.7048,-3.6427,-3.6317,-3.7248,-3.6319,-3.5702,-3.5781,-3.5411,-3.5288,-3.5376,-3.5288,-3.5201,-3.5131,-3.5149,-3.4933,-3.4428,-3.4428,-3.469,-3.5254,-3.5254,-3.5591,-3.6159,-3.6159,-3.6159,-3.6234,-3.7024,-3.7731,-3.8266,-3.7837,-3.8008,-3.8361,-3.6522,-3.585,-3.5651,-3.4492,-3.4041,-3.3895,-3.2943,-3.256,-3.2277,-3.1753,-3.1844,-3.2098,-3.173,-3.1778,-3.1873,-3.137,-3.1185,-3.1185,-3.1185,-3.1185,-3.1185,-3.1185,-3.1185,-3.1101,-3.0538,-3.101,-3.1161,-3.0273,-3.0372,-3.0404,-2.9928,-3.0356,-3.0646,-3.0274,-3.0575,-3.0939,-3.1252,-3.145,-3.145,-3.1335,-3.1713,-3.1573,-3.0679,-3.1101,-3.1442,-3.1636,-3.1669,-3.1582,-3.1479,-3.1093,-2.9839,0.0,0.0,0.0,0.0,0.0,0.0,0.0,0.0,0.0,0.0,0.0,0.0,0.0,0.0,0.0,0.0,0.0,0.0,0.0,0.0,0.0,0.0,0.0,0.0,0.0,0.0,0.0,-4.1064,-3.9789,0.0,0.0,0.0,0.0,-4.2001,-4.0776,-3.9907,-3.9891,-3.9141,-3.8654,-3.8547,-3.848,-3.8254,-3.7844,-3.7864,-3.732,-3.6223,-3.6223,-3.626,-3.6297,-3.6297,-3.6315,-3.6352,-3.6352,-3.6352,-3.6477,-3.8691,-4.0545,-4.1884,-4.0781,-4.1356,-4.2439,-3.9604,-3.8516,-3.8219,-3.6661,-3.6117,-3.5938,-3.4773,-3.3246,-3.1904,-3.1834,-3.1797,0.0,0.0,-3.237,-3.2866,-3.2793,-3.2793,-3.2793,-3.277,-3.2697,-3.2697,-3.2697,-3.2697,-3.2337,0.0,-3.0677,-3.0561,-3.0166,0.0,-3.0087,-2.9541,-2.9687,-2.9751,-2.9559,-2.9537,-3.0085,-3.1295,-3.1419,-3.1419,-3.1419,-3.2404,-3.2373,-3.0734,-3.1778,-3.2119,-3.1425,-3.134,-3.059,-2.9019,-2.9417,0.0,0.0,0.0,0.0,0.0,0.0,0.0,0.0,0.0,0.0,0.0,0.0,0.0,0.0,0.0,0.0,0.0,0.0,0.0,0.0,0.0,0.0,0.0,0.0,0.0,0.0,-4.3487,-4.3473,-4.3236,-4.3248,-4.3653,0.0,0.0,0.0,0.0,0.0,0.0,-4.2725,-4.1784,-4.0621,-3.9233,-3.8548,-3.7914,-3.7347,-3.7327,-3.7128,-3.6882,-3.6882,-3.7217,-3.7846,-3.7846,-3.82,-3.8789,-3.8789,-3.8789,-3.8761,-3.911,-3.9481,-3.9821,-3.956,-3.9685,-3.9957,-3.9235,-3.8433,-3.7618,-3.6657,-3.5882,-3.5076,-3.4059,-3.2909,-3.2066,-3.3086,0.0,0.0,0.0,0.0,-3.3452,-3.2377,-3.2127,-3.2016,-3.1401,-3.1272,-3.1272,-3.1272,-3.1272,-3.0999,0.0,-3.0007,-2.987,-2.9611,0.0,0.0,0.0,0.0,-3.1652,-3.2064,-3.2545,-3.2831,-3.2914,-3.3116,-3.3177,-3.2914,-3.3157,-3.3072,-3.246,-3.2745,-3.284,-3.2611,-3.1888,-3.088,-2.9709,0.0,0.0,0.0,0.0,0.0,0.0,0.0,0.0,0.0,0.0,0.0,0.0,0.0,0.0,0.0,0.0,0.0,0.0,0.0,0.0,0.0,0.0,0.0,0.0,0.0,0.0,0.0,-4.4344,-4.4027,-4.3144,-4.3726,-4.4573,0.0,0.0,0.0,0.0,0.0,0.0,0.0,0.0,0.0,-4.0606,-4.0068,-3.963,-3.9231,-3.8874,-3.8684,-3.8684,-3.8195,-3.8292,-3.8723,-3.8723,-3.899,-3.9398,-3.9398,-3.9415,-3.9416,-3.9186,-3.9978,-4.1475,0.0,0.0,0.0,0.0,-4.0011,-3.8817,-3.7279,-3.6446,-3.5773,-3.4382,0.0,0.0,0.0,0.0,0.0,0.0,0.0,-3.2687,0.0,0.0,-3.0694,-2.9924,-2.9874,-2.994,-2.994,-3.0232,-3.0372,0.0,-2.9981,-2.9916,-2.9579,0.0,0.0,0.0,0.0,-3.1642,-3.1903,-3.2531,-3.3118,-3.3367,-3.3617,-3.3695,-3.3424,-3.3905,-3.3859,-3.3029,-3.3425,-3.3425,-3.2652,-3.2048,-3.0908,0.0,0.0,0.0,0.0,0.0,0.0,0.0,0.0,0.0,0.0,0.0,0.0,0.0,0.0,0.0,0.0,0.0,0.0,0.0,0.0,0.0,0.0,0.0,0.0,0.0,0.0,0.0,0.0,0.0,-4.3066,-4.2391,0.0,0.0,0.0,0.0,0.0,0.0,0.0,0.0,0.0,0.0,0.0,0.0,0.0,-4.2147,-4.2224,-4.129,-4.0769,-4.0769,-3.9859,-3.9442,-3.9442,-3.9442,-3.9314,-3.9061,-3.9374,0.0,-3.9528,-3.964,0.0,0.0,0.0,0.0,0.0,0.0,0.0,0.0,0.0,0.0,0.0,0.0,0.0,0.0,0.0,0.0,0.0,0.0,0.0,0.0,0.0,0.0,-2.9734,-2.8929,-2.9033,-2.9232,0.0,-2.9455,-3.0002,-2.9997,-3.0124,0.0,0.0,0.0,0.0,0.0,0.0,0.0,-3.1058,-3.1773,-3.2676,-3.3707,-3.3761,-3.3761,-3.3761,-3.4737,-3.4765,-3.34,-3.4093,-3.3939,-3.2444,-3.223,0.0,0.0,0.0,0.0,0.0,0.0,0.0,0.0,0.0,0.0,0.0,0.0,0.0,0.0,0.0,0.0,0.0,0.0,0.0,0.0,0.0,0.0,0.0,0.0,0.0,0.0,0.0,0.0,0.0,0.0,0.0,0.0,0.0,0.0,0.0,0.0,0.0,0.0,0.0,0.0,0.0,0.0,0.0,0.0,0.0,0.0,0.0,0.0,0.0,0.0,-4.1568,-4.1469,-4.1469,-4.1469,-4.0592,-3.9173,-4.0984,-4.1769,-4.1848,-4.2708,0.0,0.0,0.0,0.0,0.0,0.0,0.0,0.0,0.0,0.0,0.0,0.0,0.0,0.0,0.0,0.0,0.0,0.0,0.0,0.0,0.0,0.0,-3.1708,0.0,-3.0457,-3.0557,-2.8868,0.0,0.0,0.0,0.0,0.0,0.0,0.0,0.0,0.0,0.0,0.0,-3.3809,-3.4745,-3.5455,-3.5636,-3.5688,-3.5688,-3.5688,-3.5845,-3.5884,-3.5597,-3.4961,-3.446,0.0,0.0,0.0,0.0,0.0,0.0,0.0,0.0,0.0,0.0,0.0,0.0,0.0,0.0,0.0,0.0,0.0,0.0,0.0,0.0,0.0,0.0,0.0,0.0,0.0,0.0,0.0,0.0,0.0,0.0,0.0,0.0,0.0,0.0,0.0,0.0,0.0,0.0,0.0,0.0,0.0,0.0,0.0,0.0,0.0,0.0,0.0,0.0,0.0,0.0,0.0,0.0,0.0,0.0,0.0,0.0,0.0,0.0,0.0,-4.2275,0.0,0.0,0.0,0.0,0.0,0.0,0.0,0.0,0.0,0.0,0.0,0.0,0.0,0.0,0.0,0.0,0.0,0.0,0.0,0.0,0.0,0.0,0.0,0.0,0.0,0.0,0.0,0.0,0.0,0.0,0.0,0.0,0.0,0.0,0.0,0.0,0.0,0.0,0.0,0.0,-3.3138,-3.3982,-3.4524,-3.4524,-3.4524,-3.4524,-3.4524,-3.5054,-3.5123,-3.4597,-3.4569,0.0,0.0,0.0,0.0,0.0,0.0,0.0,0.0,0.0,0.0,0.0,0.0,0.0,0.0,0.0,0.0,0.0,0.0,0.0,0.0,0.0,0.0,0.0,0.0,0.0,0.0,0.0,0.0,0.0,0.0,0.0,0.0,0.0,0.0,0.0,0.0,0.0,0.0,0.0,0.0,0.0,0.0,0.0,0.0,0.0,0.0,0.0,0.0,0.0,0.0,0.0,0.0,0.0,0.0,0.0,0.0,0.0,0.0,0.0,-4.2372,0.0,0.0,0.0,0.0,0.0,0.0,0.0,0.0,0.0,0.0,0.0,0.0,0.0,0.0,0.0,0.0,0.0,0.0,0.0,0.0,0.0,0.0,0.0,0.0,0.0,0.0,0.0,0.0,0.0,0.0,0.0,0.0,0.0,0.0,0.0,0.0,0.0,0.0,0.0,0.0,0.0,-3.1963,-3.2679,-3.3228,-3.3228,-3.3228,-3.3228,-3.3228,-3.3962,-3.4152,-3.3584,-3.4071,0.0,0.0,0.0,0.0,0.0,0.0,0.0,0.0,0.0,0.0,0.0,0.0,0.0,0.0,0.0,0.0,0.0,0.0,0.0,0.0,0.0,0.0,0.0,0.0,0.0,0.0,0.0,0.0,0.0,0.0,0.0,0.0,0.0,0.0,0.0,0.0,0.0,0.0,0.0,0.0,0.0,0.0,0.0,0.0,0.0,0.0,0.0,0.0,0.0,0.0,0.0,0.0,0.0,0.0,0.0,0.0,0.0,0.0,0.0,0.0,0.0,0.0,0.0,0.0,0.0,0.0,0.0,0.0,0.0,0.0,0.0,0.0,0.0,0.0,0.0,0.0,0.0,0.0,0.0,0.0,0.0,0.0,0.0,0.0,0.0,0.0,0.0,0.0,0.0,0.0,0.0,0.0,0.0,0.0,0.0,0.0,0.0,0.0,0.0,0.0,0.0,-3.2213,-3.3122,-3.3751,-3.3751,-3.3751,-3.3751,-3.3751,-3.3844,-3.4246,-3.5123,0.0,0.0,0.0,0.0,0.0,0.0,0.0,0.0,0.0,0.0,0.0,0.0,0.0,0.0,0.0,0.0,0.0,0.0,0.0,0.0,0.0,0.0,0.0,0.0,0.0,0.0,0.0,0.0,0.0,0.0,0.0,0.0,0.0,0.0,0.0,0.0,0.0,0.0,0.0,0.0,0.0,0.0,0.0,0.0,0.0,0.0,0.0,0.0,0.0,0.0,0.0,0.0,0.0,0.0,0.0,0.0,0.0,0.0,0.0,0.0,0.0,0.0,0.0,0.0,0.0,0.0,0.0,0.0,0.0,0.0,0.0,0.0,0.0,0.0,0.0,0.0,0.0,0.0,0.0,0.0,0.0,0.0,0.0,0.0,0.0,0.0,0.0,0.0,0.0,0.0,0.0,0.0,0.0,0.0,0.0,0.0,0.0,0.0,0.0,0.0,0.0,0.0,-3.2064,-3.264,-3.3036,-3.3036,-3.3595,-3.3956,-3.3956,-3.4535,-3.4765,-3.4592,0.0,0.0,0.0,0.0,0.0,0.0,0.0,0.0,0.0,0.0,0.0,0.0,0.0,0.0,0.0,0.0,0.0,0.0,0.0,0.0,0.0,0.0,0.0,0.0,0.0,0.0,0.0,0.0,0.0,0.0,0.0,0.0,0.0,0.0,0.0,0.0,0.0,0.0,0.0,0.0,0.0,0.0,0.0,0.0,0.0,0.0,0.0,0.0,0.0,0.0,0.0,0.0,0.0,0.0,0.0,0.0,0.0,0.0,0.0,0.0,0.0,0.0,0.0,0.0,0.0,0.0,0.0,0.0,0.0,0.0,0.0,0.0,0.0,0.0,0.0,0.0,0.0,0.0,0.0,0.0,0.0,0.0,0.0,0.0,0.0,0.0,0.0,0.0,0.0,0.0,0.0,0.0,0.0,0.0,0.0,0.0,0.0,0.0,0.0,0.0,0.0,0.0,-3.2564,-3.2729,-3.2852,-3.2909,-3.3572,-3.4024,-3.4024,-3.4681,-3.4933,-3.4497,0.0,0.0,0.0,0.0,0.0,0.0,0.0,0.0,0.0,0.0,0.0,0.0,0.0,0.0,0.0,0.0,0.0,0.0,0.0,0.0,0.0,0.0,0.0,0.0,0.0,0.0,0.0,0.0,0.0,0.0,0.0,0.0,0.0,0.0,0.0,0.0,0.0,0.0,0.0,0.0,0.0,0.0,0.0,0.0,0.0,0.0,0.0,0.0,0.0,0.0,0.0,0.0,0.0,0.0,0.0,0.0,0.0,0.0,0.0,0.0,0.0,0.0,0.0,0.0,0.0,0.0,0.0,0.0,0.0,0.0,0.0,0.0,0.0,0.0,0.0,0.0,0.0,0.0,0.0,0.0,0.0,0.0,0.0,0.0,0.0,0.0,0.0,0.0,0.0,0.0,0.0,0.0,0.0,0.0,0.0,0.0,0.0,0.0,0.0,0.0,0.0,0.0,-3.3945,-3.3772,-3.3732,-3.3985,-3.4024,-3.4024,-3.4024,-3.405,-3.4445,0.0,0.0,0.0,0.0,0.0,0.0,0.0,0.0,0.0,0.0,0.0,0.0,0.0,0.0,0.0,0.0,0.0,0.0,0.0,0.0,0.0,0.0,0.0,0.0,0.0,0.0,0.0,0.0,0.0,0.0,0.0,0.0,0.0,0.0,0.0,0.0,0.0,0.0,0.0,0.0,0.0,0.0,0.0,0.0,0.0,0.0,0.0,0.0,0.0,0.0,0.0,0.0,0.0,0.0,0.0,0.0,0.0,0.0,0.0,0.0,0.0,0.0,0.0,0.0,0.0,0.0,0.0,0.0,0.0,0.0,0.0,0.0,0.0,0.0,0.0,0.0,0.0,0.0,0.0,0.0,0.0,0.0,0.0,0.0,0.0,0.0,0.0,0.0,0.0,0.0,0.0,0.0,0.0,0.0,0.0,0.0,0.0,0.0,0.0,0.0,0.0,0.0,0.0,-3.4731,-3.4874,-3.4978,0.0,-3.5707,-3.6149,-3.6149,-3.6149,-3.6299,-3.6624,0.0,0.0,0.0,0.0,0.0,0.0,0.0,0.0,0.0,0.0,0.0,0.0,0.0,0.0,0.0,0.0,0.0,0.0,0.0,0.0,0.0,0.0,0.0,0.0,0.0,0.0,0.0,0.0,0.0,0.0,0.0,0.0,0.0,0.0,0.0,0.0,0.0,0.0,0.0,0.0,0.0,0.0,0.0,0.0,0.0,0.0,0.0,0.0,0.0,0.0,0.0,0.0,0.0,0.0,0.0,0.0,0.0,0.0,0.0,0.0,0.0,0.0,0.0,0.0,0.0,0.0,0.0,0.0,0.0,0.0,0.0,0.0,0.0,0.0,0.0,0.0,0.0,0.0,0.0,0.0,0.0,0.0,0.0,0.0,0.0,0.0,0.0,0.0,0.0,0.0,0.0,0.0,0.0,0.0,0.0,0.0,0.0,0.0,0.0,0.0,0.0,0.0,0.0,-3.5999,-3.6102,0.0,-3.6735,-3.713,-3.713,-3.713,-3.7166,-3.7239,0.0,0.0,0.0,0.0,0.0,0.0,0.0,0.0,0.0,0.0,0.0,0.0,0.0,0.0,0.0,0.0,0.0,0.0,0.0,0.0,0.0,0.0,0.0,0.0,0.0,0.0,0.0,0.0,0.0,0.0,0.0,0.0,0.0,0.0,0.0,0.0,0.0,0.0,0.0,0.0,0.0,0.0,0.0,0.0,0.0,0.0,0.0,0.0,0.0,0.0,0.0,0.0,0.0,0.0,0.0,0.0,0.0,0.0,0.0,0.0,0.0,0.0,0.0,0.0,0.0,0.0,0.0,0.0,0.0,0.0,0.0,0.0,0.0,0.0,0.0,0.0,0.0,0.0,0.0,0.0,0.0,0.0,0.0,0.0,0.0,0.0,0.0,0.0,0.0,0.0,0.0,0.0,0.0,0.0,0.0,0.0,0.0,0.0,0.0,0.0,0.0,0.0,0.0,-3.704,-3.7003,-3.7093,-3.7166,-3.7202,-3.713,-3.7166,-3.7311,-3.7593,-3.7275,0.0,0.0,0.0,0.0,0.0,0.0,0.0,0.0,0.0,0.0,0.0,0.0,0.0,0.0,0.0,0.0,0.0,0.0,0.0,0.0,0.0,0.0,0.0,0.0,0.0,0.0,0.0,0.0,0.0,0.0,0.0,0.0,0.0,0.0,0.0,0.0,0.0,0.0,0.0,0.0,0.0,0.0,0.0,0.0,0.0,0.0,0.0,0.0,0.0,0.0,0.0,0.0,0.0,0.0,0.0,0.0,0.0,0.0,0.0,0.0,0.0,0.0,0.0,0.0,0.0,0.0,0.0,0.0,0.0,0.0,0.0,0.0,0.0,0.0,0.0,0.0,0.0,0.0,0.0,0.0,0.0,0.0,0.0,0.0,0.0,0.0,0.0,0.0,0.0,0.0,0.0,0.0,0.0,0.0,0.0,0.0,0.0,0.0,0.0,0.0,0.0,0.0,-3.7121,-3.7085,-3.713,-3.7672,-3.775,-3.7166,-3.7672,-3.8069,-3.825,-3.7535,0.0,0.0,0.0,0.0,0.0,0.0,0.0,0.0,0.0,0.0,0.0,0.0,0.0,0.0,0.0,0.0,0.0,0.0,0.0,0.0,0.0,0.0,0.0,0.0,0.0,0.0,0.0,0.0,0.0,0.0,0.0,0.0,0.0,0.0,0.0,0.0,0.0,0.0,0.0,0.0,0.0,0.0,0.0,0.0,0.0,0.0,0.0,0.0,0.0,0.0,0.0,0.0,0.0,0.0,0.0,0.0,0.0,0.0,0.0,0.0,0.0,0.0,0.0,0.0,0.0,0.0,0.0,0.0,0.0,0.0,0.0,0.0,0.0,0.0,0.0,0.0,0.0,0.0,0.0,0.0,0.0,0.0,0.0,0.0,0.0,0.0,0.0,0.0,0.0,0.0,0.0,0.0,0.0,0.0,0.0,0.0,0.0,0.0,0.0,0.0,0.0,0.0,-3.713,-3.7275,-3.7636,-3.8104,-3.821,-3.7707,-3.8104,-3.8459,-3.8573,-3.8116,0.0,0.0,0.0,0.0,0.0,0.0,0.0,0.0,0.0,0.0,0.0,0.0,0.0,0.0,0.0,0.0,0.0,0.0,0.0,0.0,0.0,0.0,0.0,0.0,0.0,0.0,0.0,0.0,0.0,0.0,0.0,0.0,0.0,0.0,0.0,0.0,0.0,0.0,0.0,0.0,0.0,0.0,0.0,0.0,0.0,0.0,0.0,0.0,0.0,0.0,0.0,0.0,0.0,0.0,0.0,0.0,0.0,0.0,0.0,0.0,0.0,0.0,0.0,0.0,0.0,0.0,0.0,0.0,0.0,0.0,0.0,0.0,0.0,0.0,0.0,0.0,0.0,0.0,0.0,0.0,0.0,0.0,0.0,0.0,0.0,0.0,0.0,0.0,0.0,0.0,0.0,0.0,0.0,0.0,0.0,0.0,0.0,0.0,0.0,0.0,0.0,0.0,0.0,-3.7384,-3.8063,-3.8425,-3.8568,-3.8384,-3.8563,-3.8745,-3.8885,0.0,0.0,0.0,0.0,0.0,0.0,0.0,0.0,0.0,0.0,0.0,0.0,0.0,0.0,0.0,0.0,0.0,0.0,0.0,0.0,0.0,0.0,0.0,0.0,0.0,0.0,0.0,0.0,0.0,0.0,0.0,0.0,0.0,0.0,0.0,0.0,0.0,0.0,0.0,0.0,0.0,0.0,0.0,0.0,0.0,0.0,0.0,0.0,0.0,0.0,0.0,0.0,0.0,0.0,0.0,0.0,0.0,0.0,0.0,0.0,0.0,0.0,0.0,0.0,0.0,0.0,0.0,0.0,0.0,0.0,0.0,0.0,0.0,0.0,0.0,0.0,0.0,0.0,0.0,0.0,0.0,0.0,0.0,0.0,0.0,0.0,0.0,0.0,0.0,0.0,0.0,0.0,0.0,0.0,0.0,0.0,0.0,0.0,0.0,0.0,0.0,0.0,0.0,0.0,-3.7166,-3.7311,-3.8504,-3.9121,-3.8647,-3.9252,-3.9713,-3.9811,0.0,0.0,0.0,0.0,0.0,0.0,0.0,0.0,0.0,0.0,0.0,0.0,0.0,0.0]}],[{"header":{"parameterUnit":"kt","parameterCategory":2,"dx":1,"dy":1,"la1":29.285339999999998,"la2":30.599998999999997,"lo1":-89.70041500000002,"lo2":-87.6738589999976,"nx":112,"ny":82,"refTime":"2022-10-13T12:00:00:Z","depth":0,"parameterNumber":2,"parameterNumberName":"V-component_of_WINDS"},"data":[9.9133,9.9952,0.0,9.6239,9.6127,0.0,9.1341,0.0,8.8724,8.8724,8.7004,8.6219,8.8612,8.7901,8.7378,8.8537,8.8808,8.8525,0.0,8.7061,0.0,0.0,0.0,0.0,0.0,0.0,0.0,0.0,0.0,0.0,0.0,0.0,11.6061,11.8225,11.9364,11.9933,11.9933,11.9933,11.9933,11.9933,11.9933,11.9933,11.9933,11.9933,11.9933,11.9933,11.9933,11.9933,11.9933,11.9933,11.9933,11.9933,11.9933,11.9933,11.9933,11.9933,11.9933,11.9933,11.9933,11.9933,11.9933,11.9933,11.9933,11.9933,11.9933,11.9933,11.9933,11.9933,11.9933,11.9933,11.9933,11.9933,11.9933,11.9933,11.9933,11.9933,11.9933,11.9933,11.9933,11.9933,11.9933,11.9933,11.9933,11.9933,11.9933,11.9933,11.9933,11.9933,11.9933,11.9933,11.9933,11.9933,11.9933,11.9933,11.9933,11.9933,11.9933,11.9933,11.9933,11.9933,11.9933,11.9933,11.9933,11.9933,11.9933,11.9933,11.9933,11.9933,11.9933,11.9933,11.9933,11.9933,0.0,0.0,9.6669,9.2836,0.0,0.0,0.0,8.7768,8.6817,8.6219,8.5284,8.4419,8.3929,8.4671,8.5594,8.6273,8.7439,8.8076,0.0,0.0,0.0,0.0,0.0,0.0,0.0,0.0,0.0,0.0,0.0,0.0,0.0,11.4163,11.5529,11.6592,11.8756,11.9668,11.9098,11.963,11.9933,11.9933,11.9933,11.9933,11.9933,11.9933,11.9933,11.9933,11.9933,11.9933,11.9933,11.9933,11.9933,11.9933,11.9933,11.9933,11.9933,11.9933,11.9933,11.9933,11.9933,11.9933,11.9933,11.9933,11.9933,11.9933,11.9933,11.9933,11.9933,11.9933,11.9933,11.9933,11.9933,11.9933,11.9933,11.9933,11.9933,11.9933,11.9933,11.9933,11.9933,11.9933,11.9933,11.9933,11.9933,11.9933,11.9933,11.9933,11.9933,11.9933,11.9933,11.9933,11.9933,11.9933,11.9933,11.9933,11.9933,11.9933,11.9933,11.9933,11.9933,11.9933,11.9933,11.9933,11.9933,11.9933,11.9933,11.9933,11.9933,11.9933,11.9933,11.9933,11.9933,11.9933,9.1864,9.1024,9.0705,8.904,8.8666,8.8703,8.8666,8.8554,8.803,8.6422,8.5973,8.5471,8.415,8.3953,8.4612,8.6494,8.6984,0.0,0.0,0.0,0.0,0.0,0.0,0.0,0.0,0.0,0.0,0.0,0.0,0.0,11.2037,11.4049,11.4998,11.4998,11.8111,11.8984,11.7352,11.8984,11.9857,11.9857,11.9933,11.9933,11.9933,11.9933,11.9933,11.9933,11.9933,11.9933,11.9933,11.9933,11.9933,11.9933,11.9933,11.9933,11.9933,11.9933,11.9933,11.9933,11.9933,11.9933,11.9933,11.9933,11.9933,11.9933,11.9933,11.9933,11.9933,11.9933,11.9933,11.9933,11.9933,11.9933,11.9933,11.9933,11.9933,11.9933,11.9933,11.9933,11.9933,11.9933,11.9933,11.9933,11.9933,11.9933,11.9933,11.9933,11.9933,11.9933,11.9933,11.9933,11.9933,11.9933,11.9933,11.9933,11.9933,11.9933,11.9933,11.9933,11.9933,11.9933,11.9933,11.9933,11.9933,11.9933,11.9933,11.9933,11.9933,11.9933,11.9933,11.9933,11.9933,11.9933,8.8088,8.8387,8.921,8.8778,8.9584,9.0144,8.8928,8.6834,8.5365,8.6207,8.3546,0.0,0.0,0.0,8.4426,8.4974,0.0,9.1831,0.0,0.0,0.0,0.0,0.0,0.0,0.0,0.0,0.0,0.0,0.0,0.0,11.0442,11.2302,11.3251,11.3251,11.5302,11.6175,11.5719,11.7314,11.8111,11.8111,11.9364,11.9933,11.9933,11.9933,11.9933,11.9933,11.9933,11.9933,11.9933,11.9933,11.9933,11.9933,11.9933,11.9933,11.9933,11.9933,11.9933,11.9933,11.9933,11.9933,11.9933,11.9933,11.9933,11.9933,11.9933,11.9933,11.9933,11.9933,11.9933,11.9933,11.9933,11.9933,11.9933,11.9933,11.9933,11.9933,11.9933,11.9933,11.9933,11.9933,11.9933,11.9933,11.9933,11.9933,11.9933,11.9933,11.9933,11.9933,11.9933,11.9933,11.9933,11.9933,11.9933,11.9933,11.9933,11.9933,11.9933,11.9933,11.9933,11.9933,11.9933,11.9933,11.9933,11.9933,11.9933,11.9933,11.9933,11.9933,11.9933,11.9933,11.9933,11.9933,8.6929,8.7357,8.8629,8.8629,8.9359,8.988,8.8996,8.7333,8.6099,8.6571,0.0,0.0,0.0,0.0,0.0,0.0,9.0243,0.0,0.0,0.0,0.0,0.0,0.0,0.0,0.0,0.0,0.0,0.0,0.0,10.6456,10.9835,11.1619,11.2187,11.1418,11.3696,11.4561,11.3775,11.5434,11.6277,11.6277,11.7351,11.8225,11.887,11.887,11.925,11.9933,11.9933,11.9933,11.9933,11.9933,11.9933,11.9933,11.9933,11.9933,11.9933,11.9933,11.9933,11.9933,11.9933,11.9933,11.9933,11.9933,11.9933,11.9933,11.9933,11.9933,11.9933,11.9933,11.9933,11.9933,11.9933,11.9933,11.9933,11.9933,11.9933,11.9933,11.9933,11.9933,11.9933,11.9933,11.9933,11.9933,11.9933,11.9933,11.9933,11.9933,11.9933,11.9933,11.9933,11.9933,11.9933,11.9933,11.9933,11.9933,11.9933,11.9933,11.9933,11.9933,11.9933,11.9933,11.9933,11.9933,11.9933,11.9933,11.9933,11.9933,11.9933,11.9933,11.9933,11.9933,11.9933,11.9933,8.7153,8.7041,8.8404,8.8591,8.8662,8.8777,8.9226,0.0,8.8827,8.7958,0.0,0.0,0.0,0.0,0.0,0.0,0.0,0.0,0.0,0.0,0.0,0.0,0.0,0.0,0.0,0.0,10.6797,10.9797,10.7253,10.6835,10.9873,11.1429,11.1498,10.9877,11.2613,11.3366,11.1658,11.3462,11.4383,11.4388,11.4834,11.5757,11.7085,11.7314,11.8225,11.9668,11.9857,11.9933,11.9933,11.9933,11.9933,11.9933,11.9933,11.9933,11.9933,11.9933,11.9933,11.9933,11.9933,11.9933,11.9933,11.9933,11.9933,11.9933,11.9933,11.9933,11.9933,11.9933,11.9933,11.9933,11.9933,11.9933,11.9933,11.9933,11.9933,11.9933,11.9933,11.9933,11.9933,11.9933,11.9933,11.9933,11.9933,11.9933,11.9933,11.9933,11.9933,11.9933,11.9933,11.9933,11.9933,11.9933,11.9933,11.9933,11.9933,11.9933,11.9933,11.9933,11.9933,11.9933,11.9933,11.9933,11.9933,11.9933,11.9933,11.9933,11.9933,11.9933,11.9933,11.9933,11.9933,11.9933,8.5209,8.5396,8.6929,8.8292,8.8811,8.9318,0.0,0.0,0.0,0.0,0.0,0.0,0.0,0.0,0.0,0.0,0.0,0.0,0.0,0.0,0.0,0.0,0.0,0.0,0.0,10.9037,10.9303,10.9948,10.9417,10.9341,10.9986,11.0328,11.0243,10.9702,11.0362,11.0466,10.9789,11.1569,11.2472,11.251,11.4042,11.4917,11.5262,11.674,11.758,11.7959,11.9326,11.9933,11.9933,11.9933,11.9933,11.9933,11.9933,11.9933,11.9933,11.9933,11.9933,11.9933,11.9933,11.9933,11.9933,11.9933,11.9933,11.9933,11.9933,11.9933,11.9933,11.9933,11.9933,11.9933,11.9933,11.9933,11.9933,11.9933,11.9933,11.9933,11.9933,11.9933,11.9933,11.9933,11.9933,11.9933,11.9933,11.9933,11.9933,11.9933,11.9933,11.9933,11.9933,11.9933,11.9933,11.9933,11.9933,11.9933,11.9933,11.9933,11.9933,11.9933,11.9933,11.9933,11.9933,11.9933,11.9933,11.9933,11.9933,11.9933,11.9933,11.9933,11.9933,11.9933,11.9933,11.9933,8.3377,8.3742,8.5465,8.713,8.7778,0.0,0.0,9.0019,9.0294,9.3038,9.3594,9.4177,9.5972,0.0,0.0,0.0,0.0,0.0,0.0,0.0,0.0,0.0,0.0,0.0,0.0,11.0024,11.0024,11.0023,11.0021,10.9975,10.9835,10.9835,10.9654,10.9278,10.9288,10.9223,10.896,10.9937,11.041,11.0519,11.1486,11.2445,11.3374,11.4348,11.5246,11.6159,11.792,11.8681,11.8719,11.9592,11.8946,11.758,11.8377,11.8681,11.8756,11.963,11.9933,11.9933,11.9933,11.9933,11.9933,11.9933,11.9933,11.9933,11.9933,11.9933,11.9933,11.9933,11.9933,11.9933,11.9933,11.9933,11.9933,11.9933,11.9933,11.9933,11.9933,11.9933,11.9933,11.9933,11.9933,11.9933,11.9933,11.9933,11.9933,11.9933,11.9933,11.9933,11.9933,11.9933,11.9933,11.9933,11.9933,11.9933,11.9933,11.9933,11.9933,11.9933,11.9933,11.9933,11.9933,11.9933,11.9933,11.9933,11.9933,11.9933,11.9933,11.9933,11.9933,11.9933,11.9933,11.9933,8.2588,8.332,8.5382,8.7085,8.7486,0.0,9.0527,9.0887,9.1306,0.0,9.5597,9.742,0.0,0.0,0.0,0.0,0.0,0.0,0.0,0.0,0.0,0.0,0.0,0.0,11.0024,11.0024,11.0023,11.0019,11.0012,10.9904,10.9646,10.964,10.9372,10.8813,10.885,10.8772,10.8632,10.8766,10.8881,10.8978,10.9128,10.9997,11.1416,11.1921,11.2856,11.4264,11.6074,11.6853,11.697,11.8336,11.7387,11.5147,11.6362,11.6895,11.7124,11.8491,11.8984,11.8984,11.8984,11.8984,11.9022,11.9364,11.944,11.9516,11.982,11.9933,11.9933,11.9933,11.9933,11.9933,11.9933,11.9933,11.9933,11.9933,11.9933,11.9933,11.9933,11.9933,11.9933,11.9933,11.9933,11.9933,11.9933,11.9933,11.9933,11.9933,11.9933,11.9933,11.9933,11.9933,11.9933,11.9933,11.9933,11.9933,11.9933,11.9933,11.9933,11.9933,11.9933,11.9933,11.9933,11.963,11.944,11.944,11.9136,11.9136,11.944,11.9136,11.9136,11.944,11.9136,11.9174,8.414,8.5996,8.8902,9.0707,9.0221,0.0,9.5283,9.5383,9.5331,0.0,10.1634,10.3912,10.4102,0.0,0.0,0.0,0.0,0.0,0.0,0.0,0.0,0.0,0.0,0.0,11.0021,11.0021,11.0019,11.001,11.0008,10.9904,10.9646,10.964,10.9354,10.87,10.8783,10.874,10.848,10.8632,10.8688,10.8706,10.8964,10.9182,10.9434,11.1171,11.207,11.2343,11.4071,11.4865,11.4982,11.5176,11.5058,11.4755,11.4906,11.5132,11.534,11.5529,11.5605,11.5605,11.5605,11.5605,11.5871,11.7238,11.7693,11.7959,11.9478,11.9933,11.9933,11.9933,11.9933,11.9933,11.9933,11.9933,11.9933,11.9933,11.9933,11.9933,11.9933,11.9933,11.9933,11.9933,11.9933,11.9933,11.9933,11.9933,11.9933,11.9933,11.9933,11.9933,11.9933,11.9933,11.9933,11.9933,11.9933,11.9933,11.9933,11.9933,11.9933,11.9933,11.9933,11.9933,11.9933,11.8491,11.7693,11.7693,11.6327,11.6289,11.7693,11.6289,11.6327,11.7655,11.6251,11.6365,8.281,8.4521,8.6936,8.8706,0.0,0.0,9.3761,9.4797,9.5711,0.0,10.1178,10.3798,10.4785,0.0,0.0,0.0,0.0,0.0,0.0,0.0,0.0,0.0,0.0,0.0,0.0,11.0022,11.0018,11.0008,11.0039,10.998,10.9849,10.95,10.9105,10.8681,10.8571,10.8464,10.836,10.8401,10.8478,10.8556,10.8648,10.8787,10.8976,10.9862,11.0308,11.0465,11.2268,11.3033,11.3014,11.2028,11.1724,11.1973,11.304,11.3513,11.3707,11.4694,11.5074,11.5074,11.5074,11.5074,11.5188,11.5833,11.6061,11.6175,11.6896,11.7086,11.7086,11.7086,11.7086,11.7086,11.7086,11.7086,11.7086,11.7086,11.7086,11.7352,11.8263,11.8453,11.8187,11.7276,11.7086,11.7086,11.7086,11.7086,11.7086,11.7086,11.7086,11.7086,11.7086,11.7086,11.7086,11.7086,11.7086,11.7086,11.7086,11.7086,11.7086,11.7086,11.7086,11.7086,11.7086,11.6403,11.6061,11.6061,11.5415,11.5415,11.6061,11.439,11.4466,11.6023,11.5378,11.5415,8.239,0.0,0.0,0.0,0.0,0.0,9.4003,9.518,9.6205,9.7875,10.0495,10.2811,10.4026,0.0,0.0,0.0,0.0,0.0,0.0,0.0,0.0,0.0,0.0,0.0,0.0,0.0,0.0,0.0,11.0025,11.0011,11.0033,10.9411,10.8908,10.8553,10.8366,10.8278,10.8278,10.8278,10.8319,10.8401,10.8441,10.8556,10.8744,10.8885,10.9001,10.9186,11.0515,11.1097,11.1021,10.9826,10.9478,10.9849,11.1258,11.1807,11.1999,11.3213,11.3669,11.3669,11.3669,11.3669,11.3745,11.4239,11.439,11.4466,11.4922,11.5074,11.5074,11.5074,11.5074,11.5074,11.5074,11.5074,11.5074,11.5074,11.5074,11.5378,11.6517,11.6403,11.5871,11.5226,11.5074,11.5074,11.5074,11.5074,11.5074,11.5074,11.5074,11.5074,11.5074,11.5074,11.5074,11.5074,11.5074,11.5074,11.5074,11.5074,11.5074,11.5074,11.5074,11.5074,11.5074,11.4618,11.439,11.439,11.3897,11.3897,11.439,11.2682,11.2454,11.3707,11.4163,11.439,0.0,0.0,0.0,9.3963,9.3623,9.3737,9.8597,9.8559,9.7951,9.9508,10.1216,10.2469,10.2507,10.395,0.0,0.0,0.0,0.0,0.0,0.0,0.0,0.0,0.0,0.0,0.0,0.0,0.0,0.0,11.0033,11.0033,11.0033,10.9411,10.8821,10.8303,10.8261,10.8278,10.8278,10.8278,10.8278,10.8261,10.8401,10.846,10.8498,10.8632,10.8689,10.8689,10.8873,10.8964,10.8944,10.9016,10.9189,10.9486,10.9768,10.9963,11.01,11.0176,11.0176,11.0176,11.0176,11.0176,11.0442,11.2075,11.2644,11.2948,11.458,11.5074,11.5074,11.5074,11.5074,11.5074,11.5074,11.5074,11.5074,11.5074,11.5074,11.5112,11.515,11.3859,11.3176,11.477,11.5074,11.5074,11.5074,11.5074,11.5074,11.5074,11.5074,11.5074,11.5074,11.5074,11.5074,11.5074,11.5074,11.5074,11.5074,11.5074,11.5074,11.5074,11.5074,11.5074,11.5074,11.3517,11.2644,11.2644,11.1011,11.0974,11.2644,11.0898,11.01,11.0214,11.1847,11.2644,8.5727,8.8784,9.2176,9.4458,9.5484,9.6319,9.7989,9.8749,9.928,9.9812,10.1254,10.2431,10.2431,10.1976,10.1976,0.0,0.0,0.0,0.0,0.0,0.0,0.0,0.0,0.0,0.0,0.0,0.0,0.0,0.0,0.0,10.9363,10.9178,10.8908,10.8555,10.8537,10.8445,10.8278,10.8278,10.8278,10.8278,10.8319,10.8381,10.846,10.8517,10.8556,10.8651,10.8689,10.867,10.8632,10.882,10.9042,10.9189,10.9544,10.9772,10.9922,10.9985,11.0024,11.0024,11.0024,11.0024,11.01,11.067,11.086,11.0974,11.1543,11.1695,11.1695,11.1695,11.1695,11.1695,11.1695,11.1695,11.1695,11.1695,11.1695,11.2037,11.3138,11.2075,11.1049,11.1619,11.1695,11.1695,11.1695,11.1695,11.1695,11.1695,11.1695,11.1695,11.1695,11.1695,11.1695,11.1695,11.1695,11.1695,11.1695,11.1695,11.1695,11.1695,11.1695,11.1695,11.1695,11.1163,11.086,11.086,11.0328,11.029,11.086,11.029,11.0024,11.0024,11.0594,11.086,8.7005,8.9665,9.2294,9.5217,9.6774,9.7724,9.8293,9.9204,9.9926,9.9926,10.0761,10.152,10.152,10.0647,10.0267,0.0,0.0,0.0,0.0,0.0,0.0,0.0,0.0,0.0,0.0,0.0,0.0,0.0,0.0,10.7859,10.82,10.8123,10.8233,10.8653,10.8553,10.8445,10.8278,10.8278,10.8278,10.8278,10.8278,10.8319,10.8401,10.8401,10.8458,10.8517,10.8517,10.8498,10.848,10.8702,10.8865,10.9029,10.9361,10.9588,10.9763,10.9892,10.9983,11.0024,11.0024,11.0024,11.0024,11.0024,11.0024,11.0024,11.0024,11.0024,11.0024,11.0024,11.0024,11.0024,11.0024,11.0024,11.0024,11.0024,11.0024,11.0328,11.1391,11.0784,11.0024,11.0024,11.0024,11.0024,11.0024,11.0024,11.0024,11.0024,11.0024,11.0024,11.0024,11.0024,11.0024,11.0024,11.0024,11.0024,11.0024,11.0024,11.0024,11.0024,11.0024,11.0024,11.0024,11.0024,11.0024,11.0024,11.0024,11.0024,11.0024,11.0024,11.0024,11.0024,11.0024,11.0024,8.8109,8.9931,9.1568,9.6465,9.7684,9.8103,9.9584,9.9925,9.9926,9.9926,9.9926,9.9926,9.9925,9.9925,9.9925,9.9925,0.0,0.0,0.0,0.0,0.0,0.0,0.0,0.0,0.0,0.0,0.0,0.0,10.4484,10.5154,10.6464,10.6305,10.6907,10.8469,10.8275,10.8203,10.8278,10.8278,10.8278,10.8278,10.8278,10.8278,10.8278,10.8278,10.8278,10.8278,10.8278,10.834,10.848,10.8565,10.8722,10.8865,10.9098,10.9364,10.9643,10.9755,10.9887,11.0024,11.0024,11.0024,11.0024,11.0024,11.0024,11.0024,11.0024,11.0024,11.0024,11.0024,11.0024,11.0024,11.0024,11.0024,11.0024,11.0024,11.0024,11.0024,11.0024,11.0024,11.0024,11.0024,11.0024,11.0024,11.0024,11.0024,11.0024,11.0024,11.0024,11.0024,11.0024,11.0024,11.0024,11.0024,11.0024,11.0024,11.0024,11.0024,11.0024,11.0024,11.0024,11.0024,11.0024,11.0024,11.0024,11.0024,11.0024,11.0024,11.0024,11.0024,11.0024,11.0024,11.0024,11.0024,8.9246,9.3129,9.5966,9.8436,9.9167,9.9423,9.9803,9.9921,9.9924,9.9924,9.9925,9.9925,9.992,9.9917,9.9917,9.9917,9.9922,0.0,0.0,0.0,0.0,0.0,0.0,0.0,0.0,0.0,0.0,0.0,10.3547,10.43,10.4261,10.4191,10.4921,10.6568,10.6544,10.7082,10.8241,10.8278,10.8278,10.8278,10.8278,10.8278,10.8278,10.8278,10.8278,10.8278,10.8278,10.8299,10.834,10.8366,10.8426,10.8574,10.8753,10.9018,10.939,10.9583,10.9832,11.0023,11.0024,11.0024,11.0024,11.0024,11.0024,11.0024,11.0024,11.0024,11.0024,11.0024,11.0024,11.0024,11.0024,11.0024,11.0024,11.0024,11.0024,11.0024,11.0024,11.0024,11.0024,11.0024,11.0024,11.0024,11.0024,11.0024,11.0024,11.0024,11.0024,11.0024,11.0024,11.0024,11.0024,11.0024,11.0024,11.0024,11.0024,11.0024,11.0024,11.0024,11.0024,11.0024,11.0024,11.0024,11.0024,11.0024,11.0024,11.0024,11.0024,11.0024,11.0024,11.0024,11.0024,11.0024,8.7172,9.1432,9.535,9.7743,9.9036,9.972,9.972,9.9826,9.9918,9.9918,9.9834,9.9788,9.9908,9.991,9.991,9.991,9.9915,9.9917,0.0,0.0,0.0,0.0,0.0,0.0,0.0,0.0,0.0,0.0,10.1417,10.2078,10.2298,10.2314,10.3081,10.4764,10.4838,10.5623,10.7231,10.7231,10.7568,10.8278,10.8278,10.8278,10.8278,10.8278,10.8278,10.8278,10.8278,10.8278,10.8278,10.8278,10.8319,10.8363,10.8519,10.876,10.9031,10.9343,10.9632,10.9873,10.9981,11.0023,11.0024,11.0024,11.0024,11.0024,11.0024,11.0024,11.0024,11.0024,11.0024,11.0024,11.0024,11.0024,11.0024,11.0024,11.0024,11.0024,11.0024,11.0024,11.0024,11.0024,11.0024,11.0024,11.0024,11.0024,11.0024,11.0024,11.0024,11.0024,11.0024,11.0024,11.0024,11.0024,11.0024,11.0024,11.0024,11.0024,11.0024,11.0024,11.0024,11.0024,11.0024,11.0024,11.0024,11.0024,11.0024,11.0024,11.0024,11.0024,11.0024,11.0024,11.0024,11.0024,8.4443,8.8054,9.242,9.5597,9.7612,9.8843,9.8843,9.919,9.9512,9.9558,9.9157,9.8998,9.9468,9.9555,9.9634,9.9866,9.9906,9.9908,9.9906,0.0,0.0,0.0,0.0,0.0,0.0,0.0,0.0,0.0,9.9131,9.9537,10.052,10.0557,10.1342,10.3044,10.3081,10.3866,10.5586,10.581,10.6633,10.7942,10.8166,10.8278,10.8278,10.8278,10.8278,10.8278,10.8278,10.8278,10.8278,10.8278,10.8278,10.8299,10.8401,10.8519,10.8685,10.9069,10.9363,10.9658,10.9879,11.0015,11.002,11.0024,11.0024,11.0024,11.0024,11.0024,11.0024,11.0024,11.0024,11.0024,11.0024,11.0024,11.0024,11.0024,11.0024,11.0024,11.0024,11.0024,11.0024,11.0024,11.0024,11.0024,11.0024,11.0024,11.0024,11.0024,11.0024,11.0024,11.0024,11.0024,11.0024,11.0024,11.0024,11.0024,11.0024,11.0024,11.0024,11.0024,11.0024,11.0024,11.0024,11.0024,11.0024,11.0024,11.0024,11.0024,11.0024,11.0024,11.0024,11.0024,11.0024,11.0024,8.7124,8.951,9.1758,9.3859,9.478,9.5196,9.5196,9.6302,9.7409,9.7616,9.6327,9.5706,9.7339,9.7668,9.8153,9.9675,9.9926,9.9929,9.9913,9.973,9.9572,0.0,0.0,0.0,0.0,0.0,0.0,0.0,0.0,9.8951,9.8969,9.8968,9.9679,10.1267,10.1304,10.2127,10.3829,10.525,10.6072,10.6371,10.7642,10.8278,10.8278,10.8278,10.8278,10.8278,10.8278,10.8278,10.8278,10.8278,10.8278,10.8278,10.8299,10.8445,10.8648,10.8753,10.914,10.9613,10.9702,10.9852,11.0012,11.002,11.0021,11.0022,11.0024,11.0024,11.0024,11.0024,11.0024,11.0024,11.0024,11.0024,11.0024,11.0024,11.0021,11.0013,11.0013,11.0013,11.0015,11.002,11.0021,11.0023,11.0024,11.0024,11.0024,11.0024,11.0024,11.0024,11.0024,11.0024,11.0024,11.0024,11.0024,11.0024,11.0024,11.0024,11.0024,11.0024,11.0024,11.0024,11.0024,11.0024,11.0024,11.0024,11.0024,11.0024,11.0024,11.0024,11.0024,11.0024,11.0024,11.0024,8.5695,8.7303,8.8961,9.0714,9.2627,9.4081,9.4081,9.4814,9.5477,9.5467,9.4716,9.4391,9.548,9.5668,9.6224,9.8008,9.8303,9.8568,9.9371,9.9407,9.9326,9.9309,0.0,0.0,0.0,0.0,0.0,0.0,0.0,9.8812,9.8557,9.8576,9.8893,9.9641,9.9679,10.0464,10.2052,10.2931,10.4203,10.5923,10.6708,10.7456,10.8203,10.6521,10.6222,10.7119,10.7904,10.8278,10.8278,10.8278,10.8278,10.8278,10.8278,10.8326,10.8463,10.8582,10.894,10.9363,10.9539,10.9816,11.0036,11.0012,11.0015,11.0015,11.0019,11.002,11.002,11.002,11.002,11.002,11.002,11.002,11.002,11.002,11.0015,11.0008,11.0008,11.0008,11.001,11.0013,11.0018,11.0021,11.0023,11.0024,11.0024,11.0024,11.0024,11.0024,11.0024,11.0024,11.0024,11.0024,11.0024,11.0024,11.0024,11.0024,11.0024,11.0024,11.0024,11.0024,11.0024,11.0024,11.0024,11.0024,11.0024,11.0024,11.0024,11.0024,11.0024,11.0024,11.0024,11.0024,8.3788,8.5172,8.6966,8.8329,9.0714,9.2865,9.3241,9.3174,9.3013,9.2811,9.2752,9.2966,9.3587,9.3682,9.4259,9.6002,9.6579,9.7248,9.8472,9.8916,9.9107,9.9107,9.9057,9.9019,0.0,0.0,0.0,0.0,0.0,0.0,9.8595,9.8576,9.8576,9.8576,9.8576,9.9118,10.0389,10.0706,10.2201,10.4838,10.5212,10.6035,10.7156,10.4577,10.4128,10.5474,10.6708,10.7231,10.7231,10.7231,10.7418,10.7755,10.7755,10.7979,10.8282,10.85,10.875,10.9006,10.9373,10.9671,10.9924,10.9996,11.0003,11.0003,11.0005,11.0008,11.0008,11.0008,11.0008,11.0008,11.0008,11.0008,11.0005,11.0039,11.0036,11.0036,11.0036,11.0036,11.0039,11.0003,11.0012,11.0016,11.002,11.0023,11.0024,11.0024,11.0024,11.0024,11.0024,11.0024,11.0024,11.0024,11.0024,11.0024,11.0024,11.0024,11.0024,11.0024,11.0024,11.0024,11.0024,10.9683,10.9493,10.9493,10.9493,10.9493,10.9493,10.9493,10.9683,11.0024,11.0024,11.0024,8.3788,8.6032,8.8442,8.8591,8.887,8.9502,9.1056,9.023,8.914,8.9128,8.9128,8.9654,9.1485,9.1804,9.2385,9.4205,9.5786,9.687,9.6984,9.8126,9.8975,9.8975,9.8729,9.8594,9.8594,9.8594,9.8594,0.0,0.0,0.0,9.8538,9.8576,9.8576,9.8576,9.8576,9.8651,9.8763,10.0165,10.1043,10.1379,10.2931,10.3717,10.3829,10.3567,10.3492,10.3642,10.3791,10.3866,10.3866,10.3866,10.4764,10.6147,10.6147,10.7007,10.8299,10.8282,10.8445,10.8735,10.8993,10.9286,10.9554,10.9924,11.0025,11.0028,11.0003,11.0008,11.0008,11.0008,11.0008,11.0008,11.0008,11.0008,11.0039,11.0007,11.0037,11.0037,11.0037,11.0037,11.0007,11.0021,11.0028,11.0036,11.0018,11.002,11.0022,11.0024,11.0024,11.0024,11.0024,11.0024,11.0024,11.0024,11.0024,11.0024,11.0024,11.0024,11.0024,11.0024,11.0024,11.0024,11.0024,10.8544,10.7746,10.7746,10.7746,10.7746,10.7746,10.7746,10.8506,11.0024,11.0024,11.0024,8.0723,8.2405,8.4424,8.5434,8.717,8.8816,8.9471,8.9883,9.0144,9.0144,9.0144,9.0084,8.9836,8.9814,9.0349,9.2137,9.2978,9.3729,9.4706,9.6195,9.7182,9.7182,9.7995,9.8576,9.8576,9.8576,9.8576,9.8576,9.8576,9.8576,9.8576,9.8576,9.8576,9.8576,9.8576,9.8576,9.8576,9.9155,9.994,10.0893,10.1566,10.1399,10.0464,10.0464,10.0987,10.1902,10.1902,10.2463,10.3418,10.3418,10.3791,10.4427,10.4427,10.4801,10.5324,10.5324,10.5521,10.5935,10.718,10.7818,10.8243,10.9598,11.0007,11.0007,11.0015,11.0018,11.0018,11.0018,11.0018,11.0018,11.0018,11.0018,11.0015,11.0037,11.0033,11.0033,11.0033,11.0033,11.0033,11.0003,11.0015,11.0028,11.0039,11.001,11.0015,11.0018,11.0018,11.0018,11.0018,11.0021,11.0023,11.0023,11.0024,11.0024,11.0024,11.0024,11.0024,11.0024,10.9075,10.805,10.7025,10.6342,10.5962,10.5962,10.5962,10.5962,10.5962,10.5962,10.6304,10.6987,10.6987,10.6987,7.8845,8.0333,8.2293,8.3489,8.5845,8.7881,8.7881,8.8799,8.9808,9.0331,9.0817,9.0631,8.8965,8.904,8.9621,9.0331,9.0855,9.1548,9.265,9.4257,9.5454,9.5977,9.7061,9.8015,9.8501,9.8576,9.8576,9.8576,9.8576,9.8576,9.8576,9.8576,9.8576,9.8576,9.8576,9.8576,9.8576,9.8576,9.908,10.0202,10.0202,9.9604,9.8576,9.8576,9.9155,10.0202,10.0202,10.0875,10.1959,10.1959,10.2258,10.267,10.267,10.2969,10.3418,10.3418,10.3535,10.3889,10.5419,10.6074,10.6474,10.8018,10.8857,10.9274,10.9274,10.9274,10.9274,10.9274,10.9274,10.9274,10.9274,10.8895,10.8516,10.8516,10.8516,10.8516,10.8516,10.8516,10.8516,10.8516,10.8527,10.8538,10.8544,10.8515,10.8523,10.8527,10.8527,10.8527,10.8527,10.8533,10.8537,10.854,10.8543,10.8506,10.8506,10.8506,10.8506,10.8506,10.7405,10.6228,10.5013,10.4481,10.4216,10.4216,10.4216,10.4216,10.4216,10.4216,10.4481,10.4975,10.4975,10.4975,7.9139,8.1183,8.3751,8.3788,8.4947,8.6144,8.6144,8.6144,8.663,8.8329,8.9995,9.0631,8.8965,9.0032,9.0593,8.8928,9.007,9.1174,9.1174,9.2537,9.4145,9.5828,9.6052,9.6688,9.8389,9.8576,9.8576,9.8576,9.8576,9.8576,9.8576,9.8576,9.8576,9.8576,9.8576,9.8576,9.8576,9.8576,9.8576,9.8576,9.8576,9.8576,9.8576,9.8576,9.8576,9.8576,9.8576,9.8613,9.8613,9.8613,9.9492,10.0893,10.0893,10.194,10.3418,10.3418,10.3418,10.3497,10.4032,10.4223,10.4303,10.4843,10.6163,10.7533,10.7533,10.7533,10.7533,10.7533,10.7533,10.7533,10.7533,10.6277,10.5025,10.5025,10.5025,10.5025,10.5025,10.5025,10.5025,10.5025,10.5025,10.4995,10.5012,10.5015,10.5021,10.4997,10.4999,10.4999,10.4999,10.4999,10.5002,10.501,10.5012,10.5013,10.5013,10.5013,10.5013,10.5013,10.5013,10.4975,10.4975,10.3342,10.2469,10.2469,10.2469,10.2469,10.2469,10.2469,10.3342,10.4975,10.4975,10.4975,7.8526,8.0361,8.233,8.3489,8.4947,8.6107,8.6107,8.7004,8.8312,9.0032,8.9845,8.9285,8.8741,8.9077,8.9247,8.8703,8.9077,8.9434,8.9434,9.0855,9.2089,9.265,9.3659,9.4519,9.5042,9.6127,9.68,9.68,9.7903,9.8576,9.8576,9.8576,9.8576,9.8576,9.8576,9.8576,9.8576,9.8576,9.8576,9.8576,9.8576,9.8576,9.8576,9.8576,9.8576,9.8576,9.8576,9.8576,9.8576,9.8576,9.8838,9.9305,9.9305,9.9604,10.009,10.009,10.009,10.0297,10.1691,10.23,10.2731,10.4205,10.5195,10.5746,10.5746,10.5746,10.5746,10.5746,10.5746,10.548,10.4346,10.4494,10.4987,10.4987,10.4987,10.4987,10.4987,10.4987,10.4987,10.4987,10.4987,10.4949,10.4957,10.4957,10.496,10.4967,10.4967,10.4967,10.4967,10.4967,10.4974,10.4952,10.4963,10.4969,10.4969,10.4969,10.497,10.4973,10.2807,10.1515,10.1519,10.0987,10.0722,10.0723,10.0723,10.0723,10.0723,10.0723,10.0989,10.152,10.152,10.152,7.9112,8.0387,8.161,8.3361,8.4499,8.5247,8.5247,8.6032,8.7266,8.8911,8.8911,8.8853,8.9471,9.0593,9.1246,9.0593,9.0481,9.0032,8.8816,8.9546,9.0444,9.1062,9.1996,9.2874,9.3435,9.4444,9.5342,9.5977,9.6987,9.7865,9.8501,9.8576,9.8576,9.8576,9.8576,9.8576,9.8576,9.8576,9.8576,9.8576,9.8576,9.8576,9.8576,9.8576,9.8576,9.8576,9.8576,9.8576,9.8576,9.8576,9.8576,9.8576,9.8576,9.8576,9.8576,9.8576,9.8576,9.8744,9.9987,10.0524,10.0934,10.2246,10.3271,10.4,10.4,10.4,10.4,10.4,10.4,10.3621,10.1914,10.2255,10.3052,10.3052,10.3052,10.3052,10.3052,10.3052,10.3052,10.3052,10.3052,10.3052,10.3052,10.3052,10.3052,10.3052,10.3052,10.3052,10.3052,10.3052,10.3059,10.3079,10.3052,10.3059,10.3061,10.3061,10.3065,10.3071,10.1087,9.991,9.9918,9.9918,9.9921,9.9923,9.9923,9.9923,9.9923,9.9925,9.9925,9.9925,9.9925,9.9926,8.0542,8.1167,8.1715,8.3195,8.3847,8.4109,8.4125,8.4125,8.4536,8.5994,8.7544,8.9115,9.0705,9.3472,9.4968,9.3397,9.336,9.2425,8.9264,0.0,8.9509,9.1004,9.1174,9.1715,9.3023,9.3285,9.3996,9.5566,9.5753,9.6575,9.8277,9.8389,9.8426,9.8576,9.8576,9.8576,9.8576,9.8576,9.8576,9.8576,9.8576,9.8576,9.8576,9.8576,9.8576,9.8576,9.8576,9.8576,9.8576,9.8576,9.8576,9.8576,9.8576,9.8576,9.8576,9.8576,9.8576,9.8594,9.8828,9.9014,9.9163,9.9411,10.0719,10.2213,10.2255,10.2259,10.2259,10.2259,10.2259,10.1879,10.032,9.9903,9.9903,9.9903,9.9903,9.9903,9.9903,9.9903,9.9903,9.9903,9.9903,9.9903,9.9903,9.9903,9.9903,9.9903,9.9903,9.9903,9.9903,9.9903,9.991,9.9929,9.9929,9.9897,9.9906,9.9908,9.9908,9.9908,9.9899,9.9897,9.9908,9.9908,9.991,9.991,9.991,9.991,9.991,9.992,9.9922,9.9922,9.9925,9.9925,8.0439,8.2194,8.3799,8.2233,8.4532,8.7242,8.7473,8.7402,8.7496,8.7976,8.8367,8.8778,8.9189,8.9863,9.0237,8.9863,9.1864,9.2836,9.0855,9.1603,9.2051,9.1249,9.1174,9.0817,8.9845,9.0967,9.1902,9.2276,9.3435,9.4818,9.6538,9.6613,9.7211,9.8501,9.8576,9.8576,9.8576,9.8576,9.8576,9.8576,9.8576,9.8576,9.8576,9.8576,9.8576,9.8576,9.8576,9.8576,9.8576,9.8576,9.8576,9.8576,9.8576,9.8576,9.8576,9.8576,9.8576,9.8538,9.8649,9.8795,9.9,9.9189,9.9676,10.0251,10.0451,10.051,10.051,10.051,10.051,10.0434,10.0016,9.9903,9.9903,9.9903,9.9903,9.9903,9.9903,9.9903,9.9903,9.9903,9.9903,9.9903,9.9903,9.9903,9.9903,9.9903,9.9903,9.9903,9.9903,9.9903,9.9903,9.991,9.991,9.991,9.9917,9.9917,9.9917,9.9917,9.9913,9.992,9.9897,9.9897,9.9902,9.991,9.991,9.991,9.991,9.9912,9.9914,9.9914,9.9915,9.9917,8.1823,8.3439,8.4517,8.2406,8.4563,8.702,8.6433,8.6864,8.7387,8.7436,8.8105,8.889,8.9658,9.0369,9.1117,9.1902,9.2874,9.2949,9.1361,9.1229,9.1229,9.1174,0.0,8.9958,8.9808,8.992,9.0331,9.1099,9.1921,9.3173,9.4781,9.5603,9.6463,9.7361,9.8165,9.8576,9.8576,9.8576,9.8576,9.8576,9.8576,9.8576,9.8576,9.8576,9.8576,9.8576,0.0,9.8576,9.8576,9.8576,9.8576,9.8576,9.8576,9.8576,9.8576,9.8576,9.8576,9.8576,9.8576,9.8716,9.8975,9.9107,9.9299,9.9598,9.9835,9.9903,9.9903,9.9903,9.9903,9.9903,9.9903,9.9903,9.9903,9.9903,9.9903,9.9903,9.9903,9.9903,9.9903,9.9903,9.9903,9.9903,9.9903,9.9903,9.9903,9.9903,9.9903,9.9903,9.9903,9.9903,9.9903,9.9903,9.9903,9.9903,9.9903,9.9903,9.9903,9.9903,9.9903,9.9906,9.992,9.992,9.9923,9.9932,9.9932,9.9932,9.9932,9.9899,9.9904,9.9904,9.9908,9.991,8.3521,8.4566,8.496,8.3666,8.4816,8.5885,8.4612,8.5431,8.6436,8.6447,8.7639,8.9077,9.0518,9.1864,9.3323,9.5005,9.407,9.2762,9.166,9.0294,8.9808,9.1042,8.9883,8.9471,9.0668,8.9471,8.9247,9.0668,9.078,9.149,9.3061,9.4519,9.5491,9.6015,9.7398,9.8165,9.8165,9.8426,9.8576,9.8576,9.8576,9.8576,9.8576,9.8576,9.8576,9.8576,0.0,9.8576,9.8576,9.8576,9.8576,9.8576,9.8576,9.8576,9.8576,9.8576,9.8576,9.8576,9.8576,9.8681,9.8915,9.9095,9.9279,9.9523,9.983,9.9903,9.9903,9.9903,9.9903,9.9903,9.9903,9.9903,9.9903,9.9903,9.9903,9.9903,9.9903,9.9903,9.9903,9.9903,9.9903,9.9903,9.9903,9.9903,9.9903,9.9903,9.9903,9.9903,9.9903,9.9903,9.9903,9.9903,9.9903,9.9903,9.9903,9.9903,9.9903,9.9903,9.9903,9.9903,9.9903,9.9903,9.9903,9.9903,9.9903,9.9903,9.9903,9.992,9.9926,9.9929,9.9902,9.9904,8.3424,8.5019,8.6726,8.6584,8.7173,8.7667,8.7561,8.7766,8.7971,8.8079,8.839,8.8703,8.8965,8.9227,8.992,9.164,9.1697,9.1902,9.2986,9.2911,9.235,9.1286,9.093,0.0,8.9152,8.8816,8.8778,8.9003,8.904,8.9733,9.1453,9.179,9.3173,9.594,9.6276,9.6426,9.6426,9.7828,9.8576,9.8576,9.8576,9.8576,9.8576,9.8576,9.8576,9.8576,0.0,0.0,9.8576,9.8576,9.8576,9.8576,9.8576,9.8576,9.8576,9.8576,9.8576,9.8576,9.8576,9.8576,9.8664,9.9032,9.9174,9.9279,9.9773,9.9903,9.9903,9.9903,9.9903,9.9903,9.9903,9.9903,9.9903,9.9903,9.9903,9.9903,9.9903,9.9903,9.9903,9.9903,9.9903,9.9903,9.9903,9.9903,9.9903,9.9903,9.9903,9.9903,9.9903,9.9903,9.9903,9.9903,9.9903,9.9903,9.9903,9.9903,9.9903,9.9903,9.9903,9.9903,9.9903,9.9903,9.9903,9.9903,9.9903,9.9903,9.9903,9.9906,9.9906,9.9906,9.991,9.991,8.457,8.5727,8.7085,8.7155,8.7605,8.811,8.8211,8.825,8.8288,8.8344,8.8452,8.8804,8.9738,8.9213,8.9788,9.321,9.3809,9.4033,9.4781,9.336,9.1959,9.1249,9.0369,8.9845,0.0,8.9189,8.8629,8.8629,8.8629,8.8965,8.9771,9.0668,9.1864,9.336,9.5117,9.5566,9.4669,9.6314,9.7174,9.7174,9.8127,9.8576,9.8576,9.8576,9.8576,9.8576,9.8576,9.8576,9.8576,9.8576,9.8576,9.8576,9.8576,9.8576,9.8576,9.8576,9.8576,9.8576,9.8576,9.8576,9.863,9.9019,9.914,9.9228,9.9767,9.983,9.9701,9.9701,9.9788,9.9903,9.9903,9.9903,9.9903,9.9903,9.9903,9.9903,9.9903,9.9903,9.9903,9.9903,9.9903,9.9903,9.9903,9.9903,9.9903,9.9903,9.9903,9.9903,9.9903,9.9903,9.9903,9.9903,9.9903,9.9903,9.9903,9.9903,9.9903,9.9903,9.9903,9.9903,9.9903,9.9903,9.9903,9.9903,9.9903,9.9903,9.9903,9.9903,9.9903,9.9903,9.9903,9.9903,8.5852,0.0,8.7322,8.7322,8.7686,8.809,0.0,8.8247,8.8248,8.825,8.8344,8.879,9.0115,8.9366,8.9793,9.3623,9.4595,9.4837,9.4893,9.3061,9.1864,9.2276,9.0481,8.9883,9.1565,8.9845,8.8629,8.8629,8.8629,8.8629,8.8629,8.9845,9.078,9.1136,9.3584,9.4257,9.2949,9.4594,9.5416,9.5454,9.7136,9.794,9.7978,9.8389,9.8576,9.8576,9.8576,9.8576,9.8576,9.8576,9.8576,9.8576,9.8576,9.8576,9.8576,9.8576,9.8576,9.8576,9.8576,9.8576,9.8594,9.8891,9.9044,9.9178,9.9605,9.9567,9.9428,9.9428,9.9598,9.9756,9.9756,9.9756,9.9756,9.9756,9.9778,9.983,9.983,9.9886,9.9903,9.9903,9.9903,9.9903,9.9903,9.9903,9.9903,9.9903,9.9903,9.9903,9.9903,9.9903,9.9903,9.9903,9.9903,9.9903,9.9903,9.9903,9.9903,9.9903,9.9903,9.9903,9.9903,9.9903,9.9903,9.9903,9.9903,9.9903,9.9903,9.9903,9.9903,9.9903,9.9903,9.9903,0.0,8.7472,8.7971,8.7971,8.7992,8.807,8.807,8.8187,0.0,8.8229,8.8231,8.8307,8.8419,8.8344,8.8418,8.892,9.0319,9.1383,9.151,9.2575,9.3921,9.5491,9.2911,9.1603,9.321,9.0481,8.8629,8.8629,8.8629,8.8629,8.8629,8.8778,8.9546,9.1099,9.1398,9.1435,9.1323,9.2911,9.3696,9.3696,9.5416,9.6201,9.6239,9.7828,9.8576,0.0,9.8576,9.8576,9.8576,9.8576,9.8576,9.8576,9.8576,9.8576,9.8576,9.8576,9.8576,9.8576,9.8576,9.8576,9.8538,9.8594,9.8783,9.8981,9.9117,9.9185,9.9174,9.9174,9.9185,9.9196,9.9196,9.9196,9.9196,9.9196,9.9384,9.9546,9.9546,9.9724,9.9903,9.9903,9.9903,9.9903,9.9903,9.9903,9.9903,9.9903,9.9903,9.9903,9.9903,9.9903,9.9903,9.9903,9.9903,9.9903,9.9903,9.9903,9.9903,9.9903,9.9903,9.9903,9.9903,9.9903,9.9903,9.9903,9.9903,9.9903,9.9903,9.9903,9.9903,9.9903,9.9903,9.9903,8.7642,8.7851,8.807,8.807,8.807,8.807,8.807,8.809,8.813,8.813,8.8209,8.825,8.825,8.825,8.9276,9.2409,9.3472,9.4611,9.6798,9.678,9.6014,9.4613,9.1565,8.9808,9.0406,8.9376,8.8629,8.8629,8.8629,8.8629,8.8629,8.8629,8.8928,8.9584,8.9584,8.9584,8.9584,9.1229,9.2051,9.2051,9.3696,9.5005,9.6052,9.6688,9.7566,9.8576,9.8576,9.8576,0.0,9.8576,9.8576,9.8576,9.8576,9.8576,9.8576,9.8576,9.8576,9.8576,9.8576,9.8576,9.8576,9.8576,9.8716,9.8946,9.8986,9.8885,9.8801,9.8972,9.907,9.914,9.914,9.914,9.914,9.914,9.9318,9.9531,9.9531,9.9756,9.9903,9.9903,9.9903,9.9903,9.9903,9.9903,9.9903,9.9903,9.9903,9.9903,9.9903,9.9903,9.9903,9.9903,9.9903,9.9903,9.9903,9.9903,9.9903,9.9903,9.9903,9.9903,9.9903,9.9903,9.9903,9.9903,9.9903,9.9903,9.9903,9.9903,9.9903,9.9903,9.9903,9.9903,8.807,8.807,8.807,8.807,8.807,8.807,8.807,8.807,8.807,8.807,8.813,8.8207,8.8207,8.8601,8.9888,9.2795,9.4136,9.5481,9.7337,9.7132,9.5939,9.3753,9.2014,9.0573,8.9509,8.8965,8.8629,8.8629,8.8629,8.8629,8.8629,8.8629,8.8629,8.8629,8.8629,8.8629,8.8629,8.9771,9.0369,9.0406,9.2014,9.336,9.4519,9.5005,9.6127,9.7753,9.7753,9.809,9.8576,9.8576,9.8576,9.8576,9.8576,9.8576,9.8576,9.8576,9.8576,9.8576,9.8576,9.8576,9.8576,9.8576,9.8683,9.8812,9.8812,9.8664,9.8594,9.8783,9.8893,9.8962,9.8962,9.8962,9.8962,9.8962,9.9143,9.9355,9.9355,9.9499,9.9645,9.9645,9.9756,9.9773,9.9695,9.9756,9.9783,9.9783,9.9783,9.983,9.9899,9.9903,9.9903,9.9903,9.9903,9.9903,9.9903,9.9903,9.9903,9.9903,9.9903,9.9903,9.9903,9.9903,9.9903,9.9903,9.9903,9.9903,9.9903,9.9903,9.9903,9.9903,9.9903,9.9903,8.807,8.807,8.807,8.807,8.807,8.807,8.807,8.807,8.807,8.807,8.807,8.807,8.807,8.9312,8.9911,8.8507,9.0962,9.2586,9.1197,9.2354,9.3362,9.3454,9.4968,9.4706,9.1435,8.9621,8.8629,8.8629,8.8629,0.0,8.8629,8.8629,8.8629,8.8629,8.8629,8.8629,8.8629,8.8629,8.8629,8.8666,9.0331,9.1136,9.1211,9.2762,9.4407,9.6015,9.6015,9.6949,0.0,9.8538,9.8538,9.8576,9.8576,9.8576,9.8576,9.8576,9.8576,9.8576,9.8576,9.8576,9.8576,9.8576,9.8576,9.8576,9.8576,9.8576,9.8576,9.8576,9.8576,9.8576,9.8576,9.8576,9.8576,9.8576,9.875,9.8931,9.8931,9.9043,9.914,9.914,9.9366,9.9437,9.9185,9.9366,9.9531,9.9531,9.9531,9.9625,9.9891,9.9903,9.9903,9.9903,9.9903,9.9903,9.9903,9.9903,9.9903,9.9903,9.9903,9.9903,9.9903,9.9903,9.9903,9.9903,9.9903,9.9903,9.9903,9.9903,9.9903,9.9903,9.9903,9.9903,8.807,8.807,8.807,8.807,8.807,8.807,8.807,8.807,8.807,8.807,8.807,8.807,8.807,8.8421,8.8961,8.965,9.0579,9.1554,9.2482,9.3005,9.2951,9.1941,9.2313,9.1752,8.9584,8.8928,8.8629,8.8629,8.8629,8.8629,8.8629,8.856,8.856,8.8629,8.8629,8.8629,8.8629,8.8629,8.8629,8.8629,8.9152,9.0032,9.1174,9.166,9.2724,9.4257,9.4257,9.5192,0.0,9.6762,9.7473,9.8576,9.8576,9.8576,9.8576,9.8576,9.8576,9.8576,9.8576,9.8576,9.8576,9.8576,9.8576,9.8576,9.8576,9.8576,9.8576,9.8576,9.8576,9.8576,9.8576,9.8576,9.8576,9.8576,9.875,9.8931,9.8931,9.9043,9.914,9.914,9.9196,9.9228,9.9152,9.9366,9.9531,9.9531,9.9695,9.9767,9.9676,9.9632,9.9632,9.9632,9.9632,9.9632,9.9632,9.9826,9.9903,9.9903,9.9903,9.9903,9.9903,9.9903,9.9903,9.9903,9.9903,9.9903,9.9903,9.9903,9.9903,9.9903,9.9903,9.9903,8.807,8.807,8.807,8.807,8.807,8.807,8.807,8.807,8.807,8.807,8.807,8.807,8.807,8.8569,8.9089,8.9423,9.0538,9.138,9.1303,9.1807,9.1679,9.017,9.0001,8.9628,8.8582,8.847,8.847,8.847,8.847,8.847,8.847,8.8417,8.8417,8.847,8.847,8.8488,8.8577,8.8577,8.8594,8.8629,8.8629,8.9172,9.0144,9.0144,9.1042,9.2575,9.2575,9.3509,0.0,9.5005,9.5603,9.6538,9.6538,9.6949,9.7547,9.7547,9.7978,9.8576,9.8576,9.8576,9.8576,9.8576,9.7641,9.6538,9.6538,9.6538,9.6538,9.6538,9.6538,9.6538,9.6538,9.7005,9.764,9.8313,9.8574,9.8695,9.8695,9.8747,9.8848,9.8848,9.8976,9.903,9.892,9.9095,9.9304,9.9304,9.9413,9.9466,9.9384,9.9384,9.9384,9.9384,9.9317,9.9297,9.9375,9.9523,9.9612,9.9612,9.9612,9.9612,9.9612,9.9612,9.9676,9.9767,9.9767,9.9826,9.9903,9.9903,9.9903,9.9903,9.9903,9.9903,8.807,8.807,8.807,8.807,8.807,8.807,8.807,8.8029,8.7971,8.7971,8.7971,8.7971,8.7971,8.918,8.9721,8.8272,9.0538,9.145,8.8656,8.9474,8.9849,8.8437,8.8251,8.8251,8.8251,8.8251,8.8251,8.8251,8.8251,8.8251,8.8232,8.8251,8.8251,8.8251,8.8251,8.8307,8.8435,8.8435,8.847,8.8594,8.8594,8.8612,8.8612,8.8612,8.9471,9.093,9.093,9.1827,0.0,9.3285,9.336,9.3509,9.3509,9.4444,9.579,9.579,9.6762,9.809,9.809,9.809,9.809,9.809,9.6015,9.3473,9.3473,9.3473,9.3473,9.3473,9.3473,9.3473,9.3473,9.452,9.5973,9.7523,9.7896,9.7896,9.7896,9.7896,9.7934,9.8083,9.8384,9.8608,9.8539,9.8767,9.8915,9.8931,9.896,9.8986,9.9081,9.9117,9.9093,9.9057,9.8972,9.8943,9.9081,9.9117,9.914,9.914,9.914,9.914,9.914,9.914,9.9249,9.9499,9.9469,9.9612,9.984,9.984,9.984,9.984,9.984,9.984,8.807,8.807,8.807,8.807,8.807,8.807,8.807,8.7664,8.7299,8.7299,8.7299,8.7299,8.7299,8.7967,8.8421,8.8107,8.8644,8.887,8.8321,8.8564,8.8621,8.8288,8.8251,8.8251,8.8251,8.8251,8.8251,8.8251,8.8251,8.8231,8.8093,8.8209,8.825,8.8251,8.8251,8.827,8.8288,8.8288,8.8307,8.8325,8.8325,8.8399,8.847,8.847,8.8747,8.9189,8.9189,9.0107,9.166,9.166,9.2388,9.3509,9.3509,9.3734,9.4033,9.4033,9.4295,9.4594,9.4594,9.4594,9.4594,9.4594,9.3997,9.336,9.336,9.336,9.336,9.336,9.336,9.336,9.336,9.3602,9.3955,9.4291,9.4403,9.4403,9.4403,9.4403,9.4738,9.5989,9.6254,9.678,9.818,9.8609,9.8801,9.8915,9.9017,9.9057,9.901,9.8981,9.8847,9.8407,9.8531,9.8699,9.884,9.903,9.9131,9.914,9.914,9.914,9.914,9.914,9.9163,9.9218,9.9218,9.9249,9.9327,9.9327,9.9327,9.9327,9.9327,9.9327,8.807,8.807,8.807,8.807,8.807,8.807,8.807,8.7809,8.7435,8.7132,8.7061,8.6989,8.6743,8.7206,8.7583,8.7583,8.7851,8.809,8.813,8.815,8.817,8.8154,8.8154,8.8154,8.8154,8.8154,8.8154,8.8154,8.8154,8.8133,8.807,8.811,8.817,8.8154,8.8154,8.8174,8.8269,8.8269,8.825,8.8251,8.8251,8.8288,8.8343,8.8343,8.8399,8.8452,8.8452,8.8938,8.9778,8.9778,9.0226,9.0991,9.0991,9.1458,9.2205,9.226,9.2765,9.3418,9.3493,9.3437,9.3138,9.1514,9.0917,9.0879,9.0879,9.0879,9.0879,9.0879,9.0879,9.0879,9.0879,9.1417,9.203,9.207,9.2646,9.3222,9.3222,9.3222,9.3446,9.4265,9.4455,9.5074,9.6754,9.7173,9.7546,9.8423,9.8633,9.8645,9.8571,9.7842,9.7247,9.6995,9.7788,9.8408,9.8463,9.8603,9.8662,9.8656,9.8656,9.8656,9.8656,9.8741,9.8833,9.8938,9.9017,9.907,9.914,9.914,9.914,9.914,9.914,9.914,8.7538,8.7607,8.7766,8.7851,8.7809,8.7744,8.7744,8.7701,8.7487,8.6929,8.6793,8.6667,8.6256,8.6667,8.7061,8.7061,8.7642,8.807,8.807,8.807,8.807,8.807,8.807,8.807,8.807,8.807,8.807,8.807,8.807,8.807,8.807,8.807,8.807,8.807,8.807,8.811,8.819,8.819,8.8192,8.8213,8.8213,8.8213,8.8232,8.8232,8.8251,8.8251,8.8251,0.0,8.8251,8.8251,8.8251,8.8251,8.8251,8.9108,9.0338,9.047,9.1309,9.2444,9.2521,9.254,9.194,8.9107,8.8213,8.8213,8.8213,8.8213,8.8213,8.8213,8.8213,8.8213,8.8213,8.9179,9.0181,9.026,9.13,9.2244,9.2244,9.2244,9.2318,9.2579,9.2735,9.3317,9.4902,9.5183,9.5667,9.7121,9.7307,9.7307,9.7307,9.6057,9.5179,9.5179,9.6409,9.7265,9.7286,9.7286,9.7398,9.768,9.7717,9.7829,9.8127,9.8246,9.8426,9.8637,9.8758,9.8855,9.8981,9.8981,9.8981,9.8981,9.8981,9.8994,8.5436,8.5863,8.6653,8.7098,8.6843,8.6549,8.6549,8.6183,8.5859,8.5771,8.5742,8.5742,8.5653,8.6444,8.7061,8.7061,8.7642,8.807,8.807,8.807,8.807,8.807,8.807,8.807,8.807,8.807,8.807,8.807,8.807,8.807,8.807,8.807,8.807,8.807,8.807,8.807,8.809,8.809,8.809,8.8073,8.8073,8.8113,8.8248,8.8248,8.825,8.8251,8.8251,8.8251,8.8251,8.8251,8.8251,8.8251,8.8251,8.8363,8.8586,8.8605,8.8754,8.894,8.894,8.894,8.8828,8.8282,8.8073,8.8073,8.8073,8.8073,8.8073,8.8073,8.8073,8.8073,8.8073,8.8239,8.8387,8.8387,8.8573,8.8759,8.8759,8.8759,8.913,9.0484,9.0744,9.1364,9.3141,9.3459,9.3554,9.3916,9.3973,9.3973,9.3973,9.3567,9.3291,9.3291,9.3477,9.3669,9.3773,9.3794,9.4431,9.5874,9.5986,9.6619,9.809,9.8185,9.8226,9.8229,9.825,9.829,9.8311,9.8311,9.8311,9.8311,9.8426,9.8464,8.4443,8.4646,8.5039,8.5297,8.5828,8.6301,8.6301,8.6119,8.5873,8.5563,8.5539,8.5416,8.504,8.5676,8.631,8.659,8.7122,8.7642,8.7992,8.807,8.807,8.807,8.807,8.807,8.807,8.807,8.807,8.807,8.807,8.807,8.807,8.807,8.807,8.807,8.807,8.807,8.807,8.807,8.807,8.807,8.807,8.809,8.813,8.813,8.8113,8.8135,0.0,8.8135,8.8135,8.8135,8.8135,8.8135,8.8135,8.8135,8.8172,8.823,8.8211,8.8135,8.823,8.8211,8.8153,8.809,8.807,8.807,8.807,8.807,8.807,8.807,8.807,8.807,8.807,8.807,8.807,8.807,8.807,8.807,8.807,8.807,8.8235,8.8941,8.9089,8.963,9.1306,9.1587,9.1922,9.2951,9.31,9.243,9.059,9.1046,9.1503,9.1503,9.2336,9.2914,9.2978,9.2978,9.3318,9.4067,9.4104,9.4439,9.5182,9.5283,9.5734,9.6628,9.669,9.7216,9.8164,9.8164,9.8164,9.8127,9.7256,9.6829,8.3325,8.3316,8.3561,8.3689,8.4516,8.5357,8.5756,8.5865,8.575,8.535,8.5293,8.5136,8.4686,8.5104,8.5653,8.6072,8.6642,8.7239,8.7766,8.7951,8.807,8.807,8.807,8.807,8.807,8.807,8.807,8.807,8.807,8.807,8.807,8.807,8.807,8.807,8.807,8.807,8.807,8.807,8.807,8.807,8.807,8.807,8.807,8.807,8.807,8.807,8.807,8.807,8.807,8.807,8.807,8.807,8.807,8.807,8.807,8.8187,8.813,8.807,8.815,8.813,8.807,8.807,8.807,8.807,8.807,8.807,8.807,8.807,8.807,8.807,8.807,8.807,8.807,8.807,8.807,8.807,8.807,8.807,8.807,8.807,8.807,8.8421,8.9609,8.9795,9.0203,9.1466,9.1689,9.0797,8.8347,8.9052,8.9795,8.9795,9.0946,9.1689,9.1689,9.1689,9.1874,9.2261,9.2261,9.2447,9.2893,9.3,9.3599,9.4789,9.4911,9.5548,9.6814,9.6814,9.6814,9.6814,9.5552,9.4976,8.148,8.1542,8.242,8.2916,8.2764,8.2831,8.4293,8.465,8.4617,8.4583,8.4619,8.4583,8.455,8.5104,8.5502,8.5569,8.6418,8.7122,8.7108,8.7664,8.807,8.807,8.807,8.807,8.807,8.807,8.807,8.807,0.0,8.807,8.807,8.807,8.807,8.807,8.807,8.807,8.807,8.807,8.807,8.807,8.807,8.807,8.807,8.807,8.807,8.807,8.807,8.807,8.807,8.807,8.807,8.807,8.807,8.807,8.807,8.807,8.807,8.807,8.807,8.807,8.807,8.807,8.807,8.807,8.807,8.807,8.807,8.807,8.807,8.807,8.807,8.807,8.807,8.807,8.807,8.807,8.807,8.807,8.807,8.807,8.807,8.807,8.8161,8.8181,8.8218,8.8272,8.8309,8.8256,8.807,8.8144,8.8181,8.8181,8.8235,8.8309,8.8309,8.8309,8.8941,9.0426,9.0538,9.1243,9.2856,9.2914,9.2951,9.3063,9.3063,9.31,9.3174,9.3174,9.3174,9.3174,9.3227,9.3252,8.191,8.1212,8.0549,7.969,8.0139,8.1163,8.2697,8.3054,8.3339,8.4372,8.4586,8.4586,8.4586,8.4749,8.504,8.5478,8.6128,8.6693,8.7037,8.7664,8.807,8.807,8.807,8.807,8.807,8.807,8.807,8.807,8.807,8.807,8.807,8.807,8.807,8.807,8.807,8.807,8.807,8.807,8.807,8.807,8.807,8.807,8.807,8.807,8.807,8.807,8.807,8.807,8.807,8.807,8.807,8.807,8.807,8.807,8.807,8.807,8.807,8.807,8.807,8.807,8.807,8.807,8.807,8.807,8.807,8.807,8.807,8.807,8.807,8.807,8.807,8.807,8.807,8.807,8.807,8.807,8.807,8.807,8.807,8.807,8.807,8.807,8.807,8.807,8.807,8.807,8.807,8.807,8.807,8.807,8.807,8.807,8.807,8.807,8.807,8.807,8.8272,8.8829,8.8904,8.9164,8.9758,8.9795,9.0278,9.128,9.1259,9.1816,9.2893,9.2893,9.2893,9.2893,9.1843,9.1343,8.3446,8.2233,8.1092,7.9522,7.9129,7.9522,8.1092,8.1448,8.1734,8.2768,8.2982,8.3161,8.366,8.3767,8.4075,8.5028,8.5705,8.6147,8.6523,8.7229,8.7707,8.7707,8.793,8.807,8.807,8.753,8.7418,8.8033,8.807,8.807,8.807,8.807,8.807,8.807,8.807,8.807,8.807,8.807,8.807,8.807,8.807,8.807,8.807,8.807,8.807,8.807,8.807,8.807,8.807,8.807,8.807,8.807,8.807,8.807,8.807,8.807,8.807,8.807,8.807,8.807,8.807,8.807,8.807,8.807,8.807,8.807,8.807,8.807,8.807,8.807,8.807,8.807,8.807,8.807,8.807,8.807,8.807,8.807,8.807,8.807,8.807,8.807,8.807,8.807,8.807,8.807,8.807,8.8008,8.7824,8.7867,8.7909,8.7909,8.8008,8.8029,8.7946,8.7971,8.807,8.807,8.807,8.807,8.807,8.807,8.8532,8.9609,8.9609,9.0166,9.128,9.128,9.128,9.1243,9.0129,8.9609,8.5622,8.4409,8.4017,8.2483,7.9807,7.8023,7.9526,7.9918,7.9954,7.9883,7.9883,8.0346,8.1876,8.2162,8.2661,8.4193,8.496,8.5358,8.5358,8.6271,8.6951,8.6951,8.7494,8.788,8.788,8.6375,8.6115,8.7732,8.7918,8.7897,8.7897,8.7971,8.7971,8.7971,8.7971,8.7971,8.7971,8.7992,8.8029,8.8029,8.8049,8.8049,8.8049,8.8049,8.807,8.807,8.807,8.8049,8.8049,8.8049,8.8049,8.8049,8.8049,8.807,8.8049,8.8049,8.8049,8.8049,8.8049,8.8049,8.8049,8.8049,8.8049,8.8049,8.8049,8.807,8.807,8.807,8.807,8.8049,8.8049,8.8049,8.8049,8.8049,8.8049,8.8049,8.8049,8.807,8.807,8.807,8.8049,8.8049,8.8049,8.8049,8.8049,8.8049,8.8049,8.7846,8.734,8.7478,8.7635,8.7635,8.7867,8.7946,8.7657,8.7867,8.8049,8.8049,8.8049,8.8049,8.8049,8.8049,8.8049,8.8049,8.8049,8.8049,8.8049,8.8049,8.807,8.807,8.807,8.807,8.0986,8.0767,8.0379,7.8849,7.8604,7.8959,7.9385,8.031,8.0842,7.9702,7.9453,7.9663,8.0292,8.0395,8.057,8.1095,8.162,8.1993,8.1993,8.266,8.3122,8.3122,8.365,8.3808,8.3463,8.2975,8.2901,8.3366,8.4309,8.4821,8.4821,8.5817,8.6361,8.6361,8.6361,8.6361,8.6361,8.6743,8.6929,8.6929,8.7509,8.7781,8.7781,8.7988,8.807,8.807,8.807,8.793,8.7781,8.7988,8.793,8.7803,8.7951,8.807,8.8029,8.765,8.7478,8.7478,8.7478,8.7478,8.7538,8.7716,8.7781,8.7803,8.8008,8.807,8.807,8.807,8.807,8.8029,8.7824,8.7781,8.7781,8.7781,8.7781,8.7824,8.8029,8.807,8.807,8.807,8.7888,8.7781,8.7781,8.7591,8.7478,8.7478,8.7478,8.7433,8.7293,8.734,8.74,8.74,8.7469,8.7492,8.7386,8.7433,8.7478,8.7478,8.7478,8.7478,8.7478,8.7478,8.7478,8.7478,8.7694,8.7781,8.7781,8.7951,8.807,8.807,8.807,8.807,8.203,8.2108,8.0673,7.8816,7.9484,8.0047,7.7843,7.9078,8.0034,7.7832,7.7371,7.7616,7.8423,7.8565,7.8811,7.9512,7.9996,8.026,8.026,8.0834,8.1243,8.1243,8.0224,7.9677,8.0083,8.0314,8.0698,8.1343,8.2113,8.2533,8.2533,8.3325,8.4042,8.4732,8.4768,8.5067,8.572,8.601,8.6147,8.621,8.6642,8.6855,8.6855,8.6989,8.7098,8.7098,8.7098,8.7002,8.6879,8.7026,8.7002,8.6904,8.7252,8.7404,8.7359,8.6805,8.6627,8.6653,8.6867,8.6953,8.7002,8.7386,8.7538,8.7524,8.7694,8.7738,8.7738,8.7738,8.7738,8.7694,8.7561,8.7538,8.7538,8.7538,8.7538,8.7561,8.7694,8.7738,8.7738,8.7738,8.7628,8.7538,8.7538,8.7363,8.7197,8.7013,8.6401,8.6218,8.6853,8.7026,8.7137,8.7137,8.7137,8.7137,8.7137,8.7197,8.7269,8.7269,8.7269,8.7269,8.7269,8.7269,8.7269,8.7269,8.7446,8.7546,8.7672,8.7824,8.7967,8.807,8.807,8.7266,8.5127,8.4688,8.1892,8.0208,8.0914,8.0715,0.0,7.7255,7.8562,7.534,7.4841,7.5368,7.6704,7.6952,7.7374,7.8577,7.8991,7.9124,7.9124,7.9637,7.9972,7.9972,7.723,7.5908,7.743,7.7992,7.8834,8.0257,8.0484,8.0565,8.0565,8.0746,8.1444,8.2837,8.2873,8.3605,8.5169,8.5264,8.5366,8.5518,8.5641,8.5699,8.5699,8.5691,8.572,8.572,8.572,8.572,8.572,8.572,8.5691,8.5691,8.6237,8.6318,8.6183,8.5785,8.5641,8.5699,8.6156,8.6328,8.6408,8.6903,8.7088,8.7173,8.7197,8.7221,8.7269,8.7269,8.7269,8.7269,8.7221,8.7221,8.7221,8.7221,8.7221,8.7221,8.7269,8.7269,8.7269,8.7269,8.7245,8.7221,8.7221,8.705,8.6733,8.6036,8.4778,8.4376,8.5773,8.6157,8.6312,8.6312,8.6312,8.6286,8.6261,8.6401,8.6598,8.683,8.6867,8.6965,8.7173,8.721,8.721,8.721,8.7197,8.7377,8.7606,8.7628,8.7627,8.7691,8.7711,8.5939,0.0,0.0,0.0,0.0,0.0,0.0,0.0,7.824,7.9403,7.5863,7.6041,7.6849,7.6836,7.6827,7.6574,7.5708,7.5594,7.563,7.563,7.5715,7.5802,7.5802,7.5212,7.4933,7.5248,7.5405,7.5537,7.5888,7.6982,7.7634,7.7634,7.8609,7.9324,7.9643,7.9643,8.0353,8.1948,8.2384,8.3224,8.4474,8.5113,8.5412,8.5412,8.5641,8.572,8.572,8.572,8.572,8.572,8.572,8.5612,8.5442,8.5756,8.5346,8.4671,8.4996,8.5091,8.5122,8.5216,8.5247,8.5272,8.5597,8.6007,8.6401,8.6601,8.6953,8.7269,8.7269,8.7269,8.7258,8.7038,8.6988,8.6988,8.6988,8.6988,8.7038,8.7221,8.7269,8.7269,8.7269,8.71,8.6988,8.6988,8.5748,8.4251,8.2807,8.2307,8.2234,8.2562,8.265,8.2639,8.2639,8.2639,8.2536,8.2217,8.1867,8.2374,8.4016,8.4153,8.4908,8.659,8.6653,8.6653,8.6653,8.6825,8.6977,8.7063,8.7282,8.6722,8.5536,8.5675,8.4559,0.0,0.0,0.0,0.0,0.0,0.0,0.0,0.0,0.0,0.0,0.0,7.5894,7.6883,0.0,7.4992,7.5528,7.5018,7.4555,7.4555,7.4614,7.4614,7.4459,7.4459,7.4459,7.4459,7.4459,7.4459,7.4459,7.5104,7.5533,7.5533,7.6172,7.6879,7.7654,7.7654,7.8393,7.9871,8.015,8.0676,8.1455,8.1858,8.2447,8.3196,8.3325,8.3815,8.4567,8.4567,8.4567,8.4567,8.4567,8.4469,8.4302,8.3643,8.3064,8.2763,8.3786,8.4174,8.4208,8.4479,8.4545,8.4609,8.5028,8.5339,8.5544,8.5692,8.61,8.6491,8.6491,8.6685,8.6825,8.6732,8.668,8.6497,8.5718,8.6121,8.6293,8.4797,8.5116,8.5482,8.4639,8.4368,8.4266,8.4266,8.2848,8.1712,8.165,8.0993,8.0687,8.128,8.1362,8.0601,7.8627,7.8419,7.8336,7.8177,7.7912,7.8919,8.1653,8.1863,8.2311,8.3344,8.338,8.3494,8.3761,8.3925,8.4126,8.4456,8.4602,8.434,8.3667,8.2797,8.1478,0.0,0.0,0.0,0.0,0.0,0.0,0.0,0.0,0.0,0.0,0.0,0.0,0.0,0.0,0.0,7.5624,7.5047,7.4399,7.4399,7.424,7.4169,7.4234,7.4272,7.4272,7.4272,7.4272,7.4272,7.4272,7.4272,7.4272,7.4272,7.4272,7.4835,7.6103,7.6174,7.6844,7.8288,7.8322,7.8429,7.871,0.0,0.0,8.061,8.061,8.1315,8.2476,8.2476,8.2476,8.2476,8.2476,8.2476,8.2335,8.1068,8.061,8.0751,8.2019,8.2476,8.2549,8.2975,8.3114,8.3182,8.3584,8.3815,8.3876,8.3876,8.429,0.0,8.4683,8.4945,8.5299,8.5299,8.5299,8.4972,8.3725,8.4389,8.4571,8.1925,8.2514,8.3176,8.1802,8.1599,8.165,8.165,7.9918,7.8785,7.9466,7.9004,7.863,7.8878,7.9408,7.856,7.5412,7.5067,7.5038,7.4949,7.4158,7.5151,7.8652,7.8513,7.8592,7.9291,7.9327,7.9503,7.9918,7.9918,8.0511,8.1704,8.1779,8.178,8.159,7.8239,7.6462,0.0,0.0,0.0,0.0,0.0,0.0,0.0,0.0,0.0,0.0,0.0,0.0,0.0,0.0,0.0,0.0,7.384,7.4272,7.4272,7.3071,7.2719,7.4096,7.4272,7.4272,7.4272,7.4272,7.4272,7.4272,7.4272,7.4272,7.4272,0.0,0.0,0.0,0.0,7.526,7.6809,7.6809,7.7478,7.871,7.871,7.8816,7.8992,7.8992,7.9062,7.9238,7.9238,7.9238,7.9238,7.9238,7.9238,7.9203,7.9062,7.8992,7.8992,7.9168,7.9238,7.9273,7.9343,0.0,0.0,7.9377,7.9749,8.0107,8.0107,8.0487,8.0919,8.0919,8.0949,8.0972,8.0972,8.0972,8.0936,8.0792,8.0864,8.09,8.0511,8.0938,8.1363,8.1154,8.1415,8.165,8.165,7.8428,7.504,7.2508,7.4276,7.4746,7.1652,7.3571,7.5044,7.4561,0.0,0.0,7.389,7.0257,6.968,7.3672,7.2175,7.2549,7.5671,7.5779,7.5844,7.5901,7.5901,7.7416,8.0462,8.0934,8.0402,7.8759,6.9846,6.8025,0.0,0.0,0.0,0.0,0.0,0.0,0.0,0.0,0.0,0.0,0.0,0.0,0.0,0.0,0.0,0.0,7.235,7.1897,7.1411,7.0473,7.0142,7.0806,7.1271,7.1916,7.2828,7.2898,7.3286,7.4201,7.4272,7.4272,7.4272,7.4272,7.4272,7.4272,7.4272,7.4589,7.5258,7.5258,7.5506,7.6105,7.6105,7.6598,7.7478,7.7478,7.7935,7.871,7.871,7.871,7.871,7.871,7.871,0.0,0.0,0.0,0.0,0.0,7.7372,7.814,7.814,7.814,7.8176,7.8463,7.8676,7.8883,7.9018,7.9379,7.9826,7.9826,8.0043,8.0254,8.0254,8.0254,8.0039,7.9141,7.9608,7.9787,7.7962,7.8459,7.8999,7.8069,7.7853,0.0,7.522,7.3422,7.1809,7.0579,7.148,7.1608,6.9765,7.0627,7.0582,6.8357,6.8151,6.8056,6.7798,6.6092,0.0,0.0,0.0,7.0218,7.2517,7.262,0.0,0.0,0.0,0.0,0.0,0.0,0.0,0.0,6.7717,6.7059,0.0,0.0,0.0,0.0,0.0,0.0,0.0,0.0,0.0,0.0,0.0,0.0,0.0,0.0,0.0,0.0,7.146,7.0498,6.9754,6.8976,6.8784,6.961,6.9157,6.9384,7.0916,7.0707,7.0949,7.2101,7.2171,7.2171,7.2171,7.2171,7.2345,7.273,7.2765,7.3077,7.3634,7.3669,7.3736,7.3939,7.3939,7.4536,7.5623,7.5623,7.6219,7.7167,7.7167,7.7167,7.7167,7.7167,7.7167,7.6886,7.3982,7.352,7.4525,7.4743,7.5473,7.6481,7.6481,7.6481,7.6518,7.681,7.6882,7.6954,7.7096,7.7442,7.7742,7.7742,7.8003,7.8286,7.8286,7.8286,7.8037,7.6866,7.7503,7.7649,7.5411,7.5888,7.63,7.48,7.3765,7.2396,7.0096,6.9618,6.9276,6.8458,6.9028,0.0,6.7665,6.8198,6.7659,6.4929,6.4622,6.4622,6.4622,6.3488,6.434,6.8057,6.7189,6.7603,6.9924,6.9197,6.9567,7.1303,6.9477,6.8239,0.0,0.0,0.0,0.0,0.0,0.0,0.0,0.0,0.0,0.0,0.0,0.0,0.0,0.0,0.0,0.0,0.0,0.0,0.0,0.0,0.0,0.0,0.0,0.0,7.0784,6.9467,6.968,7.2621,6.9263,6.7305,6.8796,6.7645,6.6866,6.6895,6.6934,6.69,6.6895,6.6934,6.7543,6.8928,6.8962,7.0007,7.2173,7.2173,7.2503,7.3149,7.3149,7.3149,7.3218,7.3218,7.3218,7.3253,7.3253,7.3253,7.3253,7.3253,7.3253,7.3182,7.2427,7.2204,7.2313,7.2934,7.3183,7.3217,7.3217,7.3217,7.3252,7.3217,7.3217,7.3252,7.3253,7.3287,7.3288,7.3288,7.3288,7.3323,7.3323,7.3323,7.3288,7.3219,7.3289,7.3289,7.3184,7.3496,7.3374,7.1929,6.9811,6.8402,6.8948,6.8721,6.7488,6.4562,6.6616,0.0,6.3603,6.5689,6.7465,6.7327,6.7327,6.7327,6.7327,6.3264,6.2649,6.7226,6.3697,6.3445,6.7923,6.5338,6.3819,6.3886,6.5164,6.5983,6.6332,0.0,0.0,0.0,0.0,0.0,0.0,0.0,0.0,0.0,0.0,0.0,0.0,0.0,0.0,0.0,0.0,0.0,0.0,0.0,0.0,0.0,0.0,0.0,0.0,6.7351,6.6101,6.9024,6.6833,6.6065,6.8429,6.7388,6.6988,6.8005,6.7232,6.6655,6.6686,6.6689,6.6892,6.7361,6.7364,6.7781,6.8506,6.8506,6.8617,6.8838,6.8838,6.9314,7.0269,7.0269,7.0778,7.1659,7.1659,7.1659,7.1659,7.1659,7.0268,6.8188,6.7958,6.7842,6.7919,6.8531,6.8719,6.879,6.9186,6.9363,6.9399,6.9646,7.0372,7.1201,7.1447,7.228,7.287,7.1794,7.1517,7.1344,7.0371,7.0128,7.0128,7.0128,7.0128,7.0128,7.0128,7.0228,7.0152,6.9697,6.7713,6.5519,6.3661,6.4177,6.4076,6.1955,6.3327,6.4185,6.3127,6.364,6.4148,6.4218,6.4148,6.4148,6.4218,6.2823,6.2687,6.4391,6.3193,6.3534,6.5998,6.5143,6.5074,6.6136,6.6856,6.5305,6.1398,0.0,0.0,0.0,0.0,0.0,0.0,0.0,0.0,0.0,0.0,0.0,0.0,0.0,0.0,0.0,0.0,0.0,0.0,0.0,0.0,0.0,0.0,0.0,0.0,0.0,0.0,6.6576,6.4732,0.0,6.6323,6.5886,6.5687,6.6342,6.5859,6.5245,6.4551,6.4712,6.4823,6.4818,6.4823,6.5172,6.5899,6.5932,6.6047,6.6312,6.6312,6.6817,6.7722,6.7722,6.8189,6.9092,6.9092,6.9092,6.9052,6.8546,6.7202,6.5452,6.5701,6.5997,6.6276,6.6571,6.672,6.6698,6.6792,6.681,6.6884,6.7358,6.7881,6.8436,6.8681,6.9474,7.0027,6.9026,6.9129,6.9336,6.8439,6.8231,6.8231,6.8231,6.8231,6.8231,6.8231,6.8231,6.7852,6.6816,6.5381,6.3538,6.0885,6.0751,6.065,5.97,5.9739,6.0146,6.1054,6.099,6.0721,6.0517,6.0415,6.0415,6.0517,6.0277,6.065,6.1871,6.1703,6.2381,6.4151,6.4219,6.4219,6.4186,6.5005,6.2911,0.0,0.0,0.0,0.0,0.0,0.0,0.0,0.0,0.0,0.0,0.0,0.0,0.0,0.0,0.0,0.0,0.0,0.0,0.0,0.0,0.0,0.0,0.0,0.0,0.0,0.0,0.0,6.5399,6.3061,0.0,0.0,0.0,0.0,6.1977,6.279,6.2491,6.0556,6.0998,6.1263,6.1241,6.1283,6.2273,6.4247,6.428,6.464,6.5348,6.5348,6.5415,6.5481,6.5481,6.5514,6.5581,6.5581,6.5581,6.5468,6.3918,6.3796,6.465,6.5263,6.6023,6.6776,6.6735,6.6712,6.6532,6.58,6.5494,6.5506,6.5917,6.5425,6.4696,6.473,6.4833,0.0,0.0,6.5821,6.7015,6.7051,6.7051,6.7051,6.7189,6.7224,6.7224,6.7224,6.7224,6.6302,0.0,6.2549,6.1972,6.0175,0.0,5.7186,5.7512,5.598,5.5515,5.7546,5.7813,5.7487,5.675,5.6682,5.6682,5.6682,5.6125,5.693,5.9674,5.9297,5.9933,6.2177,6.2177,6.0854,5.8202,5.9488,0.0,0.0,0.0,0.0,0.0,0.0,0.0,0.0,0.0,0.0,0.0,0.0,0.0,0.0,0.0,0.0,0.0,0.0,0.0,0.0,0.0,0.0,0.0,0.0,0.0,0.0,6.2106,6.1513,6.38,6.1764,6.0638,0.0,0.0,0.0,0.0,0.0,0.0,5.8403,5.8987,5.9104,5.8578,5.9076,5.98,6.0647,6.0614,6.0736,6.093,6.093,6.1482,6.2522,6.2522,6.3106,6.4081,6.4081,6.4081,6.3876,6.0657,5.9508,5.9737,5.991,6.01,6.0512,6.1884,6.1805,6.1237,6.2699,6.2621,6.1682,6.0817,5.9676,5.8752,5.9535,0.0,0.0,0.0,0.0,6.0504,6.1214,6.1389,6.1832,6.3674,6.4118,6.4118,6.4118,6.4118,6.2687,0.0,5.6884,5.5883,5.2604,0.0,0.0,0.0,0.0,5.441,5.6101,5.6087,5.5876,5.5739,5.5663,5.5627,5.5739,5.5594,5.5866,5.6793,5.6717,5.6881,5.7493,5.6506,5.5852,5.5581,0.0,0.0,0.0,0.0,0.0,0.0,0.0,0.0,0.0,0.0,0.0,0.0,0.0,0.0,0.0,0.0,0.0,0.0,0.0,0.0,0.0,0.0,0.0,0.0,0.0,0.0,0.0,5.952,5.9093,6.0069,5.9363,5.9016,0.0,0.0,0.0,0.0,0.0,0.0,0.0,0.0,0.0,5.6796,5.7223,5.7528,5.7754,5.8041,5.8168,5.8168,5.8535,5.9106,5.9913,5.9913,6.0328,6.1104,6.1104,6.055,5.9551,5.7418,5.6962,5.7481,0.0,0.0,0.0,0.0,5.7541,5.6612,5.7818,5.7763,5.711,5.694,0.0,0.0,0.0,0.0,0.0,0.0,0.0,5.8366,0.0,0.0,6.0078,6.0847,6.0913,6.0881,6.0881,5.9334,5.7121,0.0,5.3398,5.2475,4.9595,0.0,0.0,0.0,0.0,5.0514,5.2317,5.2956,5.3128,5.2883,5.2769,5.2764,5.2846,5.2585,5.302,5.4431,5.4278,5.4278,5.4747,5.4002,5.2866,0.0,0.0,0.0,0.0,0.0,0.0,0.0,0.0,0.0,0.0,0.0,0.0,0.0,0.0,0.0,0.0,0.0,0.0,0.0,0.0,0.0,0.0,0.0,0.0,0.0,0.0,0.0,0.0,0.0,5.6251,5.562,0.0,0.0,0.0,0.0,0.0,0.0,0.0,0.0,0.0,0.0,0.0,0.0,0.0,5.5805,5.6033,5.6442,5.6632,5.6632,5.7323,5.7657,5.7657,5.7657,5.7606,5.7503,5.7289,0.0,5.4531,5.4685,0.0,0.0,0.0,0.0,0.0,0.0,0.0,0.0,0.0,0.0,0.0,0.0,0.0,0.0,0.0,0.0,0.0,0.0,0.0,0.0,0.0,0.0,5.899,5.7865,5.76,5.7372,0.0,5.3689,5.0933,5.0671,5.0508,0.0,0.0,0.0,0.0,0.0,0.0,0.0,4.7825,4.9397,5.0078,4.939,4.9353,4.9353,4.9353,4.8811,4.9535,5.2051,5.1509,5.152,5.2429,5.2338,0.0,0.0,0.0,0.0,0.0,0.0,0.0,0.0,0.0,0.0,0.0,0.0,0.0,0.0,0.0,0.0,0.0,0.0,0.0,0.0,0.0,0.0,0.0,0.0,0.0,0.0,0.0,0.0,0.0,0.0,0.0,0.0,0.0,0.0,0.0,0.0,0.0,0.0,0.0,0.0,0.0,0.0,0.0,0.0,0.0,0.0,0.0,0.0,0.0,0.0,5.6048,5.617,5.617,5.617,5.587,5.53,5.4019,5.3222,5.2966,5.3932,0.0,0.0,0.0,0.0,0.0,0.0,0.0,0.0,0.0,0.0,0.0,0.0,0.0,0.0,0.0,0.0,0.0,0.0,0.0,0.0,0.0,0.0,5.2124,0.0,5.3696,5.3464,4.9749,0.0,0.0,0.0,0.0,0.0,0.0,0.0,0.0,0.0,0.0,0.0,4.6109,4.7495,4.8245,4.8159,4.812,4.812,4.812,4.8003,4.8164,4.8659,4.7572,4.6997,0.0,0.0,0.0,0.0,0.0,0.0,0.0,0.0,0.0,0.0,0.0,0.0,0.0,0.0,0.0,0.0,0.0,0.0,0.0,0.0,0.0,0.0,0.0,0.0,0.0,0.0,0.0,0.0,0.0,0.0,0.0,0.0,0.0,0.0,0.0,0.0,0.0,0.0,0.0,0.0,0.0,0.0,0.0,0.0,0.0,0.0,0.0,0.0,0.0,0.0,0.0,0.0,0.0,0.0,0.0,0.0,0.0,0.0,0.0,4.9171,0.0,0.0,0.0,0.0,0.0,0.0,0.0,0.0,0.0,0.0,0.0,0.0,0.0,0.0,0.0,0.0,0.0,0.0,0.0,0.0,0.0,0.0,0.0,0.0,0.0,0.0,0.0,0.0,0.0,0.0,0.0,0.0,0.0,0.0,0.0,0.0,0.0,0.0,0.0,0.0,4.3578,4.4892,4.5815,4.5815,4.5815,4.5815,4.5815,4.6413,4.6504,4.5807,4.5875,0.0,0.0,0.0,0.0,0.0,0.0,0.0,0.0,0.0,0.0,0.0,0.0,0.0,0.0,0.0,0.0,0.0,0.0,0.0,0.0,0.0,0.0,0.0,0.0,0.0,0.0,0.0,0.0,0.0,0.0,0.0,0.0,0.0,0.0,0.0,0.0,0.0,0.0,0.0,0.0,0.0,0.0,0.0,0.0,0.0,0.0,0.0,0.0,0.0,0.0,0.0,0.0,0.0,0.0,0.0,0.0,0.0,0.0,0.0,4.6241,0.0,0.0,0.0,0.0,0.0,0.0,0.0,0.0,0.0,0.0,0.0,0.0,0.0,0.0,0.0,0.0,0.0,0.0,0.0,0.0,0.0,0.0,0.0,0.0,0.0,0.0,0.0,0.0,0.0,0.0,0.0,0.0,0.0,0.0,0.0,0.0,0.0,0.0,0.0,0.0,0.0,4.1561,4.2878,4.3796,4.3796,4.3796,4.3796,4.3796,4.4764,4.481,4.3571,4.4202,0.0,0.0,0.0,0.0,0.0,0.0,0.0,0.0,0.0,0.0,0.0,0.0,0.0,0.0,0.0,0.0,0.0,0.0,0.0,0.0,0.0,0.0,0.0,0.0,0.0,0.0,0.0,0.0,0.0,0.0,0.0,0.0,0.0,0.0,0.0,0.0,0.0,0.0,0.0,0.0,0.0,0.0,0.0,0.0,0.0,0.0,0.0,0.0,0.0,0.0,0.0,0.0,0.0,0.0,0.0,0.0,0.0,0.0,0.0,0.0,0.0,0.0,0.0,0.0,0.0,0.0,0.0,0.0,0.0,0.0,0.0,0.0,0.0,0.0,0.0,0.0,0.0,0.0,0.0,0.0,0.0,0.0,0.0,0.0,0.0,0.0,0.0,0.0,0.0,0.0,0.0,0.0,0.0,0.0,0.0,0.0,0.0,0.0,0.0,0.0,0.0,4.1416,4.2585,4.3394,4.3394,4.3394,4.3394,4.3394,4.3514,4.315,4.2044,0.0,0.0,0.0,0.0,0.0,0.0,0.0,0.0,0.0,0.0,0.0,0.0,0.0,0.0,0.0,0.0,0.0,0.0,0.0,0.0,0.0,0.0,0.0,0.0,0.0,0.0,0.0,0.0,0.0,0.0,0.0,0.0,0.0,0.0,0.0,0.0,0.0,0.0,0.0,0.0,0.0,0.0,0.0,0.0,0.0,0.0,0.0,0.0,0.0,0.0,0.0,0.0,0.0,0.0,0.0,0.0,0.0,0.0,0.0,0.0,0.0,0.0,0.0,0.0,0.0,0.0,0.0,0.0,0.0,0.0,0.0,0.0,0.0,0.0,0.0,0.0,0.0,0.0,0.0,0.0,0.0,0.0,0.0,0.0,0.0,0.0,0.0,0.0,0.0,0.0,0.0,0.0,0.0,0.0,0.0,0.0,0.0,0.0,0.0,0.0,0.0,0.0,3.9595,3.9861,4.0076,4.0076,3.9509,3.9148,3.9148,3.9903,3.9904,3.8588,0.0,0.0,0.0,0.0,0.0,0.0,0.0,0.0,0.0,0.0,0.0,0.0,0.0,0.0,0.0,0.0,0.0,0.0,0.0,0.0,0.0,0.0,0.0,0.0,0.0,0.0,0.0,0.0,0.0,0.0,0.0,0.0,0.0,0.0,0.0,0.0,0.0,0.0,0.0,0.0,0.0,0.0,0.0,0.0,0.0,0.0,0.0,0.0,0.0,0.0,0.0,0.0,0.0,0.0,0.0,0.0,0.0,0.0,0.0,0.0,0.0,0.0,0.0,0.0,0.0,0.0,0.0,0.0,0.0,0.0,0.0,0.0,0.0,0.0,0.0,0.0,0.0,0.0,0.0,0.0,0.0,0.0,0.0,0.0,0.0,0.0,0.0,0.0,0.0,0.0,0.0,0.0,0.0,0.0,0.0,0.0,0.0,0.0,0.0,0.0,0.0,0.0,3.7793,3.765,3.7543,3.7442,3.6798,3.6327,3.6327,3.7272,3.7297,3.6036,0.0,0.0,0.0,0.0,0.0,0.0,0.0,0.0,0.0,0.0,0.0,0.0,0.0,0.0,0.0,0.0,0.0,0.0,0.0,0.0,0.0,0.0,0.0,0.0,0.0,0.0,0.0,0.0,0.0,0.0,0.0,0.0,0.0,0.0,0.0,0.0,0.0,0.0,0.0,0.0,0.0,0.0,0.0,0.0,0.0,0.0,0.0,0.0,0.0,0.0,0.0,0.0,0.0,0.0,0.0,0.0,0.0,0.0,0.0,0.0,0.0,0.0,0.0,0.0,0.0,0.0,0.0,0.0,0.0,0.0,0.0,0.0,0.0,0.0,0.0,0.0,0.0,0.0,0.0,0.0,0.0,0.0,0.0,0.0,0.0,0.0,0.0,0.0,0.0,0.0,0.0,0.0,0.0,0.0,0.0,0.0,0.0,0.0,0.0,0.0,0.0,0.0,3.6402,3.6614,3.6651,3.6365,3.6327,3.6327,3.6327,3.6355,3.5982,0.0,0.0,0.0,0.0,0.0,0.0,0.0,0.0,0.0,0.0,0.0,0.0,0.0,0.0,0.0,0.0,0.0,0.0,0.0,0.0,0.0,0.0,0.0,0.0,0.0,0.0,0.0,0.0,0.0,0.0,0.0,0.0,0.0,0.0,0.0,0.0,0.0,0.0,0.0,0.0,0.0,0.0,0.0,0.0,0.0,0.0,0.0,0.0,0.0,0.0,0.0,0.0,0.0,0.0,0.0,0.0,0.0,0.0,0.0,0.0,0.0,0.0,0.0,0.0,0.0,0.0,0.0,0.0,0.0,0.0,0.0,0.0,0.0,0.0,0.0,0.0,0.0,0.0,0.0,0.0,0.0,0.0,0.0,0.0,0.0,0.0,0.0,0.0,0.0,0.0,0.0,0.0,0.0,0.0,0.0,0.0,0.0,0.0,0.0,0.0,0.0,0.0,0.0,3.5652,3.5566,3.5517,0.0,3.4784,3.4379,3.4379,3.4379,3.4221,3.3929,0.0,0.0,0.0,0.0,0.0,0.0,0.0,0.0,0.0,0.0,0.0,0.0,0.0,0.0,0.0,0.0,0.0,0.0,0.0,0.0,0.0,0.0,0.0,0.0,0.0,0.0,0.0,0.0,0.0,0.0,0.0,0.0,0.0,0.0,0.0,0.0,0.0,0.0,0.0,0.0,0.0,0.0,0.0,0.0,0.0,0.0,0.0,0.0,0.0,0.0,0.0,0.0,0.0,0.0,0.0,0.0,0.0,0.0,0.0,0.0,0.0,0.0,0.0,0.0,0.0,0.0,0.0,0.0,0.0,0.0,0.0,0.0,0.0,0.0,0.0,0.0,0.0,0.0,0.0,0.0,0.0,0.0,0.0,0.0,0.0,0.0,0.0,0.0,0.0,0.0,0.0,0.0,0.0,0.0,0.0,0.0,0.0,0.0,0.0,0.0,0.0,0.0,0.0,3.4537,3.4484,0.0,3.3809,3.3432,3.3432,3.3432,3.3391,3.331,0.0,0.0,0.0,0.0,0.0,0.0,0.0,0.0,0.0,0.0,0.0,0.0,0.0,0.0,0.0,0.0,0.0,0.0,0.0,0.0,0.0,0.0,0.0,0.0,0.0,0.0,0.0,0.0,0.0,0.0,0.0,0.0,0.0,0.0,0.0,0.0,0.0,0.0,0.0,0.0,0.0,0.0,0.0,0.0,0.0,0.0,0.0,0.0,0.0,0.0,0.0,0.0,0.0,0.0,0.0,0.0,0.0,0.0,0.0,0.0,0.0,0.0,0.0,0.0,0.0,0.0,0.0,0.0,0.0,0.0,0.0,0.0,0.0,0.0,0.0,0.0,0.0,0.0,0.0,0.0,0.0,0.0,0.0,0.0,0.0,0.0,0.0,0.0,0.0,0.0,0.0,0.0,0.0,0.0,0.0,0.0,0.0,0.0,0.0,0.0,0.0,0.0,0.0,3.3644,3.3685,3.3472,3.3391,3.3351,3.3432,3.3391,3.3229,3.2968,3.3269,0.0,0.0,0.0,0.0,0.0,0.0,0.0,0.0,0.0,0.0,0.0,0.0,0.0,0.0,0.0,0.0,0.0,0.0,0.0,0.0,0.0,0.0,0.0,0.0,0.0,0.0,0.0,0.0,0.0,0.0,0.0,0.0,0.0,0.0,0.0,0.0,0.0,0.0,0.0,0.0,0.0,0.0,0.0,0.0,0.0,0.0,0.0,0.0,0.0,0.0,0.0,0.0,0.0,0.0,0.0,0.0,0.0,0.0,0.0,0.0,0.0,0.0,0.0,0.0,0.0,0.0,0.0,0.0,0.0,0.0,0.0,0.0,0.0,0.0,0.0,0.0,0.0,0.0,0.0,0.0,0.0,0.0,0.0,0.0,0.0,0.0,0.0,0.0,0.0,0.0,0.0,0.0,0.0,0.0,0.0,0.0,0.0,0.0,0.0,0.0,0.0,0.0,3.3498,3.3538,3.3432,3.282,3.2671,3.3391,3.282,3.2299,3.2025,3.2918,0.0,0.0,0.0,0.0,0.0,0.0,0.0,0.0,0.0,0.0,0.0,0.0,0.0,0.0,0.0,0.0,0.0,0.0,0.0,0.0,0.0,0.0,0.0,0.0,0.0,0.0,0.0,0.0,0.0,0.0,0.0,0.0,0.0,0.0,0.0,0.0,0.0,0.0,0.0,0.0,0.0,0.0,0.0,0.0,0.0,0.0,0.0,0.0,0.0,0.0,0.0,0.0,0.0,0.0,0.0,0.0,0.0,0.0,0.0,0.0,0.0,0.0,0.0,0.0,0.0,0.0,0.0,0.0,0.0,0.0,0.0,0.0,0.0,0.0,0.0,0.0,0.0,0.0,0.0,0.0,0.0,0.0,0.0,0.0,0.0,0.0,0.0,0.0,0.0,0.0,0.0,0.0,0.0,0.0,0.0,0.0,0.0,0.0,0.0,0.0,0.0,0.0,3.3432,3.3269,3.2861,3.2258,3.2133,3.2779,3.2258,3.1774,3.1516,3.2125,0.0,0.0,0.0,0.0,0.0,0.0,0.0,0.0,0.0,0.0,0.0,0.0,0.0,0.0,0.0,0.0,0.0,0.0,0.0,0.0,0.0,0.0,0.0,0.0,0.0,0.0,0.0,0.0,0.0,0.0,0.0,0.0,0.0,0.0,0.0,0.0,0.0,0.0,0.0,0.0,0.0,0.0,0.0,0.0,0.0,0.0,0.0,0.0,0.0,0.0,0.0,0.0,0.0,0.0,0.0,0.0,0.0,0.0,0.0,0.0,0.0,0.0,0.0,0.0,0.0,0.0,0.0,0.0,0.0,0.0,0.0,0.0,0.0,0.0,0.0,0.0,0.0,0.0,0.0,0.0,0.0,0.0,0.0,0.0,0.0,0.0,0.0,0.0,0.0,0.0,0.0,0.0,0.0,0.0,0.0,0.0,0.0,0.0,0.0,0.0,0.0,0.0,0.0,3.3147,3.2365,3.1816,3.1582,3.1924,3.1648,3.1305,3.1069,0.0,0.0,0.0,0.0,0.0,0.0,0.0,0.0,0.0,0.0,0.0,0.0,0.0,0.0,0.0,0.0,0.0,0.0,0.0,0.0,0.0,0.0,0.0,0.0,0.0,0.0,0.0,0.0,0.0,0.0,0.0,0.0,0.0,0.0,0.0,0.0,0.0,0.0,0.0,0.0,0.0,0.0,0.0,0.0,0.0,0.0,0.0,0.0,0.0,0.0,0.0,0.0,0.0,0.0,0.0,0.0,0.0,0.0,0.0,0.0,0.0,0.0,0.0,0.0,0.0,0.0,0.0,0.0,0.0,0.0,0.0,0.0,0.0,0.0,0.0,0.0,0.0,0.0,0.0,0.0,0.0,0.0,0.0,0.0,0.0,0.0,0.0,0.0,0.0,0.0,0.0,0.0,0.0,0.0,0.0,0.0,0.0,0.0,0.0,0.0,0.0,0.0,0.0,0.0,3.3391,3.3229,3.16,3.0771,3.1365,3.0667,3.013,3.0,0.0,0.0,0.0,0.0,0.0,0.0,0.0,0.0,0.0,0.0,0.0,0.0,0.0,0.0]}]]]